GFSMW_250_spd_000.txt.gz
Wind_Speed
57 52 48 45 45 43 45 47 51 52 50 53 52 45 39 42 43 45 40 39 42 41 42 44 46 48 48 49 50 51 51 51 53 56 58 60 60 63 64 66 68 69 72
57 50 47 44 44 43 42 44 45 44 44 44 39 37 39 40 44 41 40 41 39 38 39 42 45 44 45 46 47 50 51 52 53 56 60 63 65 65 66 70 73 74 78
57 48 45 43 42 41 39 40 40 40 37 35 35 36 39 41 37 36 36 36 37 35 37 40 41 43 44 46 48 51 55 57 56 57 59 62 66 68 74 76 78 79 83
57 48 44 42 41 40 38 38 37 33 32 34 33 36 38 37 37 37 38 40 38 40 42 44 45 46 48 50 52 55 58 62 64 65 65 66 66 67 67 78 84 86 88
57 48 45 43 42 41 39 37 34 33 29 29 31 34 36 38 40 40 40 43 43 44 46 47 48 51 53 56 59 61 63 66 69 69 72 74 75 74 71 70 79 86 89
57 51 45 43 44 41 39 38 38 33 33 34 35 36 40 41 42 42 44 44 44 46 50 51 54 56 59 63 67 69 71 74 74 75 75 77 80 83 83 81 80 82 87
56 51 47 45 45 44 42 41 40 35 35 35 37 38 40 40 42 46 47 47 49 52 56 58 61 64 68 72 76 77 78 81 82 83 84 84 85 84 85 87 87 90 91
55 51 48 47 48 46 44 43 42 41 41 39 40 41 43 44 46 49 51 52 54 58 61 65 68 71 74 78 82 83 88 89 88 87 87 86 87 89 93 95 92 80 82
56 52 50 49 49 47 46 45 44 45 43 41 42 45 46 47 50 52 53 56 60 64 67 71 75 79 81 85 88 92 92 92 90 88 88 89 92 95 93 91 93 91 83
55 51 51 51 50 48 49 48 46 47 46 46 47 48 49 51 54 56 58 61 65 69 74 78 81 85 88 92 96 96 94 92 91 90 92 95 95 93 94 94 93 97 99
54 51 50 51 52 52 53 51 50 50 49 48 49 50 52 56 60 61 63 68 72 76 82 85 88 92 96 100 99 96 92 90 92 95 96 94 94 95 93 95 99 104 112
52 50 49 52 54 55 55 54 53 52 51 52 53 55 59 62 64 68 71 75 80 84 88 91 95 99 103 102 96 93 92 94 96 97 95 94 93 94 99 104 109 114 120
51 50 51 53 54 56 56 54 54 55 53 55 59 62 65 67 70 73 77 82 86 90 94 98 102 105 104 97 93 93 96 98 98 96 93 92 96 103 109 115 119 123 126
52 51 51 52 53 55 55 55 54 54 57 60 62 65 68 71 75 78 83 88 93 96 100 104 107 105 96 94 96 97 99 98 97 93 96 102 107 113 119 124 126 127 128
53 52 51 51 53 54 52 53 56 59 61 64 66 70 73 76 79 84 89 94 97 101 105 109 104 97 96 97 98 98 98 96 94 99 105 112 118 123 127 127 126 125 119
51 51 51 51 53 54 56 58 61 64 66 68 71 75 78 81 84 89 94 98 102 106 109 101 95 98 98 98 99 98 93 97 101 107 115 122 126 129 130 127 119 113 107
48 50 52 54 56 58 60 62 65 67 70 73 76 79 82 85 89 94 98 102 106 107 99 97 98 98 98 100 97 95 100 104 112 118 124 128 131 129 121 112 106 103 101
50 50 52 55 58 60 63 65 68 71 74 77 79 81 85 90 94 98 101 106 103 96 96 98 98 98 100 96 96 100 107 115 122 126 132 132 125 117 109 101 97 95 91
50 51 54 56 58 60 64 68 71 74 76 79 82 85 89 93 96 100 104 97 94 96 96 97 98 99 96 99 103 110 117 123 128 133 133 123 113 105 100 95 90 87 83
53 54 56 57 59 61 62 65 70 74 77 81 84 88 91 95 100 100 92 92 93 94 95 97 95 96 100 106 112 118 123 129 131 130 124 114 107 100 94 88 82 79 75
54 56 57 59 62 64 67 69 72 75 79 82 86 91 95 98 92 89 90 92 92 93 94 92 96 101 108 114 121 127 133 132 127 120 113 105 100 95 88 83 78 73 68
56 58 59 61 64 67 69 72 76 79 82 86 90 93 90 86 87 87 90 90 89 88 90 95 102 109 115 121 128 133 132 125 119 112 105 97 92 87 82 79 73 65 61
56 59 61 65 67 69 72 75 78 82 86 89 87 82 82 83 84 85 85 85 85 90 95 101 107 113 121 128 132 127 122 117 112 105 98 91 85 82 77 70 64 58 55
57 60 62 65 69 72 75 79 82 83 81 78 78 79 81 81 83 81 81 85 90 95 101 106 113 120 128 128 120 117 113 106 101 97 90 84 81 77 69 61 57 52 48
61 64 67 70 72 75 76 76 74 72 74 75 76 77 77 77 77 80 85 91 97 102 106 112 119 125 121 115 113 107 101 96 93 86 82 80 75 66 59 53 50 46 41
64 66 68 68 67 67 65 66 69 70 71 73 72 70 71 73 79 85 92 97 103 108 114 121 124 117 113 110 102 99 95 90 84 80 78 74 65 58 52 48 44 39 35

GFSMW_250_spd_003.txt.gz
Wind_Speed
78 72 70 65 59 54 53 52 54 52 53 56 57 56 56 57 54 51 51 49 47 47 46 44 42 39 39 41 42 43 44 47 50 53 55 56 59 62 64 67 69 70 72
78 75 71 68 61 53 52 51 50 49 43 42 44 45 47 48 48 47 46 45 45 43 40 40 39 41 43 44 46 48 48 50 52 54 57 61 62 64 67 71 74 75 77
74 75 72 69 62 54 52 50 49 46 41 40 41 43 44 44 43 43 41 42 41 41 42 44 45 46 47 48 51 53 54 55 55 58 61 65 70 72 78 79 81 81 82
72 74 72 70 63 53 51 51 48 43 39 38 39 39 40 38 38 37 37 39 40 41 44 46 47 50 51 52 55 58 61 63 65 68 69 72 73 74 76 84 87 86 86
69 72 74 68 61 53 50 50 45 41 38 38 38 36 37 35 34 36 38 40 42 44 46 49 51 52 53 55 57 61 65 69 72 74 77 81 83 83 83 80 84 88 89
68 71 71 67 61 54 51 49 44 40 40 39 37 38 37 37 38 39 41 41 44 46 49 53 55 56 57 60 64 67 71 75 79 81 85 88 91 95 95 91 88 84 83
70 70 69 69 61 55 52 49 44 42 41 41 41 41 40 40 41 42 43 44 47 51 53 57 58 61 62 65 70 75 79 83 86 89 94 97 99 98 96 90 84 80 83
72 68 69 68 62 56 53 50 46 43 43 45 44 44 45 44 47 46 46 48 51 55 58 61 63 66 68 72 77 83 88 91 93 98 102 104 101 95 91 88 86 85 87
72 71 72 68 62 57 55 51 47 46 47 48 47 48 49 48 48 47 49 53 56 59 62 65 69 72 75 79 85 91 94 98 102 105 107 100 93 92 95 97 95 90 80
73 72 70 68 62 57 54 51 50 49 49 49 50 50 51 51 50 52 55 58 61 63 67 71 75 77 81 86 92 97 101 105 108 109 100 96 98 99 96 96 96 95 93
75 75 71 66 60 55 54 53 52 52 52 52 52 53 53 53 54 56 60 63 66 69 73 77 79 82 87 93 98 102 107 110 113 103 100 102 98 97 100 96 95 99 105
73 70 66 64 58 56 55 55 55 55 55 54 55 56 56 55 58 62 64 68 72 74 77 80 83 89 94 100 104 109 113 115 104 103 104 99 100 100 96 99 103 110 118
69 67 65 64 58 57 56 57 57 57 57 56 56 57 60 62 64 67 70 72 74 78 81 85 91 96 101 105 110 113 116 107 106 105 101 102 98 98 102 108 115 121 125
65 63 64 60 56 56 57 58 58 58 57 57 57 60 62 64 67 70 73 76 80 84 88 92 97 101 106 110 113 117 108 107 106 103 102 98 102 107 112 118 124 128 132
65 65 62 57 56 56 56 57 58 57 57 58 60 62 65 67 70 74 78 82 86 89 94 99 102 106 109 113 116 107 108 105 103 101 101 106 111 117 123 128 129 128 120
63 62 59 55 55 53 53 55 56 57 58 60 61 64 67 71 75 79 83 86 91 95 99 102 105 109 113 114 107 108 104 103 99 103 108 115 120 126 131 131 124 116 106
61 58 54 52 50 49 50 54 55 57 58 61 64 67 71 75 79 83 87 92 95 98 101 104 108 113 108 106 107 102 100 101 106 111 117 123 129 132 126 119 113 106 100
57 53 51 50 50 50 51 53 55 58 60 63 66 70 74 78 82 86 89 92 96 100 103 108 110 105 105 105 100 97 102 107 114 121 127 131 131 126 116 107 102 99 94
53 50 49 49 49 50 52 54 56 59 61 65 68 72 76 79 82 86 90 94 98 103 107 106 102 104 102 97 97 101 107 113 121 128 134 133 126 116 108 100 97 92 85
49 47 47 48 49 50 52 54 58 61 64 67 71 74 78 82 86 89 93 97 102 103 99 101 103 98 93 97 102 108 114 119 127 135 133 126 116 108 102 97 89 84 80
47 46 45 48 50 52 55 58 60 63 67 70 74 77 81 85 89 92 97 99 97 96 98 98 93 93 97 103 109 116 121 127 132 129 123 115 107 103 97 89 83 79 74
45 45 46 49 52 55 58 59 62 66 71 74 77 80 84 88 93 94 93 92 94 95 92 89 93 99 105 110 116 123 128 131 127 121 114 104 100 94 86 81 77 72 66
46 47 48 50 52 55 59 62 65 69 72 75 79 84 88 89 88 88 91 92 89 84 85 90 96 103 110 116 123 129 130 125 121 114 103 98 90 83 80 74 71 64 59
47 49 51 54 57 59 61 65 68 71 76 80 83 84 83 82 84 87 85 79 80 84 89 96 102 108 115 122 128 124 120 117 110 100 96 88 81 77 75 69 63 57 53
50 52 54 57 60 63 66 70 73 76 78 79 77 76 79 82 80 74 73 79 84 89 94 100 106 112 119 123 118 114 111 102 94 92 85 79 76 71 66 60 55 52 47
51 54 58 61 64 67 69 70 70 69 69 69 74 76 74 68 67 73 79 84 90 96 101 107 112 120 119 113 111 108 97 92 89 83 78 75 70 66 59 53 51 47 43

GFSMW_250_spd_006.txt.gz
Wind_Speed
69 70 72 75 74 75 70 64 61 61 56 52 52 53 56 59 59 59 62 63 65 59 57 53 50 49 45 42 42 42 44 47 49 51 51 53 56 60 64 67 70 71 74
69 70 71 72 74 72 70 66 63 60 53 50 48 47 47 49 51 52 52 52 52 51 51 50 47 44 41 43 45 46 49 51 53 55 57 59 61 63 67 72 76 78 82
67 71 70 69 72 70 70 68 64 61 51 49 47 45 46 48 46 45 48 48 47 47 47 44 41 41 43 44 48 49 52 53 55 57 57 60 64 69 79 84 86 86 90
65 70 71 68 69 71 68 67 64 60 53 49 46 45 47 47 45 45 44 44 42 41 41 40 41 43 46 49 52 53 56 58 61 63 65 67 69 72 76 88 96 99 103
59 65 68 70 66 67 69 65 63 61 54 50 48 45 45 45 44 43 42 40 40 41 41 41 44 47 50 53 55 58 61 63 66 69 72 75 77 81 80 82 92 101 107
55 60 66 68 65 64 65 66 65 62 55 50 47 45 44 44 42 41 40 40 42 43 43 45 47 51 54 58 60 63 67 69 72 75 77 81 85 92 94 94 97 99 104
50 52 60 67 66 62 64 64 66 62 54 50 46 46 45 44 43 43 43 45 46 46 47 49 53 56 59 62 66 69 71 74 79 81 84 87 92 97 100 103 105 107 94
53 55 57 63 64 61 63 63 64 60 56 51 47 46 46 47 46 47 47 47 49 50 52 55 59 61 65 68 71 74 77 81 84 87 90 95 100 105 109 113 114 100 97
62 62 60 59 64 62 64 63 62 59 56 51 47 48 48 49 49 50 50 50 52 55 56 59 62 66 69 73 76 80 84 86 90 93 97 102 107 112 116 121 110 110 96
63 60 58 60 64 64 64 64 62 59 57 52 49 49 50 52 52 52 53 53 56 59 61 63 67 71 73 77 80 84 88 92 96 99 104 109 113 118 121 113 113 106 101
60 63 63 62 62 66 63 64 61 59 57 53 51 51 52 53 54 55 56 58 61 62 65 68 72 75 78 82 86 90 94 98 101 106 110 115 118 120 114 112 107 104 104
61 62 62 62 61 66 63 65 62 59 56 55 53 52 53 55 57 58 60 62 64 67 70 74 77 80 83 87 91 96 100 103 107 111 115 119 119 115 111 106 104 108 113
61 63 61 60 60 66 64 63 60 58 57 55 54 53 56 58 59 61 63 64 67 71 74 76 80 84 88 92 97 101 105 109 112 115 119 116 113 109 105 106 110 116 122
58 58 58 60 61 65 63 62 59 57 56 54 53 55 58 60 62 64 66 68 70 73 76 80 84 89 94 98 101 104 108 112 115 119 114 113 108 104 107 112 119 124 128
53 54 57 59 61 62 59 60 57 54 53 53 54 57 61 64 65 67 69 70 73 76 79 84 88 92 96 100 103 107 111 115 117 112 111 105 104 109 115 120 125 131 132
52 52 51 53 59 59 58 56 54 52 53 53 55 59 64 65 68 69 70 73 76 79 84 88 92 95 99 103 107 110 115 112 111 107 103 106 111 117 122 128 132 133 120
47 46 49 54 56 54 54 54 51 51 52 54 57 62 65 68 69 70 73 75 79 83 86 90 94 99 102 106 110 113 108 108 104 102 107 113 119 124 128 132 128 118 110
40 43 50 52 52 53 52 48 48 51 53 55 59 63 65 66 68 71 75 77 81 85 90 94 97 102 105 110 108 107 105 100 102 109 114 119 126 130 130 120 116 112 105
39 46 49 50 50 49 48 48 48 50 53 57 61 62 64 67 70 73 77 81 84 88 93 97 101 105 108 103 104 97 97 103 109 116 123 128 130 131 119 114 108 103 101
41 45 47 47 46 46 46 48 49 52 56 59 61 62 65 69 73 77 81 84 88 92 96 101 104 99 100 96 91 96 102 107 113 120 129 132 129 117 114 106 102 98 90
38 43 44 45 45 45 46 48 52 55 57 59 62 65 69 73 77 79 82 87 91 96 99 98 96 96 89 91 97 103 108 113 119 128 132 127 118 113 105 101 94 84 80
38 43 45 45 44 45 47 50 54 56 59 62 65 68 72 75 78 82 86 91 96 96 91 92 87 86 92 98 102 108 113 121 128 130 124 117 109 102 98 90 82 77 72
41 45 46 45 45 47 49 52 54 56 60 63 66 70 74 78 82 87 91 92 87 87 82 79 85 91 98 103 109 113 120 127 129 123 117 105 98 93 87 81 75 70 64
40 44 44 44 47 49 50 53 56 60 63 67 70 74 78 83 87 87 84 83 79 73 78 83 89 95 102 107 112 120 124 124 120 113 101 95 89 82 79 76 68 62 56
41 43 44 46 48 51 54 57 61 64 67 70 74 78 82 81 78 79 74 68 72 77 82 88 94 99 105 111 120 120 118 113 102 94 91 85 79 76 70 64 60 54 51
39 42 45 47 50 53 57 60 63 66 70 73 74 73 72 74 70 65 66 71 77 83 88 94 100 104 110 119 117 114 110 96 91 88 82 77 74 68 62 56 50 49 46

GFSMW_250_spd_009.txt.gz
Wind_Speed
57 57 58 63 67 69 72 70 70 68 67 66 61 55 51 53 52 51 53 52 53 54 56 58 59 62 60 58 56 52 51 49 47 49 48 51 53 57 59 60 62 64 67
56 56 57 63 66 68 68 69 69 68 67 65 62 58 52 52 49 48 47 46 47 51 54 55 55 54 53 54 52 50 48 47 48 51 53 56 56 60 64 67 69 71 75
55 55 53 61 68 68 68 67 67 68 66 61 58 60 57 53 49 47 46 46 48 49 50 50 50 50 52 50 49 48 47 49 52 55 57 59 63 65 71 74 75 78 83
57 57 51 53 65 69 68 66 63 65 64 62 58 62 58 54 49 46 47 47 48 50 49 47 50 49 48 48 47 47 49 53 55 59 61 65 67 69 71 80 85 87 90
58 57 50 52 60 66 67 66 62 62 62 67 63 62 59 54 50 48 47 48 47 47 46 46 47 47 48 47 49 50 53 55 60 63 68 71 73 74 74 77 86 90 95
61 61 55 51 56 60 62 64 63 60 63 64 66 63 59 53 49 49 48 47 47 46 45 46 46 48 50 51 53 55 57 60 65 68 73 76 79 82 82 82 84 88 94
64 63 53 52 55 54 57 60 62 59 61 66 65 64 60 52 50 49 48 48 48 48 48 48 49 52 53 55 57 60 64 67 70 74 77 80 83 86 88 91 91 92 97
66 62 55 54 55 54 53 55 58 59 60 64 64 62 59 54 52 49 49 49 49 50 51 51 53 55 57 59 62 65 68 72 75 79 83 86 88 91 95 98 99 99 103
64 57 53 55 55 54 52 53 57 58 58 63 64 62 59 54 52 50 50 51 52 52 54 55 57 58 61 64 66 70 74 77 82 86 89 92 94 99 102 106 108 108 106
61 53 50 54 57 55 52 50 54 57 58 62 63 61 57 54 52 51 53 53 54 54 56 59 60 63 65 68 72 76 80 84 88 90 94 97 101 105 108 110 113 118 120
57 51 49 52 55 55 53 51 54 57 58 61 62 61 57 54 53 53 54 55 56 56 59 62 64 66 69 73 76 80 85 88 92 95 98 102 105 109 112 116 120 124 121
57 49 49 55 56 55 52 51 51 58 61 60 61 60 56 55 54 55 56 56 57 59 62 64 66 70 73 76 80 84 87 91 95 99 102 106 109 114 117 122 125 119 119
59 53 51 55 56 55 54 52 51 58 60 59 59 59 57 57 57 56 56 57 59 62 64 67 71 73 77 80 83 87 91 95 99 102 106 110 114 118 123 121 119 114 112
58 52 44 46 53 52 51 51 51 55 60 58 59 58 58 59 57 57 57 58 62 64 67 70 73 77 80 83 86 90 95 99 102 107 110 114 119 121 117 115 109 115 120
51 47 44 44 46 48 50 50 50 52 60 58 58 58 59 59 57 56 58 61 63 67 70 74 77 81 83 86 90 93 97 103 107 111 115 120 117 115 109 111 117 123 127
44 42 38 42 49 52 50 50 49 47 58 58 58 58 58 56 54 57 60 61 66 69 73 78 81 83 86 90 92 97 102 105 110 115 116 112 110 106 112 118 125 130 133
47 44 44 46 47 46 46 47 46 47 57 59 58 55 52 52 55 57 60 64 68 72 77 81 83 85 88 93 98 101 105 110 113 109 109 101 107 113 117 123 128 134 130
45 43 47 45 44 45 41 41 44 48 54 52 50 47 50 53 56 59 63 66 71 76 79 82 85 89 93 97 101 105 110 107 106 100 103 108 112 119 124 127 131 125 116
41 43 43 43 41 39 39 41 41 47 48 46 46 47 51 54 57 60 65 70 75 79 82 84 89 94 96 100 106 106 104 99 96 103 109 114 120 125 129 130 120 113 107
32 35 35 33 34 34 33 35 41 44 42 41 44 48 51 54 59 64 69 74 78 81 85 89 92 95 101 105 102 100 90 97 102 109 115 121 127 130 128 118 110 105 101
9 13 19 23 25 27 32 35 36 36 38 42 46 50 54 58 63 68 73 76 80 85 88 92 96 101 99 98 91 90 96 102 108 114 120 127 131 125 115 108 103 98 89
6 4 11 17 22 26 28 31 33 36 40 44 49 53 57 62 67 71 75 79 83 87 90 96 97 94 91 83 90 97 103 110 114 120 127 130 122 112 107 102 96 86 80
3 7 10 16 22 27 30 34 37 40 44 48 53 57 62 66 70 73 78 82 85 90 92 89 89 81 86 91 97 104 110 114 122 127 129 119 110 104 100 90 82 77 69
9 12 17 21 26 31 35 39 42 46 50 53 58 62 67 70 74 78 81 84 87 84 85 79 77 83 90 96 103 109 113 121 126 125 116 107 101 96 86 80 75 68 62
13 18 21 25 29 36 41 44 48 50 54 58 63 67 70 73 77 80 82 79 79 78 72 76 82 88 95 102 107 111 119 122 117 110 101 95 89 80 75 68 64 61 56
18 19 21 26 31 37 44 49 52 55 60 64 67 68 71 75 77 74 74 74 68 68 74 80 87 94 100 104 110 118 120 112 105 97 91 81 75 72 67 62 56 52 49

GFSMW_250_spd_012.txt.gz
Wind_Speed
54 56 59 62 59 58 62 64 61 62 61 66 67 67 63 60 60 60 58 54 52 51 50 50 52 53 54 57 59 61 61 61 61 59 58 56 54 53 55 56 60 61 62
52 57 58 59 61 60 61 62 62 59 60 61 64 64 60 58 59 60 60 55 52 50 49 52 52 50 51 53 55 55 57 58 59 59 56 55 54 55 58 61 63 66 68
59 57 60 59 59 58 61 61 62 60 58 60 59 63 63 61 62 60 58 58 55 52 52 53 52 52 53 52 54 55 58 58 58 57 56 55 55 58 62 65 68 69 73
68 69 66 61 58 58 60 60 60 62 61 59 60 60 65 64 63 61 59 58 56 55 54 53 53 53 53 54 55 56 56 54 54 55 56 56 59 62 66 72 74 77 80
78 75 69 66 61 57 59 58 56 59 63 62 60 56 61 65 64 61 60 59 58 57 57 56 55 54 53 52 54 52 52 52 53 56 58 61 64 66 69 74 81 82 86
86 77 71 63 60 56 57 58 56 56 61 67 64 59 61 63 64 63 61 60 59 58 58 56 57 56 53 53 52 52 55 57 58 60 63 66 69 72 73 76 81 84 92
88 81 73 65 58 57 59 57 55 58 58 63 66 62 60 63 63 64 63 62 60 59 58 57 58 57 55 55 53 56 57 59 61 64 68 71 73 77 80 82 85 88 93
87 82 75 68 59 60 58 56 55 56 57 56 62 63 61 61 63 64 65 64 62 60 58 58 59 58 57 57 58 59 61 63 65 69 73 76 79 83 86 89 91 92 97
81 81 78 70 67 64 61 55 54 56 54 53 55 62 60 58 64 66 64 65 63 62 60 60 59 59 59 60 62 63 65 67 71 74 77 81 84 87 91 93 96 97 97
78 75 77 71 66 66 62 54 54 55 51 50 53 58 59 60 62 65 66 64 63 63 63 61 60 61 61 63 64 67 69 72 75 78 81 84 88 91 94 96 100 103 104
78 72 66 65 62 60 57 52 50 52 48 47 52 55 58 60 61 64 66 65 63 64 65 61 60 63 64 65 67 69 73 76 78 81 84 88 91 94 98 102 104 109 114
80 73 65 62 62 56 53 49 48 47 46 45 48 53 58 61 61 63 66 67 66 65 64 62 62 64 65 67 70 73 76 79 82 85 87 91 94 99 102 106 111 114 118
80 74 65 61 57 53 50 47 47 47 47 47 47 49 56 60 62 65 68 69 67 64 63 63 64 64 67 70 73 76 79 82 84 87 91 95 99 103 108 112 115 121 123
73 70 63 56 51 47 43 42 43 45 48 49 49 49 52 59 63 66 68 69 65 62 63 63 64 67 70 73 76 79 82 85 89 93 96 100 105 109 113 118 121 119 114
55 57 54 52 49 43 39 37 42 46 49 51 49 47 51 59 64 66 67 67 64 63 61 62 66 69 72 76 78 82 85 89 94 98 102 106 110 115 119 119 115 108 113
46 52 52 51 49 43 37 37 43 47 50 51 49 48 48 55 65 65 61 63 62 61 62 64 68 72 75 78 83 86 89 95 99 103 108 112 117 119 114 107 110 117 123
45 46 47 46 47 43 41 39 41 47 50 50 52 52 52 53 60 61 59 60 60 60 61 66 71 74 78 83 86 90 95 99 104 109 113 117 115 107 105 110 118 125 132
41 44 45 45 43 40 38 39 42 44 46 48 48 50 50 51 56 59 57 55 55 58 64 68 72 77 81 85 90 94 100 104 109 115 117 111 102 106 112 118 125 131 135
38 39 41 42 42 43 40 39 38 41 44 47 47 45 46 47 51 53 51 50 54 60 65 70 75 79 84 89 93 99 103 109 113 112 107 102 107 115 120 126 129 134 133
35 39 40 41 40 40 40 39 39 41 42 41 39 39 39 41 45 46 47 50 58 63 68 72 77 83 87 93 98 104 110 111 107 100 101 107 114 121 128 130 133 128 117
32 34 35 37 38 37 37 37 38 36 32 28 26 29 33 38 41 44 50 56 61 66 72 77 81 86 92 98 104 108 106 101 95 101 107 114 121 126 129 132 123 113 106
18 23 24 25 26 27 24 20 17 17 18 22 26 31 34 38 43 49 54 60 65 71 76 82 87 91 97 102 102 99 94 95 100 107 114 121 125 129 129 118 109 104 98
18 15 14 13 12 11 11 12 15 18 22 25 30 34 38 43 48 53 59 65 70 76 81 86 92 97 98 95 91 89 95 101 107 114 121 126 129 124 113 106 102 96 89
9 9 8 6 5 7 10 14 18 23 27 30 34 39 44 50 55 60 65 70 75 81 87 91 91 90 86 82 89 95 101 106 113 119 125 127 118 110 104 99 93 88 81
8 8 6 6 8 11 15 19 23 27 31 38 43 48 52 57 61 66 71 77 82 85 85 84 80 76 81 87 94 100 105 110 116 122 121 112 106 100 95 87 82 76 69
13 12 11 13 17 21 23 26 31 35 40 45 50 55 59 64 68 72 76 79 78 77 73 70 74 80 85 91 98 104 110 115 118 114 107 101 96 90 84 79 72 65 61

GFSMW_250_spd_015.txt.gz
Wind_Speed
62 62 61 60 57 55 56 57 61 64 61 59 61 58 58 60 62 65 68 70 68 67 63 59 58 56 55 56 55 53 54 54 54 54 55 56 58 60 59 58 57 58 58
65 66 66 64 64 62 57 56 57 61 61 58 57 58 57 59 59 63 66 70 69 66 64 63 60 58 57 55 54 54 54 54 54 54 55 57 59 59 58 57 56 59 62
71 68 68 68 68 64 60 55 56 57 60 60 56 56 58 58 58 61 65 67 67 67 66 64 60 60 59 57 56 55 55 56 56 57 57 57 56 54 54 55 57 60 64
78 77 74 71 66 67 66 62 57 57 57 56 57 57 57 57 59 60 65 66 66 66 66 65 63 61 61 59 59 57 56 57 57 59 58 56 54 53 56 58 61 64 67
84 82 81 77 73 69 68 67 61 58 58 56 54 55 56 57 60 61 63 66 68 67 67 66 65 63 62 62 61 60 60 59 59 59 60 60 58 58 59 62 66 67 71
89 85 86 84 77 73 69 70 68 64 61 57 53 53 55 55 59 63 65 65 67 68 69 67 66 64 64 64 62 60 60 61 62 62 63 62 62 63 64 66 70 72 77
98 94 91 87 83 76 72 70 71 66 62 58 53 51 51 51 54 62 66 66 67 69 69 68 67 68 68 66 64 62 61 63 65 65 65 66 67 69 71 72 74 76 82
101 100 97 92 87 81 71 74 74 66 63 55 52 49 51 51 53 58 64 67 68 70 68 69 69 70 70 68 67 63 64 65 68 68 69 70 72 74 76 78 78 80 84
101 104 104 102 97 90 79 76 77 71 66 54 51 50 50 49 54 59 63 67 68 68 71 71 71 72 73 71 68 67 67 68 70 71 72 74 76 78 80 82 84 85 86
91 94 96 99 95 91 83 81 79 74 66 55 52 52 51 54 54 57 60 65 67 67 69 72 73 74 74 72 71 69 70 71 71 73 75 77 78 81 82 85 87 89 88
92 98 93 89 84 81 78 75 74 69 61 57 56 56 54 53 52 55 55 61 65 66 67 70 74 74 74 73 71 71 72 74 75 75 77 80 81 83 85 87 90 91 93
85 91 85 83 73 70 65 66 67 64 59 58 53 55 54 51 49 50 54 57 63 68 69 70 72 73 73 74 73 74 74 76 78 78 79 82 85 88 89 92 95 96 101
60 78 78 77 68 62 58 58 60 59 55 52 51 53 53 53 49 49 51 55 60 66 70 70 70 72 73 73 74 75 77 77 78 80 84 85 88 91 93 97 99 104 109
53 64 71 69 62 55 51 49 53 52 50 47 48 52 52 51 50 52 52 53 58 63 68 70 71 72 73 73 74 75 76 77 79 83 85 89 92 95 99 101 107 111 116
44 54 64 62 58 49 47 47 47 46 44 45 48 49 49 50 52 52 53 56 57 61 66 70 72 72 73 74 73 74 74 77 81 85 89 93 95 99 104 108 113 118 123
34 47 52 53 52 48 47 45 40 39 41 43 44 47 49 49 51 53 55 58 52 55 61 69 71 71 72 72 72 73 75 79 84 88 93 96 99 103 108 114 119 125 126
27 34 39 44 45 46 45 40 38 39 38 39 39 48 46 48 51 53 57 53 57 58 59 64 70 70 69 69 70 72 75 81 86 91 95 99 104 109 114 119 126 123 120
19 26 32 38 41 42 41 39 40 37 37 38 39 52 50 51 52 54 58 61 59 57 58 59 64 65 66 66 68 72 78 84 89 94 99 104 109 115 121 122 118 116 121
23 26 30 33 35 38 41 42 39 21 31 37 43 45 46 49 52 54 56 56 54 56 53 54 58 61 63 66 70 76 81 87 94 98 104 109 116 121 119 114 113 121 125
22 25 29 32 35 38 39 38 38 38 48 46 41 50 48 52 52 52 51 51 46 44 46 50 56 59 63 69 75 81 87 91 97 104 111 116 116 113 110 115 120 125 129
23 26 30 31 34 35 36 37 38 41 44 46 46 48 49 47 46 41 37 37 39 44 49 53 57 63 69 74 80 86 92 97 104 111 112 110 107 110 116 121 126 129 131
19 25 27 31 32 31 32 35 37 39 41 42 40 35 31 29 30 33 36 40 44 48 53 58 63 69 75 81 88 93 99 105 107 105 102 104 110 115 121 125 129 129 115
17 20 23 23 27 29 29 28 27 25 24 22 22 24 27 29 33 37 42 46 50 55 60 65 71 77 82 88 94 100 101 99 96 99 105 110 115 121 125 127 122 109 100
13 14 15 15 17 18 18 17 16 16 17 20 23 27 31 36 40 44 49 53 58 63 69 74 80 85 90 93 94 92 90 92 98 105 110 116 121 124 125 114 105 96 90
16 15 14 13 12 12 12 13 15 18 21 24 28 33 37 42 47 52 56 61 66 70 75 79 82 84 83 81 84 88 92 97 103 109 116 120 123 119 107 98 92 86 82
9 9 10 10 11 13 14 16 18 22 26 29 33 38 43 49 54 58 63 66 69 72 74 74 73 75 77 81 86 92 98 103 110 116 119 119 108 101 93 87 82 76 70

GFSMW_250_spd_018.txt.gz
Wind_Speed
67 68 66 62 61 59 59 56 54 53 50 50 54 55 56 58 57 58 60 62 66 69 69 71 71 70 70 69 65 64 63 59 57 55 56 56 56 57 56 56 56 56 57
71 72 70 68 66 66 64 61 59 54 58 50 50 53 53 55 59 60 59 61 63 66 68 69 69 71 71 70 68 66 64 63 60 58 55 54 58 57 57 57 57 55 56
78 75 72 70 71 70 70 67 64 61 59 56 50 49 52 55 58 60 60 59 60 64 67 67 67 68 68 69 68 66 67 66 63 62 60 58 57 59 62 60 58 57 58
85 83 80 74 74 73 73 71 67 65 62 58 55 57 50 52 55 58 59 59 60 61 65 67 65 66 68 69 69 68 68 68 66 65 62 62 62 62 65 63 62 61 62
89 90 89 84 79 77 76 75 71 70 67 62 59 60 56 55 54 57 55 55 59 60 63 65 66 66 67 69 70 70 69 69 67 66 65 66 65 65 64 66 66 66 67
97 96 93 91 88 85 80 77 74 76 73 69 63 61 61 56 58 57 51 53 58 59 60 63 64 66 67 70 71 72 73 72 71 70 68 68 68 68 67 67 69 69 74
102 101 98 96 94 90 87 81 75 76 75 72 69 64 63 57 60 57 53 51 56 55 56 60 64 67 68 69 73 75 75 75 74 72 71 72 73 71 71 69 70 72 76
110 107 103 102 102 100 94 89 78 77 79 73 72 66 58 61 61 57 55 53 52 55 54 54 61 68 68 70 72 77 78 78 77 75 75 76 75 75 76 76 74 74 76
108 99 99 103 106 105 102 97 84 82 80 76 72 64 60 63 60 57 56 54 56 55 54 55 59 65 70 71 73 76 77 79 80 79 79 80 79 79 81 81 81 79 78
97 92 92 92 95 94 97 97 88 86 81 79 71 67 69 64 61 62 61 58 58 58 56 55 57 62 68 72 74 76 78 79 81 83 84 84 83 84 85 85 85 86 85
86 88 89 84 85 83 89 95 86 84 79 76 73 72 71 65 64 62 62 61 60 59 56 57 57 58 63 70 75 76 78 80 82 84 85 86 86 86 87 87 88 89 91
65 71 66 72 78 80 82 89 89 83 78 80 80 79 73 64 61 61 62 62 59 59 57 56 56 59 62 66 71 76 78 79 81 83 85 87 88 88 88 89 90 92 96
47 55 49 45 57 71 79 81 79 66 67 72 72 66 64 59 59 60 60 60 59 59 56 55 57 59 59 63 68 72 79 81 82 82 83 85 86 87 88 89 91 94 97
37 36 36 44 52 60 70 72 67 59 59 55 52 54 53 55 56 57 59 59 58 56 55 57 59 62 62 64 67 71 76 80 83 83 83 83 84 85 87 89 92 95 97
17 18 29 38 40 48 53 46 52 52 44 40 43 45 48 50 52 55 57 56 57 53 54 60 62 64 63 67 67 69 72 76 81 81 81 81 82 83 85 88 92 96 101
3 6 18 26 29 35 38 43 40 37 37 37 37 40 44 46 50 52 52 49 51 54 59 62 66 67 67 67 68 69 70 72 74 77 78 80 81 83 86 89 95 101 106
9 14 20 26 33 37 36 33 31 32 30 30 33 35 38 38 40 43 49 50 50 56 61 65 66 68 66 65 65 67 68 65 65 70 75 79 81 84 88 94 101 108 114
23 22 26 30 34 34 31 31 30 29 27 29 30 27 24 35 43 59 53 55 58 62 61 64 67 67 68 67 66 61 58 59 64 71 76 78 83 89 95 100 107 114 117
23 24 24 25 27 28 28 27 26 23 23 21 14 25 34 33 39 52 56 63 61 60 62 63 63 64 63 58 55 56 60 65 70 74 79 85 90 96 102 108 113 119 118
16 17 18 20 21 22 23 24 22 21 20 10 26 32 29 40 47 56 57 57 60 63 63 62 57 52 52 55 59 63 66 71 75 82 88 94 99 104 109 112 114 111 112
17 17 16 16 17 18 18 19 20 19 20 21 30 41 42 46 55 56 61 64 63 58 50 49 52 54 58 61 65 69 73 78 84 91 96 102 106 109 111 108 109 112 116
15 16 13 14 10 15 19 20 22 26 34 38 48 50 54 56 58 62 59 48 46 48 50 53 56 60 64 67 72 77 82 87 92 97 102 104 105 105 107 110 113 117 121
8 11 16 19 23 29 25 24 30 30 35 40 46 49 52 52 44 40 41 44 47 51 54 58 62 66 69 74 79 83 88 91 93 96 98 99 102 105 110 112 117 119 111
7 10 11 15 21 28 28 24 27 31 34 36 35 34 33 34 38 41 43 46 50 55 59 64 67 70 74 77 80 83 85 87 90 94 98 102 106 109 114 116 111 101 93
4 6 8 9 13 16 19 21 21 21 22 24 26 28 31 33 36 39 44 50 55 59 63 67 70 73 74 75 77 80 83 87 92 97 103 108 111 113 109 100 92 86 80
6 8 11 10 12 14 15 15 16 18 20 23 24 26 30 34 39 44 50 54 58 63 67 68 67 68 69 72 77 83 89 94 99 104 107 107 105 99 92 85 79 74 72

GFSMW_250_spd_021.txt.gz
Wind_Speed
71 69 70 69 67 68 68 63 59 55 55 55 52 48 47 48 49 51 52 54 55 60 62 64 65 63 63 64 68 70 73 74 75 75 73 71 68 66 65 62 60 59 60
76 73 70 70 71 70 70 68 66 64 62 61 60 54 52 50 49 49 45 47 50 55 60 64 65 65 64 63 64 67 71 72 73 74 74 73 71 68 69 68 65 63 63
78 78 76 75 76 77 78 78 74 70 67 67 63 59 57 56 55 53 53 50 51 52 56 60 63 64 63 64 64 65 66 69 71 73 74 74 72 71 71 71 69 68 67
85 86 86 83 81 81 84 84 82 74 70 68 69 65 64 61 59 58 55 55 52 50 53 57 60 64 64 62 62 64 66 67 69 71 72 72 72 72 71 73 73 72 71
91 92 91 89 88 87 86 88 87 82 75 69 67 69 67 62 61 60 56 58 57 54 54 57 58 60 62 61 61 63 65 67 68 70 71 74 75 75 74 76 75 75 75
94 93 93 93 92 91 89 88 89 86 80 76 72 70 73 68 64 64 62 63 63 60 58 56 57 58 58 58 60 62 65 66 68 70 72 75 76 76 77 78 79 78 81
94 95 94 95 95 93 93 92 90 91 86 81 78 75 76 71 69 64 62 64 63 60 59 59 58 57 58 57 59 61 62 66 69 70 72 74 77 80 81 81 81 81 83
100 100 98 100 102 101 102 101 97 95 93 84 80 79 77 74 70 65 67 64 61 61 61 59 58 56 59 60 59 61 63 65 69 72 75 76 78 80 83 85 86 85 86
106 106 106 107 108 108 107 107 106 101 94 87 82 80 75 75 70 67 68 64 62 61 61 62 61 59 61 62 62 64 64 62 65 70 76 79 81 82 84 86 87 88 88
104 106 106 108 110 106 106 104 106 105 100 94 87 79 78 76 73 70 65 62 63 62 63 63 63 61 63 63 66 65 65 63 64 65 69 75 80 84 86 87 89 90 90
98 96 95 97 98 95 92 92 92 91 96 98 92 87 82 80 78 73 66 66 65 63 62 65 62 64 64 66 66 66 65 63 65 67 69 72 77 83 89 91 93 93 92
74 70 70 69 73 71 68 73 82 83 84 84 82 78 78 78 72 67 67 66 64 63 67 65 63 65 66 67 67 68 67 66 66 67 71 73 75 79 83 88 93 93 93
59 55 48 53 53 50 48 50 57 71 76 77 70 67 68 62 60 61 63 64 66 68 63 62 63 65 67 66 68 69 67 68 69 72 76 77 79 79 79 80 83 88 90
44 40 40 38 38 39 40 41 43 50 60 66 65 59 59 56 56 60 63 66 62 63 60 59 64 65 65 66 66 66 69 72 73 75 76 77 77 78 76 76 78 80 84
27 24 27 25 26 32 32 33 39 39 50 57 58 50 46 47 52 54 55 56 56 54 57 60 61 62 62 65 66 69 73 74 77 77 75 75 74 72 70 68 70 74 79
7 9 6 7 10 17 22 23 30 32 34 46 44 35 36 40 43 45 44 45 48 54 57 59 57 59 61 63 67 73 74 75 76 75 71 67 65 65 66 68 72 78 83
23 18 16 19 16 12 21 30 32 31 35 36 37 36 36 35 34 35 37 43 51 58 56 52 58 61 65 68 69 73 74 73 70 66 64 65 68 71 74 78 82 86 91
28 27 28 31 30 27 25 33 34 32 32 32 31 31 29 27 25 29 26 37 34 53 52 62 64 63 67 71 72 68 66 63 63 65 69 72 76 79 82 85 91 96 101
26 31 34 36 35 34 35 36 36 35 30 26 24 21 20 13 22 23 27 44 45 50 61 70 68 68 75 69 65 63 63 66 70 73 76 78 82 86 89 93 97 103 106
19 22 26 27 28 28 27 26 24 24 23 23 23 26 24 29 36 40 40 46 56 58 56 64 68 76 73 67 65 69 70 72 75 78 81 84 88 92 95 97 98 100 101
12 15 16 17 18 19 21 19 21 21 24 28 28 22 22 29 45 48 50 52 51 54 59 62 72 73 64 67 69 71 73 76 79 83 87 90 92 94 95 97 98 101 107
14 15 18 14 15 14 16 17 18 21 27 33 32 35 34 39 39 43 44 47 53 59 65 70 64 64 66 68 71 74 76 79 82 85 86 88 91 94 98 101 105 110 112
4 3 6 14 11 17 16 17 21 24 21 22 28 30 32 35 39 42 47 53 60 66 59 59 60 62 66 70 74 77 78 77 79 82 87 91 96 101 104 106 109 106 100
3 5 7 8 4 6 5 17 14 14 17 23 30 35 40 44 49 53 56 56 54 54 55 57 61 65 69 72 72 72 73 77 83 89 96 99 103 105 107 104 98 93 88
3 3 1 7 10 13 16 16 20 21 24 27 29 30 32 34 36 40 44 47 49 52 55 59 65 69 68 66 68 74 80 85 92 97 102 106 106 104 97 90 85 81 76
3 4 3 3 3 6 9 10 12 14 14 17 21 25 30 35 38 40 43 47 51 55 59 63 63 58 63 69 76 82 88 93 98 102 104 103 99 93 85 79 73 69 66

GFSMW_250_spd_024.txt.gz
Wind_Speed
77 74 74 75 75 75 73 70 64 62 65 63 63 61 60 58 57 55 53 54 55 54 56 57 54 55 57 59 64 66 67 68 70 69 68 70 71 72 73 75 74 74 75
80 81 79 78 79 79 80 78 73 66 63 66 65 64 59 60 63 64 64 59 55 53 55 52 54 55 54 57 60 63 66 67 66 68 70 70 69 71 73 74 75 75 76
80 82 83 83 83 81 80 82 81 75 67 66 69 67 64 63 63 64 66 63 60 58 62 59 55 56 57 60 61 61 61 61 64 66 68 69 70 71 71 72 73 75 76
86 86 85 85 85 86 88 87 88 82 75 72 70 74 73 72 73 72 72 65 65 62 60 62 58 58 60 60 62 62 61 59 59 62 65 67 68 69 71 72 74 75 76
92 93 93 94 94 94 92 91 91 90 86 80 77 77 79 78 77 72 70 68 67 66 68 68 64 64 65 64 65 61 60 58 55 58 63 66 68 70 70 72 74 77 78
99 99 99 100 101 100 100 98 96 95 94 89 84 80 78 78 80 77 72 69 65 66 67 68 69 67 66 64 64 62 60 57 57 56 58 61 66 69 71 73 75 78 81
100 101 102 103 105 106 106 104 102 100 99 94 89 87 80 80 81 80 72 68 68 69 70 71 72 66 65 64 66 61 62 60 60 59 60 60 62 66 69 72 74 77 81
92 95 98 101 103 105 105 105 104 103 102 99 93 89 84 78 79 80 76 72 72 72 71 71 68 67 67 66 66 64 64 64 62 64 64 64 64 66 68 70 72 74 77
87 88 90 93 97 101 104 106 108 108 106 102 100 93 87 82 80 84 79 74 72 71 69 69 68 67 68 67 68 65 67 66 65 67 68 68 68 69 68 69 71 72 73
82 86 89 93 96 99 104 107 108 110 110 108 104 99 91 88 88 86 79 74 73 72 71 69 69 68 67 70 69 69 68 69 68 69 71 70 70 72 72 73 74 75 75
81 86 92 94 96 102 107 108 109 108 108 108 106 103 99 95 91 88 81 73 75 73 71 70 69 70 70 71 69 69 71 68 70 72 74 72 74 74 73 73 76 80 80
79 83 84 81 78 80 86 93 94 93 92 96 100 99 94 93 94 90 85 82 74 67 67 67 70 69 68 68 69 71 69 69 71 75 74 73 71 72 74 77 80 83 85
67 69 63 58 66 65 64 64 67 66 68 69 72 76 81 87 84 82 77 74 74 72 71 71 68 66 66 68 70 68 68 70 73 73 70 69 73 75 78 80 83 84 83
57 61 61 52 47 46 48 52 52 52 53 55 61 69 73 76 76 72 68 67 66 64 64 60 58 62 65 70 68 67 68 70 70 69 71 73 77 80 84 84 82 78 75
42 44 38 32 28 26 28 30 31 30 33 38 42 44 50 52 56 53 50 49 49 50 51 52 55 64 67 65 64 67 70 70 65 67 72 79 82 83 79 74 73 75 78
27 20 17 15 14 16 19 19 19 19 18 26 27 26 33 38 37 36 39 40 43 44 49 51 56 58 59 61 66 71 70 68 70 74 81 78 75 72 73 76 79 82 85
23 20 15 17 14 1 10 14 12 14 16 26 28 26 28 33 32 32 32 33 37 39 43 40 41 55 63 67 71 74 69 68 69 77 80 81 77 78 80 83 86 89 91
20 21 22 23 18 15 6 8 19 18 20 24 28 33 33 29 25 23 20 18 36 35 29 38 58 66 68 66 60 59 63 71 80 85 86 82 85 86 88 89 91 94 96
15 19 22 22 23 28 32 32 32 32 33 29 27 28 27 26 23 16 22 37 36 33 45 53 53 61 66 67 66 70 76 81 85 87 84 87 89 90 92 92 91 92 95
6 11 13 18 23 27 33 37 33 37 29 27 25 23 22 22 31 26 33 41 43 37 50 56 57 58 61 67 68 72 76 81 84 84 87 90 91 92 89 89 92 97 102
8 6 7 8 16 19 15 19 25 22 26 24 24 28 29 32 33 35 39 44 46 51 51 54 57 59 62 64 71 76 79 78 82 86 91 91 87 87 92 97 100 104 107
5 8 7 10 9 10 17 17 19 22 23 24 24 26 26 31 35 36 41 47 51 53 54 55 61 65 65 70 76 73 74 79 85 89 85 83 90 95 99 102 105 109 109
5 2 4 7 7 13 10 14 15 15 19 19 24 28 32 33 33 35 37 45 48 53 57 57 60 64 69 73 70 73 79 82 81 78 85 89 94 99 103 107 108 107 102
9 8 5 2 5 4 1 9 10 9 11 16 19 23 30 33 36 39 42 45 47 50 55 62 67 66 65 68 73 76 77 73 79 83 89 94 100 104 107 106 102 97 92
2 2 3 3 6 5 3 7 6 9 8 11 17 22 28 32 34 37 40 42 46 49 52 55 58 62 66 69 70 67 73 78 85 91 96 102 106 105 102 98 92 87 83
4 4 2 3 4 5 5 6 6 9 12 14 17 20 23 26 30 34 39 43 46 49 53 58 61 61 59 60 67 73 80 85 90 96 101 103 101 97 91 85 80 75 70

GFSMW_250_spd_027.txt.gz
Wind_Speed
80 79 77 76 77 78 75 74 73 74 74 73 73 70 72 70 69 65 65 67 68 67 66 65 62 61 58 55 55 56 59 59 58 58 61 62 64 66 70 71 71 71 72
76 79 78 77 78 80 80 79 77 75 75 77 76 74 73 68 67 68 69 69 65 66 62 63 63 63 59 59 59 64 61 59 60 62 61 62 62 63 66 69 71 70 70
79 80 79 80 79 81 83 84 84 82 81 82 81 77 75 72 67 66 70 70 72 72 70 70 71 70 70 69 66 64 64 62 63 67 68 63 62 61 62 64 66 68 70
80 82 83 84 85 85 85 85 86 87 86 85 83 83 82 79 78 78 75 74 73 73 74 73 71 70 70 67 68 70 70 73 74 74 72 66 63 58 58 61 62 63 65
83 85 86 87 88 89 91 92 94 93 94 91 89 88 85 85 85 84 80 71 72 70 72 72 75 75 75 73 71 73 74 72 73 76 72 69 64 61 59 60 61 63 64
92 93 94 95 98 99 100 100 100 100 100 100 99 98 97 94 92 89 88 82 77 77 76 76 76 76 77 76 75 74 73 71 73 73 71 70 67 65 63 63 62 63 65
94 97 99 101 105 107 110 111 112 112 111 109 107 105 105 102 97 94 90 88 83 78 78 77 76 75 74 75 74 76 75 73 72 72 70 69 70 68 69 66 65 65 68
83 86 89 94 98 103 106 109 111 113 114 113 111 109 107 103 101 99 96 92 90 86 80 75 75 74 73 74 75 76 74 74 72 72 72 68 72 71 71 69 69 68 70
84 85 88 92 97 99 102 103 104 105 107 107 107 106 104 102 100 96 92 90 87 84 82 78 73 72 71 73 74 73 74 72 72 72 72 72 73 72 73 71 71 72 70
84 88 89 89 90 92 95 98 100 101 103 104 104 103 100 99 97 95 92 90 88 87 84 80 75 72 72 73 72 72 72 73 72 74 76 75 74 74 75 73 75 74 70
76 78 82 85 88 92 95 97 99 100 102 103 102 100 96 94 93 92 90 89 90 90 86 83 78 75 75 75 73 72 71 72 74 74 76 76 74 76 75 74 76 74 73
72 76 79 82 86 88 88 89 93 96 99 101 96 95 96 96 94 92 92 90 88 89 87 85 80 76 74 72 70 71 70 73 75 73 75 76 78 79 77 77 76 75 78
64 71 74 77 77 77 76 75 78 79 75 79 79 78 84 87 87 89 91 92 90 93 89 86 79 75 75 73 70 69 70 71 72 74 75 77 80 80 78 81 79 82 88
56 57 53 56 61 59 52 52 54 60 64 70 71 70 74 73 72 74 76 78 77 77 85 83 75 72 69 69 66 65 69 69 69 71 78 79 78 79 82 82 86 87 88
42 41 45 49 52 49 43 40 42 45 48 51 52 53 59 60 61 62 64 65 60 62 70 71 67 63 61 63 65 66 64 64 73 79 80 78 80 82 83 84 85 82 82
31 35 36 34 31 27 25 23 22 25 27 29 30 33 38 42 46 49 54 57 57 51 51 54 55 53 55 56 56 58 67 72 78 78 77 75 74 73 81 77 79 83 88
26 28 26 29 24 23 19 19 15 12 12 16 21 24 23 21 19 21 24 28 28 31 33 34 39 40 44 48 55 61 70 71 73 74 74 72 74 77 80 82 86 90 94
21 21 23 23 15 13 16 10 8 9 4 4 13 16 23 25 30 29 25 20 20 23 28 29 24 33 42 53 59 60 66 71 70 68 72 77 78 82 85 90 91 96 100
19 19 17 17 11 7 12 22 27 26 24 26 25 35 33 35 25 23 20 19 21 20 24 25 34 48 49 53 56 63 69 75 79 78 81 83 85 90 92 93 96 100 104
13 19 18 16 14 15 7 20 30 28 31 30 29 29 26 27 27 20 18 19 18 19 29 35 38 48 54 61 63 65 69 76 78 80 85 87 88 91 93 97 100 102 101
10 13 16 16 18 14 11 9 8 15 17 24 23 24 23 21 21 24 24 26 28 36 42 47 52 54 59 64 69 69 74 75 78 83 86 89 91 92 96 99 99 101 106
6 7 6 10 10 12 10 8 6 6 6 4 4 8 15 21 23 22 23 30 36 42 45 50 54 57 60 63 67 72 75 79 84 86 88 89 92 96 97 97 102 107 110
8 6 7 5 8 12 9 7 8 5 3 4 6 11 15 19 23 28 31 29 38 40 47 50 54 58 63 65 67 72 75 76 79 83 88 92 92 93 98 102 107 111 113
9 8 8 9 7 4 8 10 9 9 7 10 11 13 15 20 24 28 30 35 37 40 43 47 51 55 57 59 62 67 72 77 81 86 85 87 92 97 103 106 109 110 108
9 6 4 4 8 8 5 4 7 9 8 8 10 14 18 21 26 32 35 38 40 41 43 46 50 53 57 62 67 71 73 73 76 83 89 93 97 101 104 106 105 99 91
12 10 6 3 4 4 4 5 6 8 9 12 15 17 19 22 24 26 29 32 36 41 45 49 51 52 51 51 57 65 71 77 83 86 89 96 100 101 99 92 85 82 76

GFSMW_250_spd_030.txt.gz
Wind_Speed
83 80 80 79 79 81 82 82 82 82 80 79 78 76 74 74 72 71 68 68 70 72 72 72 72 70 63 63 67 66 63 63 65 64 65 64 61 63 65 68 69 66 63
80 81 80 78 78 78 80 81 81 80 79 78 79 78 76 74 75 75 74 75 72 71 71 68 67 64 65 69 68 69 72 70 67 65 64 65 66 66 67 68 67 66 63
74 76 74 72 73 76 78 78 79 80 80 81 82 82 82 82 81 80 81 80 77 68 70 70 70 69 70 72 72 73 73 70 68 70 68 70 70 71 70 69 70 66 65
76 77 77 78 79 78 80 81 83 85 86 86 86 85 86 87 88 90 90 86 83 80 72 73 74 76 74 73 73 75 76 73 73 74 74 72 73 73 71 70 68 67 68
76 77 79 81 81 83 86 88 88 89 92 92 91 91 91 91 90 90 90 89 84 84 81 77 71 73 75 78 75 75 76 77 77 76 76 74 73 71 71 69 68 69 69
80 81 82 84 85 85 87 88 90 92 94 95 96 96 96 95 94 95 95 95 93 86 83 82 83 82 82 79 78 82 80 80 80 79 76 75 73 73 71 69 68 69 69
85 88 91 93 94 96 97 99 100 101 103 105 106 106 107 107 105 105 106 105 103 98 95 94 92 91 86 81 79 78 80 79 79 78 77 77 74 74 72 71 69 70 70
88 90 93 94 95 96 97 102 105 107 109 110 111 112 113 111 111 111 109 106 104 103 101 98 95 91 86 86 84 85 83 80 76 75 70 75 78 76 75 72 72 72 72
79 83 87 88 90 93 97 99 101 102 105 106 108 110 111 110 109 108 106 103 102 99 95 92 86 83 82 83 82 80 77 75 74 74 71 80 77 77 75 75 76 77 75
77 79 82 85 87 90 94 98 99 102 105 105 105 105 105 105 104 102 100 97 97 95 94 93 90 87 82 80 79 78 75 75 76 76 74 78 79 78 78 77 78 81 77
81 82 83 84 83 85 88 93 94 97 99 101 102 100 101 100 99 96 94 92 91 90 90 91 89 87 86 83 82 79 76 76 75 76 78 77 79 80 79 78 81 83 84
74 74 74 73 73 74 80 86 90 93 97 98 99 101 101 103 101 97 94 92 89 87 86 87 85 83 83 82 79 77 77 78 78 78 77 73 82 80 80 82 82 84 85
65 64 65 67 70 72 74 81 83 85 84 82 83 81 84 87 86 86 85 83 85 85 85 87 87 85 85 83 81 80 79 79 78 79 77 74 76 81 83 85 86 85 87
55 56 57 58 57 60 63 62 64 65 64 62 61 64 69 73 74 74 79 75 74 75 77 81 82 82 83 83 84 84 83 81 78 76 75 73 68 78 80 86 88 87 88
45 48 46 47 44 43 47 48 49 50 46 46 46 47 51 53 56 62 70 69 64 65 65 67 68 67 68 68 74 79 79 75 71 68 72 72 76 81 84 84 89 90 81
42 40 40 34 31 38 41 46 50 46 42 36 32 29 29 33 38 46 51 54 54 55 56 56 52 51 55 57 64 62 63 63 62 67 72 75 78 80 83 88 85 83 83
35 36 30 25 31 34 40 44 40 38 36 31 23 18 16 17 20 25 32 38 44 49 48 48 50 53 52 49 42 45 48 51 58 61 69 73 76 82 87 80 76 86 92
31 32 22 22 27 31 31 36 29 22 23 26 25 16 8 6 12 15 15 16 18 22 26 27 27 29 26 20 28 39 49 54 59 65 70 72 78 80 79 80 86 91 93
28 26 20 19 21 26 27 28 28 11 12 16 21 17 17 19 14 20 24 24 25 22 19 16 16 18 23 26 39 42 45 51 58 63 68 77 83 83 86 90 94 98 101
24 22 19 19 19 19 21 20 21 11 15 12 11 16 18 19 25 25 24 19 15 20 18 13 17 22 30 38 44 49 54 57 60 66 75 80 84 87 90 93 98 100 102
20 21 15 17 19 17 17 18 19 20 16 13 12 15 11 12 11 8 10 8 9 10 13 22 26 32 37 43 45 48 53 58 64 71 77 82 85 90 95 96 97 97 97
19 19 18 15 14 16 18 17 19 18 15 15 15 14 13 10 7 3 3 8 9 10 14 19 23 28 34 41 47 52 58 63 71 76 81 83 87 89 90 90 92 95 100
21 19 19 19 17 15 15 15 18 18 17 13 14 16 17 15 10 10 14 15 19 23 29 27 31 38 42 49 55 60 64 68 71 75 77 80 83 85 88 92 98 103 107
25 20 19 20 17 15 13 11 13 14 14 13 11 11 11 16 19 20 21 24 28 31 33 37 40 43 46 50 53 56 60 65 68 72 73 77 84 90 95 100 103 105 108
24 21 16 14 14 13 13 13 13 12 12 12 12 13 16 19 21 22 23 26 28 30 33 36 39 42 46 50 52 55 58 63 69 74 81 87 92 94 98 102 104 106 104
23 20 17 12 11 10 10 10 11 10 11 11 11 13 16 19 22 25 28 30 32 31 34 37 39 42 46 51 55 60 65 71 77 82 86 88 91 96 100 102 99 91 87

GFSMW_250_spd_033.txt.gz
Wind_Speed
82 83 81 78 75 74 75 78 78 80 79 78 78 80 81 81 79 81 80 78 70 71 70 70 70 71 70 69 69 69 70 65 63 64 64 68 68 69 67 65 66 67 67
84 80 80 80 80 79 78 80 80 82 80 79 79 79 81 80 81 79 77 77 77 77 75 73 72 72 74 76 73 72 71 70 70 70 71 70 72 70 71 69 70 71 69
80 80 80 81 81 80 79 80 81 81 80 79 79 78 78 78 80 81 81 81 81 82 82 79 78 76 77 76 75 74 74 74 74 72 73 73 76 71 72 75 74 73 69
75 75 78 79 79 78 79 80 81 81 82 82 81 82 81 80 81 83 86 86 85 87 81 74 75 77 78 78 77 74 76 77 77 76 74 76 75 75 75 75 76 74 70
73 73 75 76 77 78 79 81 83 83 85 85 86 87 87 87 89 91 92 93 92 91 85 83 81 81 75 75 74 74 76 79 79 81 80 77 77 78 78 78 78 75 73
75 75 76 76 78 80 81 82 84 86 87 87 88 89 90 91 92 94 95 97 97 94 93 90 86 85 83 79 81 82 80 80 78 78 80 80 78 77 77 78 78 77 75
76 77 77 79 82 84 84 85 87 89 90 92 94 94 96 98 98 100 102 104 104 105 104 104 101 98 95 93 89 87 87 87 84 81 80 80 81 80 80 78 77 73 75
77 78 81 83 85 88 90 92 95 98 100 101 103 105 107 110 112 112 112 112 110 107 107 107 102 96 90 86 82 80 81 81 84 86 86 86 83 82 79 77 76 75 78
83 85 87 90 91 93 97 99 101 103 101 101 103 105 107 108 108 108 108 108 108 108 107 106 104 102 98 93 86 84 84 82 82 80 79 80 82 81 81 79 81 82 79
85 87 89 90 93 93 93 94 95 96 96 98 99 101 102 104 105 107 108 108 109 109 110 110 109 105 102 99 96 89 85 83 81 78 76 78 79 81 80 82 82 81 81
78 80 81 82 85 86 86 86 86 84 85 89 91 93 95 96 97 99 101 103 103 103 102 100 97 95 92 91 89 90 89 83 83 82 81 78 80 82 80 86 86 83 84
74 76 78 80 81 79 77 72 72 74 78 82 86 88 92 93 93 92 90 90 94 98 101 98 94 90 88 84 80 79 80 84 86 83 84 88 85 82 70 76 82 85 86
70 74 75 74 70 63 64 66 66 70 73 74 74 76 79 86 87 86 83 76 78 81 85 89 92 87 83 84 82 80 77 75 79 80 81 84 83 82 79 83 83 83 87
72 67 62 56 57 57 58 59 57 55 54 54 54 54 58 61 65 66 66 66 63 62 70 76 82 85 84 81 80 77 78 80 80 82 83 85 83 85 84 84 80 82 84
54 47 48 50 49 51 50 42 44 41 41 48 52 54 46 45 45 49 50 50 51 50 54 64 71 74 77 79 78 78 75 75 76 78 80 80 78 81 85 85 83 86 86
38 42 43 47 47 42 37 34 34 34 42 48 55 55 41 31 30 32 34 35 37 40 43 45 51 58 59 59 61 61 64 66 68 71 71 72 72 74 69 75 79 80 86
36 40 43 42 38 35 30 26 31 36 40 43 49 55 49 43 25 23 22 21 22 23 27 33 42 49 50 48 46 47 55 63 59 54 54 50 51 59 67 72 75 83 86
35 38 36 36 31 27 22 22 24 30 31 34 38 47 47 47 34 31 19 15 9 9 14 19 25 33 39 42 46 49 51 46 42 37 42 48 52 64 69 72 78 84 87
30 31 30 30 28 23 20 22 19 22 31 29 29 34 37 38 36 28 23 14 7 1 6 13 16 21 28 34 38 38 34 34 43 45 49 56 61 67 74 74 76 82 89
29 28 27 27 27 22 20 23 19 17 22 25 24 25 28 25 27 32 32 22 22 18 8 2 11 14 12 16 26 35 40 40 45 47 54 60 63 67 70 73 78 84 90
32 31 27 27 26 24 21 22 17 14 17 22 20 19 23 24 25 25 26 25 25 20 15 19 16 5 10 16 22 28 34 38 44 51 57 62 66 69 74 79 84 89 93
30 31 28 25 25 24 22 21 21 16 16 16 20 19 19 20 23 23 23 24 22 20 18 14 14 15 19 24 28 33 39 45 52 57 60 66 71 76 81 84 86 88 89
30 31 29 23 25 25 26 25 21 17 15 15 14 15 16 16 19 20 21 21 21 22 24 26 28 30 31 33 37 41 45 51 56 60 64 67 70 74 78 83 89 93 95
30 31 30 24 21 23 24 22 20 19 17 15 15 14 15 16 17 18 18 20 21 23 25 27 29 30 32 34 37 41 45 50 54 59 64 70 76 81 87 90 92 93 94
31 30 29 24 19 18 17 16 16 16 15 14 14 13 10 14 17 20 22 22 22 22 23 25 27 31 34 38 42 47 52 56 59 62 66 72 77 82 88 91 93 93 96
32 30 27 23 19 19 17 16 16 16 15 14 11 12 16 20 23 24 23 22 23 24 27 30 33 36 38 39 42 45 50 54 58 63 70 76 82 87 90 93 95 96 96

GFSMW_250_spd_036.txt.gz
Wind_Speed
79 78 76 75 78 78 74 75 80 82 82 79 79 78 77 78 78 80 81 81 81 81 81 81 80 78 74 70 69 70 69 70 71 73 74 72 71 71 72 72 70 70 71
84 81 81 79 77 77 78 77 80 83 84 82 81 81 81 79 80 81 83 83 83 82 82 81 81 80 78 77 78 77 76 77 76 76 76 72 74 74 73 74 74 73 75
85 81 82 81 79 79 81 84 84 82 82 84 85 84 83 82 81 82 84 87 85 84 83 82 81 82 82 80 80 80 79 78 77 77 77 76 75 76 77 76 75 77 76
87 83 81 80 83 80 82 85 83 83 84 85 84 85 87 87 88 89 90 90 90 89 88 88 86 85 83 83 84 83 83 80 79 79 76 75 75 75 76 76 76 78 77
93 89 86 85 83 81 80 79 80 81 82 82 87 87 86 88 90 90 91 91 92 91 91 91 90 88 89 88 86 84 83 83 81 80 79 78 79 78 77 78 77 76 76
88 84 82 80 80 81 79 79 80 83 86 86 86 86 86 88 90 92 94 95 96 97 97 95 96 94 93 94 95 93 93 90 81 83 82 80 80 81 83 84 82 79 76
77 77 78 78 80 80 80 81 83 83 84 87 87 87 90 93 94 96 98 101 101 103 106 107 107 106 103 103 104 102 101 99 95 89 85 84 84 83 83 83 83 83 83
74 75 76 77 80 81 82 84 85 85 88 89 91 93 95 96 99 103 106 110 112 114 115 117 117 116 114 109 105 101 96 90 86 86 84 83 81 80 80 80 82 83 83
78 79 77 78 79 80 83 84 86 88 91 93 95 99 102 105 108 110 109 109 110 111 112 111 112 112 110 107 103 100 96 94 93 91 87 85 84 84 84 84 84 85 85
78 78 79 81 82 84 87 89 94 95 97 99 102 104 100 101 102 104 107 108 107 107 111 112 113 114 113 113 111 107 103 100 98 96 93 89 87 88 87 85 89 87 87
82 83 85 86 88 92 95 96 98 101 103 101 98 95 94 93 93 94 95 97 99 101 103 105 106 107 108 107 106 106 104 101 97 94 91 86 86 90 91 91 91 89 85
86 87 89 91 90 87 90 92 93 92 90 90 87 84 83 85 84 82 83 85 84 86 89 94 98 101 104 106 106 104 100 99 96 90 87 88 88 89 89 92 91 89 83
82 83 81 80 82 85 85 84 84 83 78 71 72 72 70 67 64 57 62 77 86 88 90 92 90 88 91 96 100 102 101 98 91 86 81 80 81 78 79 83 86 87 88
70 70 71 74 76 76 77 74 70 64 63 64 60 52 52 54 58 56 59 70 70 67 66 68 71 74 76 78 84 93 96 94 89 83 76 76 78 79 82 84 86 86 88
62 66 70 71 71 66 62 58 55 56 56 52 48 50 44 44 46 49 45 44 46 48 50 53 57 61 65 65 71 78 83 83 82 82 77 74 75 79 80 85 85 87 87
66 66 64 56 55 53 53 49 51 50 46 45 38 39 44 45 50 48 40 32 31 32 34 36 39 42 45 52 56 60 65 67 69 73 75 75 76 78 80 87 87 87 86
58 47 44 45 46 48 48 45 45 41 38 37 29 35 42 42 42 45 38 33 28 25 21 19 22 26 31 38 41 43 44 47 54 61 61 69 73 74 70 71 71 71 73
31 37 37 38 42 40 39 37 38 38 32 31 31 30 32 32 33 34 33 31 32 26 26 19 14 12 15 22 30 34 37 42 47 51 54 58 61 61 64 66 71 75 73
29 31 34 34 34 34 33 34 33 35 30 29 28 28 30 27 28 30 32 31 31 30 30 28 31 14 1 10 16 24 31 36 40 43 45 47 54 59 65 67 66 68 72
28 28 32 31 29 30 31 31 31 32 31 32 26 24 25 26 25 25 25 27 28 28 27 28 29 25 24 19 10 8 15 23 29 33 36 44 50 53 60 62 66 70 74
29 29 31 32 30 28 30 29 28 28 27 28 27 25 24 22 20 20 22 25 24 23 23 23 23 22 19 16 14 15 19 23 27 33 39 46 52 57 62 66 72 78 82
29 28 28 31 32 30 29 28 28 27 27 26 26 25 22 21 19 21 21 20 21 23 24 23 21 20 20 18 19 21 24 28 32 38 44 50 56 61 65 70 75 79 84
31 31 29 31 32 31 27 28 27 26 26 26 24 21 20 19 19 19 22 25 27 26 24 24 24 24 24 25 26 28 30 33 37 42 47 52 58 64 69 74 80 84 88
33 31 32 31 31 29 26 26 25 23 23 23 23 23 20 18 18 22 25 26 26 25 24 24 24 25 27 29 32 34 36 38 42 46 51 56 62 68 74 81 86 90 94
32 29 31 32 30 28 27 25 23 21 19 19 19 19 18 17 19 22 22 22 22 22 24 26 28 30 31 32 35 40 44 47 50 54 59 65 71 77 82 86 89 92 95
32 28 30 30 29 26 27 26 25 23 22 21 21 20 19 19 21 22 24 25 26 29 31 32 34 36 37 40 43 46 50 53 57 63 69 74 77 82 85 88 90 90 88

GFSMW_250_spd_039.txt.gz
Wind_Speed
87 84 82 79 79 78 79 79 80 80 79 78 80 79 80 81 79 83 83 83 84 83 86 87 87 84 82 81 81 83 80 79 78 78 77 77 78 77 74 74 73 75 74
84 82 81 81 81 82 81 79 78 81 81 83 82 80 82 84 87 87 90 89 89 87 85 84 86 87 88 85 86 86 82 82 81 81 80 79 77 78 77 74 73 73 74
86 83 82 82 80 80 81 80 80 81 85 85 85 86 87 89 91 92 91 89 88 88 88 88 90 90 89 89 89 87 87 87 86 86 84 82 80 81 78 76 74 75 74
88 87 86 84 82 82 82 83 85 86 87 88 89 90 90 89 90 91 91 89 89 88 89 91 89 89 90 90 92 91 90 89 88 88 85 83 81 79 76 76 76 76 76
92 89 87 86 85 86 87 87 87 88 90 93 95 94 92 91 90 90 90 89 91 94 92 91 90 89 92 93 94 93 91 90 88 88 87 85 84 81 80 81 77 77 79
95 92 91 90 89 89 89 89 91 94 97 97 97 95 91 91 89 89 91 95 95 95 97 97 97 97 96 98 100 100 100 100 101 100 100 100 97 95 93 86 85 84 82
97 94 94 93 93 94 95 94 95 96 97 96 93 90 90 90 91 93 95 96 96 98 100 103 105 105 107 107 108 109 109 109 108 106 102 99 94 91 86 85 84 83 83
98 97 99 97 97 97 94 95 95 92 91 91 91 90 90 91 93 96 97 98 100 103 104 110 114 116 116 113 111 109 107 106 104 103 99 97 92 87 82 73 86 81 78
102 98 95 96 92 88 86 89 91 88 86 88 89 90 93 94 94 96 99 101 108 112 115 114 113 113 113 113 113 113 113 112 109 106 103 100 95 92 87 85 84 85 86
101 97 91 87 84 84 83 83 85 87 88 89 91 93 93 96 100 103 107 110 110 109 107 108 105 105 105 105 108 107 106 108 110 108 105 103 99 95 91 87 84 73 79
70 72 72 75 80 82 84 87 90 90 91 92 93 97 100 106 108 107 103 101 100 97 93 90 92 92 92 94 96 100 104 106 105 105 105 102 98 97 93 86 78 60 63
76 76 77 82 83 85 86 87 90 91 92 95 101 105 101 96 95 95 91 85 84 82 83 89 94 93 96 100 104 104 102 103 101 101 102 102 97 92 89 87 87 89 92
82 83 86 86 85 89 91 93 94 97 100 99 98 92 89 86 83 79 76 72 72 79 85 93 91 92 92 97 99 103 103 102 101 99 97 97 95 93 89 86 87 90 95
86 88 89 91 93 95 95 98 94 91 88 85 81 79 76 71 69 67 62 65 65 69 74 78 76 78 81 75 70 71 77 81 93 97 97 93 87 86 87 88 86 86 88
92 90 86 87 85 84 82 80 79 78 77 74 68 68 65 62 58 57 57 60 55 59 63 65 59 59 55 54 55 56 58 60 63 72 79 81 81 80 79 81 82 84 85
70 70 70 70 70 70 71 71 74 71 64 60 61 59 57 55 53 53 49 49 52 52 56 52 50 42 37 33 34 37 41 44 48 51 56 59 63 58 65 72 74 79 82
56 60 63 63 65 62 66 67 61 56 55 55 53 51 49 49 47 46 46 48 44 41 42 39 40 36 29 24 22 23 23 27 32 35 40 45 50 58 65 62 65 71 77
59 62 61 60 55 54 54 53 54 52 49 47 46 44 42 44 41 43 46 43 38 32 30 33 32 32 33 24 21 19 16 14 13 14 19 27 36 44 47 54 62 64 67
58 56 51 45 46 46 45 47 44 43 40 40 39 38 37 40 41 43 43 39 31 30 31 34 36 35 32 29 28 25 22 17 14 12 16 22 29 35 41 47 51 54 57
47 42 35 40 42 39 40 38 36 36 34 34 32 33 34 35 39 39 35 29 30 31 34 34 32 31 29 28 26 24 22 19 18 16 17 19 25 31 37 42 49 54 60
41 35 37 38 39 35 36 33 33 34 32 31 30 29 30 31 34 33 30 27 26 31 32 31 30 27 25 23 21 21 21 21 21 22 23 27 31 35 41 46 52 59 64
36 33 35 36 38 33 32 34 32 33 32 30 30 29 30 31 29 26 26 26 27 28 27 27 28 29 29 30 29 28 27 27 28 30 32 35 38 43 48 53 59 65 71
36 34 35 37 36 34 33 34 32 32 30 28 28 28 29 29 26 27 26 25 26 26 26 27 28 30 30 30 30 31 33 34 36 39 41 44 47 52 56 62 67 73 78
39 36 36 36 33 33 33 33 31 31 29 27 25 25 25 26 26 25 25 25 25 26 27 28 30 31 33 34 35 37 38 39 41 44 47 50 56 61 65 70 74 78 82
41 37 37 35 32 32 32 31 30 31 28 28 27 26 25 26 27 28 27 28 28 29 30 32 34 35 36 38 40 42 44 45 47 50 54 58 63 67 72 75 78 82 83
41 39 36 33 29 30 30 31 30 31 28 29 29 29 29 29 29 29 29 31 33 33 34 35 37 39 41 43 46 48 50 51 52 57 61 65 69 74 77 80 82 79 78

GFSMW_250_spd_042.txt.gz
Wind_Speed
86 84 79 78 78 77 78 79 79 80 80 80 80 79 81 81 82 83 84 85 82 84 87 90 92 93 91 91 92 89 83 84 82 84 81 79 79 77 78 78 77 76 74
88 83 83 83 82 79 79 80 80 83 83 83 82 79 81 84 85 85 88 89 87 88 90 93 96 95 96 90 88 86 85 83 88 83 81 79 80 82 80 80 79 78 77
89 84 86 84 85 83 82 81 81 80 79 79 81 82 79 79 85 87 89 92 94 93 94 96 96 97 95 94 87 87 92 89 86 85 85 84 85 84 84 82 81 78 76
90 88 86 86 86 85 82 81 81 81 83 83 84 84 84 86 87 92 95 98 100 103 103 101 95 91 91 91 91 92 91 90 90 90 89 90 87 87 85 86 85 84 82
93 91 89 88 86 87 86 86 86 86 87 88 90 90 91 93 96 95 97 101 105 106 108 107 97 91 90 89 94 95 93 94 95 97 97 97 96 97 98 97 96 94 93
98 96 94 92 89 89 88 87 88 90 89 92 92 93 95 97 98 101 101 104 104 104 100 102 100 98 97 96 97 98 98 99 102 104 108 111 110 105 102 99 94 91 86
100 99 97 96 95 94 94 94 93 94 94 96 96 97 98 100 101 103 104 103 101 97 96 96 100 103 102 103 105 107 109 111 111 111 109 108 105 104 101 99 95 91 87
103 101 100 99 97 97 97 97 96 96 96 97 99 101 102 104 105 105 101 100 98 95 98 102 103 106 109 112 117 115 111 110 107 106 105 104 105 105 103 101 99 97 92
106 104 102 101 100 100 100 100 101 100 101 103 103 104 106 103 103 99 95 93 96 98 102 105 105 112 119 112 108 109 109 109 108 105 104 99 97 97 98 98 97 97 93
109 107 105 102 101 102 102 102 104 105 103 102 103 103 102 98 94 94 95 98 101 103 105 109 117 107 105 104 102 104 108 108 104 101 103 102 99 96 96 93 91 88 86
104 104 104 103 104 104 105 103 104 102 108 107 103 97 92 93 94 96 98 100 102 107 112 103 99 97 94 93 98 103 103 102 98 97 100 98 99 96 92 89 89 88 85
99 100 98 97 95 98 99 103 104 99 95 94 91 88 93 96 96 99 99 106 112 99 94 91 86 87 86 90 96 93 91 90 93 88 94 99 106 106 98 93 88 86 82
88 89 88 83 79 77 77 79 81 82 84 86 87 93 98 99 100 105 110 98 92 87 80 79 77 76 80 83 88 82 80 78 76 72 74 82 91 100 101 98 91 86 81
69 66 67 69 73 76 77 80 80 82 86 90 93 99 101 103 107 96 87 84 77 72 71 68 68 69 72 75 77 70 66 64 62 59 58 61 67 74 79 85 86 79 79
75 75 75 77 79 81 82 84 88 90 92 95 100 104 106 90 82 79 73 69 67 63 61 60 61 62 64 60 64 62 53 49 45 42 42 46 52 55 56 63 71 69 68
75 80 84 85 86 88 89 87 87 89 96 101 95 86 78 75 67 63 62 62 60 54 54 52 51 53 50 49 51 53 49 44 33 27 26 29 33 37 40 42 50 60 64
76 76 78 82 82 81 83 85 92 91 84 81 77 75 65 60 59 59 56 56 53 50 49 46 44 46 46 47 47 44 39 35 29 24 22 19 17 18 22 26 32 38 45
78 77 79 82 86 88 88 80 77 72 73 71 66 60 58 56 53 52 50 50 49 44 40 39 39 41 40 38 40 40 39 36 31 25 22 21 16 15 15 16 20 24 28
75 77 78 74 72 69 68 68 66 63 56 56 55 56 53 48 48 45 43 42 39 34 36 36 38 37 34 34 35 37 37 36 36 35 33 31 29 26 22 21 21 26 32
60 59 58 59 60 62 62 57 50 47 49 50 53 50 46 43 42 39 36 34 32 29 31 33 34 33 32 33 35 35 34 33 31 29 29 28 28 27 27 29 32 36 41
53 53 55 58 58 51 45 45 45 45 45 47 46 43 41 38 38 37 35 32 28 28 28 30 31 30 30 32 33 33 34 35 35 36 36 36 36 36 37 38 42 45 50
43 44 43 44 43 41 40 43 43 41 45 45 40 37 35 34 34 34 33 30 29 30 29 30 30 30 31 33 34 34 36 37 38 40 40 40 40 42 44 47 50 55 59
42 44 44 38 37 38 40 38 39 40 43 45 40 36 32 30 28 29 29 27 28 28 30 31 31 32 34 35 37 38 40 41 43 45 45 45 46 48 51 54 56 60 64
40 38 36 36 37 38 38 38 37 40 41 40 39 36 31 30 28 26 27 27 29 31 33 34 35 37 38 39 40 42 44 46 48 50 50 52 53 55 58 61 65 69 71
38 38 37 37 38 38 37 36 36 38 37 37 36 34 31 30 30 29 29 30 32 34 36 38 39 41 42 43 45 47 50 52 55 57 59 59 61 62 66 69 72 75 77
42 43 40 38 40 40 38 35 35 36 34 33 32 31 31 31 31 30 30 32 34 37 40 42 44 46 48 48 49 52 55 57 61 63 64 63 65 70 73 76 79 78 78

GFSMW_250_spd_045.txt.gz
Wind_Speed
84 81 79 77 75 75 75 73 69 71 72 73 73 71 73 75 75 77 79 78 78 79 78 79 80 82 86 90 94 96 98 100 101 98 89 82 80 77 78 77 72 73 74
86 82 78 76 75 75 74 74 73 73 74 74 74 74 76 78 81 80 80 77 75 77 81 84 88 90 92 96 97 101 103 102 101 96 89 84 82 83 83 82 81 79 78
90 85 80 80 82 79 75 76 76 76 77 78 79 79 79 78 80 81 81 82 82 83 84 89 93 96 97 98 102 104 104 103 99 94 88 88 84 86 89 89 87 86 84
91 87 85 86 85 83 81 81 80 80 81 81 81 80 81 80 80 81 85 88 91 92 95 95 96 99 101 104 104 106 103 97 94 94 97 99 97 93 91 92 94 95 94
95 90 90 88 86 86 84 83 82 82 83 83 83 85 86 85 84 85 86 92 96 99 101 104 105 105 106 109 107 103 94 92 95 98 102 104 108 106 106 110 110 106 100
98 95 93 92 91 90 88 87 87 87 88 89 89 89 87 89 90 93 95 95 98 102 105 109 111 112 112 110 101 97 96 97 100 104 107 111 115 119 119 106 102 99 99
104 100 99 97 95 93 92 91 91 91 91 91 92 92 93 94 96 98 99 101 104 106 106 109 111 113 110 105 103 99 101 103 108 111 116 119 115 109 109 107 104 102 97
107 107 104 101 99 98 96 95 95 94 95 95 96 96 97 97 99 102 104 106 107 108 110 108 110 107 105 102 101 105 107 112 119 117 105 107 106 105 101 100 101 99 95
110 108 107 105 102 101 100 99 98 98 98 98 99 99 100 101 102 106 107 106 110 111 109 111 107 101 101 103 107 110 116 117 105 107 102 101 100 97 97 94 95 95 91
112 110 107 106 105 103 101 101 101 100 100 101 101 101 101 104 106 107 106 110 111 111 109 104 97 99 103 108 113 119 104 102 97 99 99 95 94 93 94 95 96 99 95
113 112 110 108 108 106 104 104 104 104 103 102 103 104 106 106 108 108 108 109 106 101 97 99 99 102 109 115 104 97 89 87 90 91 90 88 86 87 85 85 92 100 98
111 111 110 110 109 107 107 106 104 105 104 104 105 106 107 104 106 104 105 94 93 95 97 101 106 112 108 94 87 82 78 76 81 82 78 74 71 68 67 72 77 83 92
100 102 104 105 105 105 103 102 102 103 101 100 102 103 103 100 93 90 91 92 94 98 102 108 105 91 87 79 74 70 68 68 72 78 76 70 62 57 56 55 59 61 67
92 94 96 98 99 98 96 93 91 93 93 92 90 87 84 84 86 89 91 95 99 101 104 91 87 76 72 68 62 64 62 65 66 67 71 67 58 51 46 43 43 46 49
88 88 88 88 86 84 81 81 81 79 79 77 76 78 81 85 88 93 97 98 99 95 85 72 70 69 64 55 57 56 57 57 55 55 56 56 51 44 37 32 30 31 35
81 82 79 79 79 78 69 67 68 70 72 74 77 81 85 90 96 100 97 96 84 73 66 66 65 60 52 48 46 47 49 48 49 50 46 43 41 38 33 26 21 19 21
72 69 69 71 74 65 66 68 72 75 78 80 81 86 92 94 94 95 86 78 64 61 60 59 55 48 43 41 40 41 42 42 44 45 45 42 39 37 34 28 23 19 16
74 73 71 70 71 75 78 76 74 72 76 82 86 88 92 94 86 78 66 59 56 58 55 50 44 42 40 37 38 39 38 41 41 41 40 40 40 38 36 33 31 30 28
75 77 81 82 75 71 71 71 68 73 79 82 84 89 83 76 71 57 56 54 54 53 47 41 38 36 34 35 36 36 37 39 40 40 40 42 42 42 41 39 38 37 36
63 59 59 61 70 77 72 74 72 77 85 79 76 72 71 60 53 51 51 51 49 46 41 37 37 34 33 34 34 35 38 40 42 41 41 42 42 44 44 43 42 41 41
58 59 58 60 65 75 78 80 78 73 65 65 69 61 55 52 50 49 49 46 44 41 39 37 37 34 34 35 35 37 40 43 45 45 45 46 48 49 49 50 50 49 50
54 58 64 65 65 65 63 58 58 60 59 53 51 49 49 47 47 45 44 40 37 36 35 35 36 34 35 37 38 40 43 46 48 50 50 52 54 55 57 58 57 56 56
53 53 54 53 53 54 56 55 51 49 44 44 45 46 45 45 46 41 39 37 34 32 32 34 35 35 38 39 42 44 47 49 52 55 57 58 60 62 64 64 63 62 64
51 51 52 52 48 43 42 43 42 40 40 40 43 42 44 44 45 39 36 35 35 33 33 34 36 37 39 43 46 49 51 53 56 58 61 63 65 67 69 68 66 68 71
44 43 41 41 42 43 41 40 39 39 40 40 39 39 42 43 40 37 34 34 35 36 36 36 37 39 42 46 49 51 54 57 61 63 66 68 69 71 69 69 72 74 76
48 48 46 45 44 40 40 40 39 40 40 40 37 38 39 40 37 35 34 34 36 37 38 39 41 43 45 47 50 53 56 60 63 66 68 69 69 69 71 73 75 76 77

GFSMW_250_spd_048.txt.gz
Wind_Speed
88 85 83 82 79 78 79 79 79 77 75 73 73 72 73 73 72 69 70 71 71 74 76 77 79 79 79 80 83 85 89 91 96 99 101 105 106 104 100 86 80 81 81
91 87 84 82 83 82 81 81 81 78 76 73 69 68 67 68 69 69 70 74 75 75 78 79 79 82 83 85 89 92 94 97 103 107 109 108 107 97 90 85 83 85 89
95 91 87 85 84 82 80 80 78 77 75 75 75 74 73 72 73 75 76 76 77 79 79 79 82 86 90 93 94 97 101 105 110 112 114 109 102 93 92 92 94 94 97
97 94 92 91 89 87 84 79 77 77 75 74 73 71 71 73 76 77 78 82 84 87 87 88 89 90 92 95 99 102 107 111 112 115 112 110 100 94 94 97 101 103 106
99 96 94 93 92 92 90 86 83 80 77 76 77 77 77 77 79 80 84 86 90 91 95 95 96 97 97 100 103 108 109 112 112 109 107 96 98 100 103 104 110 114 113
103 101 98 97 95 94 93 91 90 88 86 85 84 83 83 84 86 87 87 89 92 96 97 100 101 103 104 107 109 109 111 114 109 104 96 98 101 104 112 116 111 101 104
106 103 103 101 99 98 96 93 92 91 91 91 91 90 89 90 90 90 93 95 96 98 99 103 106 109 111 112 112 112 114 110 99 97 98 103 107 114 106 99 100 95 94
111 108 107 104 102 101 99 97 95 93 93 93 92 92 91 92 94 95 97 98 99 102 103 105 107 109 110 113 115 115 112 101 98 102 107 113 111 100 101 96 96 91 93
112 111 109 106 105 103 102 101 99 98 97 96 95 95 95 96 97 100 101 102 103 104 105 105 107 109 111 114 114 107 98 99 103 109 111 98 99 93 94 93 90 89 91
115 112 109 109 108 107 105 104 103 102 100 99 100 100 99 99 100 102 103 104 105 106 106 108 110 112 114 113 102 95 98 103 109 107 98 92 89 86 88 91 87 84 82
117 114 111 110 109 108 107 106 105 103 103 103 103 102 103 104 103 104 104 104 107 108 110 112 114 113 110 98 93 98 102 107 103 94 85 83 80 80 85 88 83 76 73
116 116 114 112 110 108 106 106 106 105 104 104 103 103 103 105 105 105 106 108 110 111 113 113 111 100 94 93 98 103 105 97 86 82 78 72 71 74 77 84 82 72 65
108 108 109 110 110 110 109 108 106 106 105 105 106 106 106 106 106 106 108 109 109 110 109 99 93 91 93 98 102 101 90 80 77 74 66 61 63 65 65 69 75 66 57
99 101 101 102 102 103 104 104 105 105 105 104 105 106 106 105 107 104 104 103 100 94 90 88 89 93 97 99 94 80 75 71 67 61 55 56 56 56 58 59 60 61 54
90 92 95 96 95 95 95 96 97 98 98 99 99 97 96 92 93 92 89 85 83 85 86 89 94 97 96 84 74 70 68 63 55 50 51 52 51 51 53 54 53 48 46
81 85 87 89 90 90 90 91 90 90 90 89 88 84 82 84 78 76 75 80 84 88 91 93 95 88 76 68 64 63 59 53 46 46 47 48 48 49 50 50 47 44 42
75 79 81 81 81 82 81 79 79 78 77 77 76 76 72 69 70 74 80 86 90 90 90 88 76 67 64 60 60 56 52 45 44 44 45 47 47 49 51 52 52 50 49
69 72 75 75 75 74 75 74 74 76 71 69 66 71 67 70 75 83 82 84 87 87 78 68 61 60 57 57 53 51 44 42 42 44 45 47 49 51 52 54 55 54 53
64 67 69 69 70 72 69 67 67 64 65 66 67 65 71 79 79 80 84 87 83 71 60 57 57 55 55 52 47 47 43 43 43 44 46 49 51 52 55 57 59 59 58
57 62 65 67 66 64 62 64 65 67 66 69 70 71 74 74 76 82 84 82 65 54 53 56 54 51 49 45 46 45 43 45 45 46 49 51 53 55 58 61 62 63 63
54 56 58 63 64 66 69 70 72 73 72 71 69 70 75 78 78 85 75 61 53 51 52 50 48 46 44 42 43 44 45 46 47 50 53 54 56 58 62 65 66 67 69
42 44 46 48 53 61 72 74 73 68 57 59 61 66 68 72 69 68 57 51 50 50 46 44 43 42 41 40 41 44 44 47 49 52 55 57 60 63 65 67 69 70 70
37 39 42 44 45 49 54 57 56 56 59 63 64 59 58 59 58 53 51 48 49 45 42 41 40 40 40 41 42 43 45 48 50 54 56 59 61 63 66 68 69 70 70
51 52 52 50 50 51 52 52 55 56 54 50 54 56 52 51 49 48 46 44 45 42 40 39 40 40 41 43 44 45 47 49 52 55 57 58 61 64 66 66 67 69 72
47 49 52 53 53 52 52 52 53 54 52 47 47 47 48 47 44 44 43 43 42 41 39 38 39 41 43 45 46 48 50 51 53 56 58 60 61 62 63 66 69 73 76
43 45 48 51 52 53 52 48 46 44 44 43 48 48 49 46 42 40 41 40 39 36 35 36 37 38 39 42 45 47 49 51 54 54 55 56 57 60 64 69 73 77 81

GFSMW_250_spd_051.txt.gz
Wind_Speed
95 89 83 80 79 79 80 80 79 78 77 75 75 74 75 75 74 74 75 75 74 74 75 72 70 69 73 77 80 81 84 87 92 94 95 95 97 101 105 107 108 108 100
98 94 88 83 81 81 81 80 80 80 78 77 76 76 77 76 77 75 75 73 73 72 71 71 71 73 78 80 83 86 88 91 95 97 99 97 100 106 110 111 111 101 96
100 96 94 89 86 84 83 81 81 82 80 77 76 78 77 77 76 74 73 75 73 71 71 73 75 79 81 84 87 92 95 96 98 100 104 103 103 107 110 113 106 99 95
108 103 100 95 92 89 86 84 82 80 80 80 80 79 78 78 77 77 75 75 73 73 74 77 80 82 84 87 92 96 99 101 101 103 107 108 110 112 111 103 97 97 101
111 111 108 103 98 96 93 89 86 83 81 81 79 79 79 79 79 80 80 80 81 83 85 86 86 89 91 94 96 97 98 102 104 106 108 112 115 115 111 95 95 100 106
111 111 111 108 104 101 98 95 92 89 86 84 82 81 79 79 79 80 81 83 85 86 87 90 93 96 97 98 99 99 101 103 105 107 111 115 117 111 101 100 101 102 101
110 109 109 112 109 106 102 99 97 94 92 90 88 86 85 85 85 86 87 88 89 91 93 95 96 98 99 101 102 103 103 106 107 112 114 117 110 102 100 103 105 98 91
109 108 110 109 109 108 105 101 100 98 96 94 92 92 90 90 90 91 92 92 92 94 95 97 99 100 103 104 105 107 109 110 113 117 117 111 101 99 103 106 98 89 87
108 108 109 110 109 107 105 104 103 101 99 97 95 94 94 95 95 95 95 95 96 96 98 100 101 104 105 106 109 110 112 114 116 116 109 99 99 102 105 96 90 87 80
110 108 106 106 108 108 108 107 105 104 102 100 100 99 99 98 98 98 98 98 99 99 102 103 105 105 105 108 110 113 115 116 113 104 96 97 100 102 93 88 82 77 72
107 103 101 99 101 103 105 106 107 106 106 104 103 102 101 101 100 100 100 100 101 102 103 104 105 107 109 110 112 113 112 105 98 95 95 100 100 88 84 78 73 67 67
110 107 105 105 103 103 103 103 104 103 103 103 104 104 103 103 103 103 104 104 104 105 105 105 106 109 111 113 112 103 98 92 91 93 99 96 85 79 76 68 62 62 61
108 105 102 100 102 102 100 101 102 103 103 102 103 102 102 102 103 103 103 103 104 104 106 107 108 111 110 102 97 92 90 91 94 96 92 80 75 72 65 58 57 57 57
94 97 99 98 98 99 98 98 98 99 101 101 101 101 101 103 104 104 104 105 105 104 105 106 106 100 96 92 87 87 91 94 93 86 77 73 69 62 56 54 55 55 57
87 88 90 90 91 91 92 93 93 94 95 96 98 100 100 100 99 100 101 98 99 99 95 94 90 89 84 82 86 90 90 89 78 74 70 67 61 55 55 54 54 55 56
78 79 81 83 85 85 86 90 94 94 93 94 95 96 95 95 94 94 92 91 88 87 85 82 79 78 82 86 85 89 79 71 69 67 64 60 55 52 53 54 55 57 58
69 71 74 76 78 79 80 83 85 87 88 90 91 90 90 87 86 86 83 82 79 77 76 76 78 82 86 83 83 72 67 65 65 62 61 55 54 52 52 55 58 59 60
64 66 68 70 72 73 75 76 78 80 81 83 84 82 81 75 74 74 72 71 68 71 74 78 82 84 81 80 68 65 64 62 61 58 56 53 54 53 54 56 58 60 62
58 60 62 64 66 67 68 69 69 71 72 71 69 65 67 68 67 67 63 65 69 72 77 83 86 83 81 66 63 63 58 56 55 54 54 54 54 55 57 59 60 63 65
54 57 59 60 61 62 63 64 65 66 65 61 64 67 67 65 61 62 63 67 71 78 84 79 81 74 63 58 58 55 52 51 51 51 52 52 54 56 58 59 61 63 65
46 49 52 54 57 58 59 60 59 61 61 62 62 58 57 59 63 62 67 73 68 70 75 74 67 59 56 54 51 49 48 48 48 50 50 51 52 55 58 59 62 64 66
39 40 43 46 48 50 53 57 59 60 60 60 57 54 55 59 65 67 72 64 64 69 69 64 56 52 51 49 46 45 46 46 47 48 49 51 53 55 57 59 62 64 66
34 34 36 39 42 44 47 51 55 58 59 56 53 58 61 66 63 55 59 63 61 60 65 54 50 48 46 44 43 45 45 47 47 49 50 52 54 57 59 61 61 61 61
36 34 33 34 35 36 37 37 38 43 44 47 52 49 49 53 56 58 57 53 57 57 55 50 44 42 42 41 40 42 43 45 47 48 50 51 52 53 54 55 57 61 66
43 41 39 38 38 39 40 40 43 46 47 51 53 54 52 53 54 52 52 53 55 52 51 47 42 40 39 38 37 36 37 38 40 42 45 47 50 53 56 60 63 67 69
40 45 45 48 52 51 50 50 50 51 52 53 54 55 56 54 53 50 51 53 54 51 48 46 43 42 42 41 39 40 41 43 46 49 51 54 55 57 59 62 65 68 71

GFSMW_250_spd_054.txt.gz
Wind_Speed
95 91 88 82 78 76 73 70 72 72 71 72 72 71 71 71 71 72 72 72 72 72 73 73 74 75 74 75 77 75 75 78 80 83 86 88 91 95 98 100 102 102 104
100 94 91 87 84 83 79 74 72 73 74 75 75 75 75 76 76 76 75 74 75 75 75 75 75 75 75 75 75 79 80 81 85 87 88 90 95 97 99 102 103 106 110
105 102 98 95 91 88 86 82 77 74 74 75 76 78 78 78 78 78 78 78 78 77 77 77 78 78 77 76 79 82 83 85 88 91 93 94 94 97 101 103 106 111 114
111 108 105 102 99 95 92 88 84 79 77 76 76 77 77 78 78 78 79 80 79 78 77 77 78 78 79 80 82 82 84 87 90 96 99 100 99 100 101 103 108 114 116
113 114 110 107 103 100 98 95 92 88 84 81 79 78 78 78 79 79 80 80 80 79 80 79 80 81 81 81 83 85 88 93 97 98 100 101 104 106 106 106 113 115 109
116 115 114 111 107 105 103 101 98 95 91 86 84 84 82 81 81 81 81 81 81 81 82 82 83 84 86 87 90 93 95 97 99 99 101 103 107 106 110 114 115 110 102
122 117 114 113 114 111 107 104 102 100 96 93 90 88 87 86 86 86 86 86 86 86 86 87 88 90 93 95 96 97 97 98 100 102 104 104 106 110 113 114 108 101 95
122 119 117 113 112 112 112 108 105 104 102 100 98 96 94 93 92 93 91 91 91 90 91 92 93 94 95 97 98 99 99 101 103 105 107 108 110 113 112 107 100 95 94
123 123 119 112 111 110 111 111 110 108 108 107 105 102 99 97 96 95 94 94 93 93 94 94 95 96 98 99 100 99 102 106 108 107 108 110 112 110 104 99 98 95 92
123 123 120 114 108 107 108 109 110 110 109 109 108 106 102 101 100 99 98 97 97 96 97 97 99 99 100 102 103 106 106 107 107 108 110 110 106 101 96 97 95 93 83
120 122 121 115 109 104 102 102 103 104 106 109 109 109 108 105 102 101 100 100 100 102 102 103 103 103 103 105 105 105 107 107 108 107 105 101 97 93 94 94 93 83 75
123 117 112 108 109 106 102 101 99 98 98 100 102 103 104 104 104 104 105 104 104 103 104 102 102 105 103 101 103 104 104 103 101 98 95 92 90 91 94 91 80 74 70
119 124 112 105 95 94 92 92 94 95 96 94 95 97 97 98 99 99 101 100 100 98 99 100 100 99 99 100 101 100 98 96 92 90 87 86 89 91 89 79 73 69 67
97 104 111 110 102 96 94 88 85 85 86 85 86 88 88 88 89 92 92 92 94 93 94 94 95 96 96 95 95 94 90 88 86 84 84 89 88 87 76 70 69 66 62
89 91 93 95 98 99 98 93 87 86 84 81 81 84 85 85 86 86 87 87 87 89 89 92 92 95 92 92 88 86 84 82 81 83 88 85 83 72 68 68 65 62 56
81 82 85 86 86 86 87 86 84 84 85 85 85 83 82 83 86 87 86 88 89 90 94 92 92 90 85 83 80 79 78 79 82 88 83 77 69 68 67 65 62 55 55
71 72 74 76 77 78 78 78 78 79 80 81 81 80 80 83 84 84 88 88 94 91 87 84 79 77 75 73 73 76 78 81 84 79 70 66 66 65 62 60 55 53 56
66 68 67 68 68 68 68 69 72 73 73 74 75 76 76 76 78 81 82 83 83 78 71 66 69 70 66 70 74 77 81 78 74 66 64 64 62 58 56 53 51 53 56
57 60 62 63 63 63 64 66 67 68 69 70 70 71 70 69 70 71 65 63 60 57 63 65 62 61 67 73 76 73 74 68 63 62 61 58 55 52 48 48 49 52 54
49 52 54 56 59 60 60 61 62 63 63 65 66 66 63 54 49 56 56 50 54 61 61 59 62 64 70 77 75 73 63 60 60 58 54 52 50 49 48 48 50 52 54
38 42 47 49 51 52 53 53 53 54 55 56 56 53 54 55 57 52 53 58 59 60 54 60 62 68 72 69 71 63 57 57 55 51 49 49 49 48 49 50 52 54 56
32 34 37 41 43 46 48 49 51 53 53 53 53 52 49 46 47 51 57 59 55 53 55 59 62 65 64 69 63 54 53 50 45 45 44 44 45 46 47 48 48 49 52
33 31 31 32 35 39 41 44 46 50 51 52 54 51 47 52 52 53 54 55 53 53 58 59 59 64 64 62 58 53 48 45 43 40 39 39 39 41 45 49 52 55 57
36 34 32 30 30 32 36 40 40 42 43 46 48 49 55 57 57 54 47 49 52 55 55 57 63 61 61 57 56 54 49 45 45 44 44 44 46 49 51 52 53 55 58
32 36 37 36 35 34 35 36 39 43 45 47 48 51 52 47 47 45 48 53 53 55 57 59 60 61 59 56 52 54 52 47 47 48 49 50 51 53 52 54 56 58 62
28 31 38 40 38 37 36 37 38 39 39 41 40 40 41 43 45 49 53 55 58 54 56 59 62 60 60 56 54 54 53 52 50 51 51 51 54 54 55 57 59 63 67

GFSMW_250_spd_057.txt.gz
Wind_Speed
99 97 94 91 92 87 84 84 82 80 73 73 74 72 69 67 67 67 66 67 68 66 66 68 70 71 72 71 73 76 77 76 77 76 78 79 80 82 85 87 92 98 99
103 100 97 95 92 92 88 85 84 83 81 75 69 71 71 69 69 69 70 69 68 69 71 73 74 74 74 76 76 76 76 78 79 80 79 80 84 87 88 92 97 98 100
105 106 102 98 97 94 91 88 85 84 83 80 72 67 68 70 71 72 72 71 72 74 75 76 77 78 77 78 79 80 80 80 80 83 85 85 84 87 92 97 100 101 105
108 107 108 105 102 99 95 91 88 87 86 84 82 74 70 69 70 71 73 74 75 75 76 77 77 79 79 80 80 81 81 81 82 86 88 89 90 92 92 96 100 104 108
109 109 109 108 107 103 99 95 91 89 87 86 83 79 77 75 74 74 75 76 77 78 78 78 78 79 80 81 82 83 84 85 86 88 91 94 95 98 99 99 102 106 104
109 112 112 109 107 107 105 100 97 93 91 89 88 86 83 83 81 79 78 78 78 78 79 80 82 83 84 85 86 87 88 90 92 94 95 97 99 99 102 104 107 105 106
112 112 112 113 112 110 109 108 103 99 95 94 93 92 89 88 87 87 85 85 84 83 83 84 85 86 87 89 90 93 94 95 96 97 98 99 102 103 104 106 105 106 104
113 113 112 113 114 114 113 110 108 106 103 100 99 98 96 95 93 92 92 91 90 90 90 89 91 92 95 95 96 97 98 97 98 100 101 103 105 104 105 106 105 101 95
110 116 118 114 113 114 114 113 112 110 107 105 106 104 103 100 99 98 97 97 95 96 97 97 96 97 97 99 100 100 100 102 102 105 104 107 105 105 106 103 100 96 91
116 117 119 121 117 114 112 112 112 112 111 111 110 109 107 105 103 102 102 102 101 101 101 100 100 99 100 101 102 103 104 105 105 105 106 102 102 104 101 98 94 92 89
122 118 117 119 120 116 111 110 109 110 111 111 109 109 110 110 110 109 107 107 105 105 104 104 103 104 102 103 103 104 105 104 105 102 102 101 99 96 95 92 90 89 86
106 119 117 112 116 120 115 106 107 106 106 106 107 108 108 109 109 109 108 108 105 104 102 102 100 101 100 101 102 102 102 101 98 97 96 96 91 89 90 88 86 85 85
97 103 110 109 112 113 114 109 103 101 104 100 100 99 101 103 103 102 101 97 97 97 96 95 98 98 99 97 95 95 93 90 92 92 90 88 85 86 85 84 84 84 81
91 95 98 102 105 101 101 110 108 99 95 91 88 89 89 88 89 91 91 91 94 94 92 91 89 87 88 87 84 86 86 86 86 88 85 81 80 81 81 83 84 79 69
84 86 89 93 97 100 100 99 98 98 97 96 98 93 88 87 83 82 83 84 87 84 84 82 80 79 81 84 85 81 84 84 87 82 76 77 77 79 81 81 74 66 62
76 79 82 85 86 90 93 93 93 90 87 87 85 82 81 78 76 74 75 76 75 74 74 76 86 83 83 79 82 78 83 79 77 74 74 74 76 78 77 69 62 59 58
70 71 72 75 78 79 80 81 82 82 84 83 82 80 77 74 71 70 72 74 73 76 81 79 81 78 73 73 77 76 75 71 72 69 72 75 78 74 67 61 59 57 53
60 64 66 66 68 70 71 71 72 73 74 75 75 74 75 72 72 73 72 72 72 75 78 72 68 70 69 73 70 62 66 68 66 68 73 75 71 65 60 58 55 53 51
52 59 62 63 64 64 65 65 65 64 65 66 66 66 66 66 65 67 68 69 68 67 68 64 65 66 63 57 54 60 63 62 67 71 70 68 61 58 56 52 49 48 48
43 43 47 52 56 60 62 63 62 63 61 61 61 62 62 62 62 62 62 61 59 60 60 58 60 52 51 54 59 63 58 62 68 70 68 61 53 53 49 46 45 44 44
35 36 38 43 46 49 51 54 56 58 59 58 58 59 59 59 58 58 56 55 53 52 51 55 51 49 56 59 64 61 60 65 68 67 63 56 53 50 45 41 40 40 42
36 34 34 34 37 40 43 46 48 51 52 53 54 54 53 53 51 48 46 47 47 48 53 50 50 58 60 63 57 56 62 66 66 65 61 54 53 53 49 47 47 48 49
36 37 36 33 32 33 36 39 42 43 45 47 48 48 48 47 48 48 48 49 51 53 45 48 55 61 62 55 54 59 65 66 68 64 57 57 53 53 53 52 53 52 53
35 36 35 34 31 31 32 34 36 39 41 44 47 47 49 49 48 48 49 47 45 48 54 57 58 56 50 53 58 61 65 67 65 64 59 56 56 55 54 54 54 55 56
33 34 34 35 35 34 33 33 33 35 38 40 43 46 48 47 48 51 52 48 49 55 59 60 52 51 52 57 59 63 64 66 67 62 57 58 59 59 59 58 58 59 60
31 33 34 35 38 40 39 38 35 34 35 35 35 39 42 45 48 49 49 52 56 58 54 52 51 52 54 58 62 65 66 68 66 65 61 60 60 61 61 60 61 62 63

GFSMW_250_spd_060.txt.gz
Wind_Speed
102 99 97 95 95 91 86 84 79 81 82 82 81 79 76 74 73 69 66 67 67 67 67 68 67 67 67 68 68 69 72 76 77 78 79 80 81 81 79 79 82 86 90
100 100 98 97 95 93 90 89 85 81 81 82 84 82 79 76 72 72 73 72 71 70 69 69 70 69 70 71 72 74 77 80 79 79 79 79 80 81 84 85 89 93 95
100 102 102 100 99 97 95 94 92 87 81 80 81 83 82 78 77 73 69 73 74 74 73 72 72 71 72 75 78 77 76 77 79 81 81 81 81 83 87 92 95 98 100
102 101 102 104 103 101 99 97 95 95 94 90 87 86 82 80 81 77 73 70 68 68 70 72 72 72 73 75 77 78 78 79 80 81 83 83 85 86 88 94 99 101 103
98 101 103 104 105 103 102 100 100 100 97 93 89 88 87 86 84 84 82 79 75 71 71 71 72 73 75 77 78 79 79 80 82 84 85 88 91 92 94 95 99 102 106
95 98 100 103 104 105 105 105 103 102 100 99 97 93 90 89 88 88 88 87 84 83 81 79 78 78 79 80 81 83 85 86 87 89 93 95 96 98 100 102 104 107 107
94 96 98 99 102 106 108 108 107 105 104 102 102 98 95 93 92 92 92 91 88 85 84 83 85 86 86 87 88 89 90 91 93 96 98 100 100 102 104 106 109 107 109
92 94 95 96 99 103 109 111 110 108 108 106 105 104 101 99 95 93 92 92 91 91 90 89 89 90 90 91 93 94 96 98 99 101 102 104 105 107 110 107 107 108 109
93 93 93 95 97 101 105 109 113 113 111 109 110 109 106 105 102 100 97 95 94 94 96 96 95 94 95 97 100 100 100 103 104 106 107 109 110 109 108 108 108 108 96
95 93 93 96 99 100 101 105 109 113 113 112 112 111 109 108 107 106 104 103 103 101 100 100 100 101 101 102 103 105 104 106 108 109 107 108 108 108 106 104 99 97 94
96 96 97 98 101 103 103 103 101 104 111 114 114 114 112 110 109 110 109 109 109 107 108 107 106 107 107 106 106 107 108 107 107 105 106 104 101 104 98 93 94 88 86
92 94 97 99 99 110 104 104 101 98 98 102 109 114 115 115 115 114 114 114 114 113 112 112 111 110 110 110 111 109 107 103 104 106 102 98 98 89 92 87 85 86 83
88 91 94 97 99 100 102 103 105 105 99 98 97 99 105 111 112 114 115 115 114 115 113 113 114 112 112 110 108 102 103 100 102 98 96 90 87 85 84 84 83 80 81
81 84 88 92 95 96 96 101 104 99 100 102 97 94 93 93 97 102 105 108 109 109 106 107 107 104 103 101 98 97 98 95 92 93 88 87 79 81 85 82 79 79 80
74 78 82 84 88 92 95 96 96 97 100 98 97 98 97 88 86 85 87 92 94 93 91 89 88 89 90 89 88 86 87 86 80 83 80 76 78 77 80 75 76 77 78
68 70 73 77 80 84 87 91 91 90 91 91 92 94 97 100 97 87 85 85 83 83 83 77 80 82 83 83 81 80 77 84 82 74 73 75 75 78 73 72 74 74 72
65 66 67 70 73 77 80 82 84 86 86 86 86 86 85 86 85 86 87 86 87 84 81 82 80 76 75 75 73 75 74 67 72 69 72 70 71 70 68 68 71 72 65
59 61 64 67 70 72 75 75 75 77 78 80 82 82 81 81 79 77 79 80 81 78 74 77 75 73 70 70 70 71 68 65 67 68 69 63 65 67 67 69 70 65 57
53 57 61 64 65 66 66 67 68 69 70 70 70 70 72 73 72 74 75 75 73 71 72 73 72 70 68 65 64 61 65 64 64 62 57 61 63 67 67 69 69 62 55
46 50 53 56 58 60 62 64 64 64 64 64 63 62 63 64 65 66 67 66 66 66 67 66 65 64 61 58 60 60 61 62 56 56 59 61 67 68 68 67 68 62 57
44 44 47 49 48 50 51 52 55 57 59 60 60 60 60 61 62 62 60 60 61 60 61 60 57 56 57 58 57 57 57 53 54 60 63 66 63 63 68 67 65 61 59
37 42 44 43 44 45 46 47 48 50 52 53 55 57 58 58 58 58 58 58 58 57 56 56 56 56 56 55 55 54 53 57 59 62 64 63 63 66 68 69 65 59 60
34 36 41 46 46 43 44 44 45 46 46 48 49 50 51 52 53 54 55 55 53 53 52 52 49 50 51 52 53 56 57 57 60 62 61 61 64 67 68 68 64 62 63
32 33 35 39 42 43 42 42 41 41 41 42 44 45 46 47 48 49 49 49 49 49 50 50 50 52 52 55 59 55 58 60 62 64 62 63 65 67 70 71 69 65 64
32 32 33 34 36 39 41 41 41 40 39 39 40 42 45 46 47 48 48 48 49 49 50 53 55 56 55 52 57 59 59 62 60 56 61 64 68 71 74 73 69 66 66
32 32 32 33 34 36 36 40 43 42 39 36 36 37 38 38 41 43 48 48 49 50 52 53 54 54 58 58 59 60 63 63 59 62 68 68 71 74 74 70 66 67 68

GFSMW_250_spd_063.txt.gz
Wind_Speed
105 105 106 104 100 98 95 91 88 84 80 74 75 75 76 76 75 75 72 69 69 70 71 69 68 69 69 70 70 70 72 71 72 72 73 75 79 80 80 81 80 81 82
102 103 107 107 106 101 97 94 90 85 81 79 73 70 74 79 80 79 78 76 75 72 72 73 72 70 72 73 73 73 74 74 74 74 76 75 78 80 78 83 83 84 87
103 102 105 106 106 106 103 98 93 90 86 82 79 75 71 74 76 78 77 78 77 77 75 73 71 72 73 74 73 71 70 72 74 75 77 76 78 80 82 85 92 93 95
101 101 101 101 104 105 104 103 100 96 92 88 86 86 82 75 73 75 77 79 80 81 80 79 76 74 73 71 71 71 71 72 73 77 80 81 82 85 87 92 95 97 100
101 98 98 102 103 103 103 103 103 103 101 98 93 91 89 90 85 78 74 75 81 82 82 81 78 76 73 74 77 77 77 79 82 82 85 87 89 93 95 95 96 100 104
101 98 96 98 101 102 102 103 103 104 104 103 100 98 97 94 90 84 80 77 77 80 83 84 84 83 84 86 86 87 88 88 87 87 90 92 94 97 98 101 103 104 107
98 99 96 94 97 101 103 103 104 105 105 104 104 104 102 98 98 96 92 90 86 85 85 89 89 90 90 92 93 92 91 91 91 93 96 97 98 98 101 103 107 109 110
97 98 97 95 95 97 101 105 106 106 106 107 107 106 104 103 102 103 103 100 96 92 91 92 92 94 95 96 97 96 96 95 96 97 98 100 100 104 107 108 111 113 110
94 97 97 97 96 96 99 101 105 108 109 108 108 107 106 106 105 106 105 106 105 104 101 100 99 98 98 98 99 99 99 100 101 102 101 103 105 108 110 112 116 114 119
95 95 97 97 96 97 98 99 100 104 108 111 111 111 109 108 108 108 109 108 108 108 108 107 105 104 104 104 103 103 104 104 106 107 108 110 110 111 113 113 117 118 114
94 96 97 97 96 97 97 99 99 100 102 104 106 107 108 110 110 110 111 111 112 112 112 111 111 110 110 110 112 112 111 110 110 112 112 112 112 115 116 118 114 111 112
93 95 96 98 98 98 99 100 102 102 103 104 103 103 103 105 107 110 112 115 116 115 115 113 114 115 115 116 113 114 114 113 115 115 115 115 112 116 114 113 102 108 105
92 96 98 100 100 100 99 101 100 100 101 102 102 102 102 103 104 104 104 107 111 115 118 117 116 116 116 117 117 116 117 118 117 116 114 115 114 108 102 105 102 96 87
89 90 92 93 96 99 99 100 100 101 102 103 103 104 105 104 105 104 100 100 101 103 106 109 113 116 116 114 116 116 116 115 113 106 107 104 97 99 98 92 90 82 83
84 83 84 85 86 87 89 91 95 99 102 103 104 105 105 103 103 101 100 97 96 95 95 94 93 94 96 97 97 101 99 98 95 94 90 88 89 85 83 78 79 81 74
77 76 77 79 81 80 80 82 86 90 94 96 99 100 102 101 100 97 97 91 90 88 87 86 84 80 82 81 84 86 85 82 84 84 85 81 79 76 77 73 75 73 72
72 72 73 74 75 74 76 78 79 82 86 89 91 92 92 93 94 94 94 92 92 93 98 99 94 91 90 89 88 85 82 81 81 81 78 77 79 75 70 70 69 69 68
63 64 66 69 71 72 74 75 75 77 79 81 83 85 86 87 87 89 89 89 88 87 87 86 87 86 88 87 85 82 82 81 79 75 74 73 70 64 66 66 66 64 65
52 54 58 61 64 67 69 71 71 72 74 75 76 78 79 80 81 81 81 82 82 82 83 81 80 78 78 79 75 75 77 79 77 71 68 65 63 62 62 64 62 63 65
49 50 53 54 57 59 61 62 65 67 70 71 72 72 72 73 75 74 74 74 75 76 77 75 75 74 73 71 70 71 72 72 70 61 59 61 59 59 65 58 62 66 70
48 48 48 50 52 54 54 56 57 60 61 63 64 66 66 66 66 66 66 66 66 66 66 66 66 65 64 63 62 62 63 62 58 57 57 59 59 59 57 61 62 66 69
41 44 47 48 50 52 52 52 53 53 53 53 54 56 57 57 59 59 59 59 60 60 60 58 59 59 58 58 59 59 58 57 56 58 59 57 54 58 62 64 66 68 69
42 42 43 44 44 46 49 52 50 51 51 51 51 51 50 50 50 50 51 53 54 55 56 55 55 56 56 57 56 56 55 55 56 57 54 55 56 57 61 65 66 70 69
42 42 42 41 42 42 43 45 49 50 50 49 49 46 45 46 47 47 49 49 49 51 51 51 52 54 54 52 52 51 49 46 50 51 55 56 58 62 65 66 69 69 68
43 43 42 40 40 40 40 41 44 46 48 48 47 44 43 44 42 43 45 47 46 46 46 46 46 47 48 49 51 49 50 52 53 56 59 57 59 63 66 70 71 73 72
45 44 43 41 41 40 39 40 40 40 44 46 47 45 42 39 38 38 38 40 43 42 45 46 47 49 49 52 53 55 55 57 56 58 59 62 63 66 66 71 73 73 73

GFSMW_250_spd_066.txt.gz
Wind_Speed
109 109 105 104 100 96 93 92 89 86 84 80 80 77 76 73 70 70 71 73 74 74 72 72 69 65 66 68 70 71 71 72 73 72 72 71 69 71 71 75 76 77 79
107 107 107 107 104 101 99 93 93 92 88 84 83 83 78 76 76 74 73 75 73 73 71 70 71 73 73 70 71 72 73 73 72 71 72 74 74 73 71 76 82 84 85
105 104 106 107 106 104 102 98 99 93 92 92 90 85 83 82 80 76 73 72 73 74 74 75 73 74 75 75 76 78 78 74 75 76 76 75 74 76 79 82 87 90 91
102 100 102 106 107 107 106 104 102 102 98 93 91 91 92 88 85 81 78 74 75 75 72 73 74 75 75 77 79 79 79 77 78 77 80 81 80 81 83 88 90 92 96
102 102 101 105 109 109 109 108 107 106 103 97 84 90 91 90 89 89 87 86 80 79 76 73 72 75 76 78 82 84 83 84 84 85 85 86 86 89 90 91 94 96 98
97 101 100 104 107 105 106 108 107 108 107 105 105 103 101 97 96 94 92 90 89 85 81 78 78 78 79 78 80 80 82 84 85 86 88 92 94 95 97 95 97 99 100
96 97 101 103 103 104 106 107 105 105 107 107 106 106 106 105 102 100 98 96 94 92 91 91 86 81 78 80 82 82 83 84 86 88 92 95 96 97 98 100 101 102 106
94 94 96 100 102 103 103 105 106 105 105 107 106 106 107 107 106 106 106 104 102 100 99 98 95 93 90 88 88 90 91 92 94 94 95 96 97 98 99 101 103 106 110
93 94 94 97 99 102 104 104 101 102 104 106 107 108 107 108 108 108 108 107 106 105 104 105 104 103 103 103 103 102 103 102 102 101 103 103 103 105 106 108 108 112 110
87 91 93 95 97 100 104 102 104 100 100 103 105 106 108 110 110 109 109 109 107 107 107 107 107 108 108 108 109 110 111 109 110 112 111 110 110 112 113 113 113 112 115
86 87 90 93 95 97 102 102 102 103 103 102 102 103 104 107 110 109 109 108 107 108 108 109 109 109 110 111 110 111 111 112 113 115 114 115 113 114 114 112 114 113 114
85 87 88 91 93 96 99 100 102 102 104 104 101 102 104 104 106 107 109 111 109 109 108 108 109 109 110 110 110 111 113 115 114 115 115 117 116 116 116 113 110 113 113
86 88 90 92 92 94 97 99 100 101 103 103 103 104 101 103 105 106 107 108 108 107 109 108 108 109 109 109 110 110 111 112 112 113 115 116 114 109 114 106 110 105 107
84 88 91 92 94 95 95 95 97 99 101 102 102 103 102 103 103 104 105 106 107 108 108 108 108 107 107 107 106 105 104 104 103 102 102 101 99 102 98 97 97 102 89
80 83 86 88 90 93 94 95 96 97 98 99 101 103 104 104 104 105 103 104 106 105 103 104 103 104 105 105 104 102 99 97 97 95 92 94 90 87 86 85 85 88 87
79 81 83 84 84 87 88 90 94 96 97 99 100 101 103 104 105 105 106 106 105 105 104 105 105 104 104 101 100 98 93 92 91 91 89 90 94 92 84 85 88 82 80
79 79 79 79 79 81 83 83 85 85 86 87 88 90 92 94 96 97 99 100 102 103 102 101 100 100 99 95 96 93 88 88 89 91 93 94 90 91 89 84 76 75 74
69 70 70 71 74 76 77 80 81 81 81 82 82 82 83 85 87 88 90 92 94 95 96 96 95 93 94 94 92 91 89 89 89 88 89 87 86 85 83 80 72 68 64
61 60 59 61 64 67 69 73 75 75 76 77 77 78 79 80 82 84 85 86 86 87 88 87 88 88 87 87 85 84 85 85 84 82 81 79 76 75 74 69 64 58 61
55 53 54 55 56 56 58 62 63 64 67 68 69 72 74 75 77 78 79 79 79 79 80 80 80 80 79 80 78 79 80 79 76 75 73 70 67 65 61 58 53 54 56
48 49 50 52 53 53 55 55 56 58 59 60 63 64 64 65 67 69 71 72 73 73 74 74 74 74 73 72 72 72 70 67 65 63 61 60 58 56 54 52 51 54 59
47 49 50 49 50 51 54 54 56 56 56 56 56 56 56 57 56 56 57 58 59 61 62 61 62 62 63 64 64 62 61 60 59 58 57 54 52 51 51 55 60 60 56
49 50 51 50 50 49 49 50 53 56 56 57 56 54 53 53 50 48 48 48 48 49 50 51 52 53 54 55 55 53 54 53 52 52 52 53 54 52 52 55 55 52 56
52 52 51 50 49 50 49 49 50 53 55 55 54 55 54 53 49 47 47 45 44 44 45 45 46 47 47 47 49 50 50 50 51 52 53 53 53 51 50 51 52 55 60
52 52 52 51 50 49 48 47 46 47 48 50 50 51 52 53 49 48 47 41 41 40 40 40 42 43 44 46 46 48 48 47 48 48 49 48 48 51 54 55 57 60 64
53 52 51 51 50 50 49 47 46 44 45 44 44 46 47 48 47 47 46 42 39 38 38 39 40 40 41 42 43 43 45 47 48 50 53 54 57 58 59 62 65 68 68

GFSMW_250_spd_069.txt.gz
Wind_Speed
111 109 105 101 97 93 87 79 78 82 86 84 85 82 79 77 75 72 71 71 70 68 70 71 70 69 69 67 68 69 67 69 69 71 68 69 73 76 75 76 78 78 75
109 110 110 107 103 101 95 87 86 80 80 79 76 76 78 80 79 77 74 72 73 72 72 71 69 70 71 72 72 70 73 71 72 70 72 72 76 77 78 77 79 80 81
106 105 107 109 108 105 102 99 95 90 84 82 78 79 80 80 80 74 75 76 76 74 75 76 76 75 73 72 73 74 75 76 75 72 73 72 74 77 79 79 82 83 86
104 102 106 108 109 107 106 104 103 98 93 89 79 74 78 86 86 83 80 83 82 78 79 79 81 82 80 79 79 79 80 77 75 75 76 78 77 79 79 79 83 85 86
101 103 104 105 107 109 109 109 107 103 101 98 93 80 75 79 76 78 80 85 88 88 89 89 89 87 87 86 85 81 81 80 78 77 79 80 81 81 82 81 85 87 89
103 102 105 103 105 106 108 110 110 109 104 94 99 91 97 87 85 83 84 85 88 92 93 93 91 91 87 86 85 85 86 84 83 82 83 82 82 82 82 85 87 91 94
102 102 103 110 109 106 106 105 105 105 106 108 106 105 100 94 90 95 95 94 90 90 94 96 97 95 95 93 93 92 90 87 86 86 85 86 85 86 90 91 95 97 100
98 102 104 105 106 110 114 107 103 103 103 104 106 108 109 111 111 109 106 106 105 103 102 102 104 102 101 100 100 98 98 97 98 98 98 97 96 97 99 100 102 102 107
94 97 102 103 104 105 108 111 112 104 103 104 105 107 109 110 112 115 116 114 115 115 115 114 114 113 109 107 106 104 105 104 104 106 106 104 106 107 108 110 110 110 111
90 93 96 98 101 103 106 107 107 109 106 103 103 106 107 109 111 112 112 112 113 113 113 113 112 111 111 109 107 107 108 107 107 108 108 109 108 109 109 110 109 111 113
88 88 89 93 98 102 105 106 105 104 106 106 105 103 102 104 106 109 110 112 113 113 113 112 113 112 111 111 109 110 109 109 109 109 108 108 110 109 110 110 113 112 111
83 82 85 89 92 99 103 104 105 105 105 104 105 106 107 109 106 104 103 107 107 108 109 109 111 109 109 108 108 108 107 106 106 106 106 109 108 107 108 108 104 103 102
80 83 87 91 91 92 95 100 103 105 106 105 105 106 106 107 107 108 108 107 106 104 105 107 108 107 108 108 106 105 106 105 105 106 107 104 105 104 104 102 101 100 98
83 81 83 86 88 91 92 94 95 98 101 102 102 103 104 104 105 106 107 109 107 107 107 104 102 104 106 108 108 106 106 106 104 104 104 103 104 104 103 102 100 99 95
80 81 82 83 86 89 92 94 95 96 96 97 98 99 101 102 102 103 104 105 105 105 105 105 104 103 103 103 103 102 102 103 103 102 101 100 99 99 99 97 96 94 90
77 81 82 82 84 87 88 91 93 94 95 97 98 98 99 99 100 101 102 104 104 105 106 106 107 106 105 105 104 103 103 103 102 102 101 99 99 98 96 94 94 87 87
79 80 80 78 79 80 82 85 87 89 91 92 95 96 97 99 100 102 103 103 103 104 105 105 106 106 106 106 105 104 103 101 100 99 97 95 93 92 89 86 86 82 80
74 74 74 74 76 78 79 81 83 85 86 86 86 87 87 88 89 90 92 94 95 96 97 98 98 98 97 96 95 94 94 93 93 92 90 88 87 85 82 80 80 78 77
66 65 65 67 69 68 68 71 74 76 77 79 81 83 85 86 87 87 88 89 89 90 91 91 91 91 90 91 90 89 89 87 85 83 82 83 81 79 77 75 73 75 73
56 56 58 57 57 57 59 61 65 67 68 69 70 73 76 80 82 83 83 84 85 85 85 85 84 84 84 84 83 82 80 78 77 76 75 73 72 72 69 68 67 64 61
55 55 56 57 56 55 55 56 57 59 58 59 60 61 65 69 72 73 75 75 75 75 75 75 76 77 78 77 76 74 74 71 69 70 70 68 66 65 64 61 59 56 52
51 51 50 51 50 50 51 51 51 51 52 54 53 54 55 56 57 59 60 60 60 60 61 61 61 62 64 64 63 63 62 62 62 62 61 60 59 57 56 55 53 50 47
53 51 51 52 50 50 50 51 51 51 52 53 53 52 53 54 53 53 53 54 52 51 49 47 45 46 47 47 48 50 53 54 54 55 55 55 53 50 51 50 49 47 50
57 56 56 56 56 55 55 55 55 55 56 56 56 55 54 52 52 51 50 50 51 50 48 42 42 41 40 40 41 41 43 44 46 48 49 49 49 49 50 51 52 53 55
60 60 60 58 59 59 59 59 58 56 55 55 53 53 53 51 50 50 49 50 48 48 46 41 40 39 37 37 37 38 39 40 41 42 43 45 45 45 46 48 51 52 55
61 61 62 61 59 59 58 58 57 56 54 53 51 51 49 46 47 46 45 45 47 46 44 41 39 37 35 35 36 36 36 36 38 39 39 42 44 46 48 49 50 53 56

GFSMW_250_spd_072.txt.gz
Wind_Speed
113 111 103 90 89 83 80 81 70 76 87 83 77 77 76 74 72 73 76 76 75 74 73 71 69 68 67 68 70 69 66 66 67 68 70 73 72 73 73 76 78 78 77
110 110 109 96 90 88 94 86 87 80 77 78 82 82 81 81 81 81 82 82 80 79 78 74 71 72 71 70 72 72 73 69 68 70 72 74 78 79 82 84 79 77 78
109 113 109 106 102 99 95 98 91 91 87 82 82 78 79 75 74 79 77 75 75 73 69 70 76 73 73 75 76 77 78 79 79 77 79 83 85 86 81 79 81 82 80
108 111 116 112 109 108 108 103 103 100 85 80 82 83 78 78 79 78 77 73 76 76 76 80 82 82 84 84 86 85 84 87 87 88 88 83 81 82 79 87 85 84 84
117 114 112 116 117 111 109 105 101 100 99 98 82 84 85 85 85 82 81 83 72 74 76 72 78 83 86 85 86 86 84 85 83 88 90 90 83 83 82 79 84 85 85
112 111 112 110 112 114 114 110 107 101 101 99 86 91 90 90 89 92 90 86 85 84 83 88 90 89 91 89 89 90 90 91 88 88 86 87 88 87 86 85 86 89 90
106 107 107 109 109 109 111 115 114 113 114 109 107 102 102 97 97 98 99 97 98 100 101 93 94 94 90 90 91 90 91 91 93 94 95 96 95 95 97 98 98 98 99
101 104 107 107 111 111 110 110 112 117 119 117 118 118 112 101 106 101 100 106 98 99 105 107 107 103 101 101 99 97 96 94 96 93 102 102 100 99 105 107 106 106 106
98 99 103 104 106 108 111 112 111 111 113 116 119 120 121 118 113 110 111 106 109 106 103 109 110 108 109 108 108 111 113 110 107 110 114 113 113 113 110 107 107 106 105
93 95 96 101 103 105 109 110 114 115 113 112 112 112 112 114 116 119 119 119 119 119 118 118 116 119 118 119 121 121 121 120 119 117 115 110 109 109 109 109 108 106 106
80 84 91 96 98 103 107 108 111 113 115 118 119 115 113 112 110 112 113 114 114 113 116 117 117 117 118 119 119 118 117 116 114 112 110 109 107 107 106 104 102 101 100
69 74 81 88 94 99 102 107 109 111 114 116 116 117 120 122 122 123 121 116 113 112 111 111 112 112 113 113 113 114 113 112 110 109 105 105 105 105 102 101 102 99 100
73 76 80 85 90 96 101 102 104 108 112 114 116 117 117 117 117 117 118 118 118 116 113 111 109 107 106 104 106 108 109 107 106 105 103 102 101 100 99 100 99 98 98
75 79 80 80 84 88 93 97 100 103 104 105 109 112 113 113 115 116 117 116 115 115 114 113 112 111 111 111 111 111 110 109 107 106 105 103 100 98 98 96 97 97 97
72 74 76 77 80 82 85 90 95 98 101 103 104 105 105 106 109 112 114 113 113 114 115 114 114 113 112 111 110 110 109 108 107 107 106 104 102 101 100 99 97 98 98
71 74 75 76 79 81 83 85 88 91 95 98 100 102 103 103 104 105 106 107 108 108 109 110 110 110 111 110 110 110 110 109 107 106 105 104 103 102 100 98 98 96 94
72 73 75 76 79 81 83 84 84 84 86 88 91 95 98 101 102 103 103 104 105 106 107 107 108 108 108 108 108 108 109 109 108 108 106 105 102 100 97 93 92 89 86
73 74 77 79 80 81 82 83 82 83 84 85 86 88 90 91 93 95 96 98 100 101 103 104 105 105 105 105 105 106 105 103 100 98 95 92 91 90 89 86 83 83 80
71 72 73 74 76 78 78 79 80 81 82 83 85 88 88 87 87 88 88 90 92 94 94 96 96 96 96 96 96 97 96 95 93 91 89 87 86 85 82 78 77 75 73
60 64 66 67 69 70 71 71 71 72 74 77 78 79 81 81 80 81 84 87 88 89 90 89 89 89 88 88 89 90 90 88 88 87 86 83 81 79 77 73 71 69 66
58 59 61 62 63 64 65 66 69 70 71 70 70 71 72 73 72 73 74 74 75 75 76 75 75 75 74 75 76 77 78 76 75 73 71 70 69 67 65 64 63 61 59
60 59 61 63 63 63 64 64 66 65 64 63 63 62 62 63 62 61 61 62 64 64 61 60 59 59 57 57 57 60 62 62 61 60 60 58 56 56 55 54 54 53 52
64 63 62 64 62 60 60 61 59 59 58 58 57 57 56 56 55 54 52 52 52 52 54 54 54 53 50 48 49 50 50 50 50 50 49 48 48 47 47 47 47 47 47
67 66 65 65 66 62 61 61 59 58 57 56 55 54 53 52 52 52 53 52 50 50 49 49 47 47 42 44 46 44 43 42 43 42 41 40 39 39 40 41 41 42 43
68 68 67 67 68 66 65 64 64 62 61 59 58 58 57 57 57 56 54 53 51 50 48 46 45 44 41 42 44 42 40 38 37 36 36 35 36 36 37 38 38 38 39
67 69 69 69 69 69 69 68 68 67 66 65 64 62 62 60 59 57 53 51 51 48 46 46 45 43 41 41 41 41 38 35 35 34 33 33 33 34 36 37 39 41 44

GFSMW_250_spd_075.txt.gz
Wind_Speed
104 92 89 96 101 97 80 85 81 81 81 81 70 76 78 71 72 62 64 69 69 67 68 67 70 72 72 74 73 72 72 70 67 65 66 68 70 72 73 75 79 79 80
105 100 97 96 94 88 72 79 86 90 94 77 88 88 86 79 77 72 73 77 70 70 72 76 77 80 79 78 79 77 72 69 71 66 70 76 77 76 78 80 81 83 84
120 109 102 99 96 96 91 76 85 90 90 89 86 94 92 93 83 74 75 80 79 79 76 79 80 77 79 80 74 75 72 70 77 77 75 76 82 84 86 85 85 85 85
121 124 120 102 102 103 99 96 86 83 91 75 74 72 76 79 77 77 70 75 81 80 80 78 79 79 80 81 82 84 84 81 80 83 83 85 84 83 84 85 89 84 87
118 119 121 125 117 99 101 102 96 94 87 88 73 83 73 75 75 76 74 73 80 82 83 81 83 88 87 90 91 91 90 90 86 85 86 81 80 83 82 82 86 85 83
117 115 118 120 127 123 103 90 94 90 87 93 87 87 88 89 89 88 86 85 81 80 77 77 80 80 81 87 90 91 90 85 83 86 88 89 83 88 88 88 89 91 94
121 116 111 116 122 126 125 116 106 97 92 95 95 95 95 93 94 90 90 92 94 90 91 95 98 96 94 93 91 91 95 97 98 98 100 94 91 92 97 96 96 94 97
114 118 118 114 111 115 122 126 121 120 118 107 99 99 100 94 101 101 103 105 105 103 102 102 101 100 100 98 100 102 100 102 104 104 105 105 107 106 102 104 106 108 109
110 114 116 120 114 112 112 115 120 127 127 122 117 113 106 104 107 113 114 117 112 111 112 109 108 109 107 108 108 108 110 110 111 112 111 108 110 112 113 114 119 118 115
99 107 113 115 118 123 119 115 114 120 122 123 125 123 121 121 120 116 116 111 106 111 114 110 109 109 110 114 115 115 115 114 115 116 117 120 121 122 123 121 118 115 111
88 97 105 111 114 117 118 126 126 121 119 120 125 128 129 130 129 126 127 127 125 124 126 125 127 127 123 122 123 125 125 125 127 128 125 123 122 120 118 116 111 108 104
83 88 91 99 106 111 115 117 120 127 130 128 129 130 126 123 123 126 130 134 136 136 138 139 139 138 137 136 135 131 128 125 122 122 121 119 116 114 111 110 107 105 104
75 75 77 82 91 95 103 108 112 116 120 123 122 123 125 130 133 130 127 126 127 125 125 125 125 126 125 125 123 121 119 120 121 120 117 115 112 112 111 111 109 108 105
72 74 75 76 80 85 90 95 101 109 113 116 119 123 124 124 126 128 129 129 130 130 130 129 129 129 130 129 128 126 124 123 123 121 120 119 117 115 114 113 110 107 105
70 72 73 73 74 77 82 87 93 99 105 112 115 117 118 120 123 125 125 125 124 124 124 125 125 126 126 126 125 125 124 121 120 120 119 118 117 114 111 109 108 106 105
67 69 70 71 75 77 80 83 84 88 93 98 102 106 111 115 118 118 118 119 120 121 121 121 121 121 121 120 119 117 116 116 116 115 114 114 113 112 111 108 106 104 104
65 69 71 73 75 77 78 80 83 86 87 90 92 93 96 100 103 107 111 114 116 116 115 115 115 114 114 114 114 112 112 112 113 113 113 113 111 110 108 105 102 99 95
68 69 71 73 74 76 77 80 82 83 83 85 87 88 88 89 90 92 95 99 101 103 104 105 107 108 109 109 110 109 108 108 109 108 108 107 106 104 102 98 96 92 89
68 70 73 75 76 77 79 81 83 82 82 84 84 84 84 83 84 87 89 90 89 91 92 93 95 96 98 98 99 99 99 99 100 100 100 101 99 97 95 91 90 86 81
65 68 72 75 77 79 80 80 80 81 81 81 82 82 83 84 87 88 87 88 88 89 90 91 92 93 92 93 92 94 93 91 92 92 91 91 90 86 83 79 76 73 69
64 67 70 73 75 76 76 76 77 77 79 79 80 80 80 82 85 85 84 86 86 86 87 84 83 84 84 83 83 82 79 78 76 75 75 73 71 67 63 60 59 58 56
62 69 71 73 74 74 74 75 76 74 75 76 76 77 78 79 79 79 80 79 79 79 78 75 74 72 71 70 69 67 64 63 63 62 62 61 60 56 54 53 52 50 48
60 65 70 76 79 78 76 77 77 76 76 77 77 76 75 76 74 73 71 71 70 69 68 65 64 62 59 58 58 58 59 58 58 57 55 53 53 50 49 47 45 43 41
53 60 66 74 80 79 80 80 80 78 77 75 74 71 69 69 67 65 63 62 62 61 60 59 56 54 54 54 52 53 53 51 50 49 47 46 45 45 43 39 39 38 36
52 55 59 66 71 78 82 82 81 80 77 76 74 70 67 65 64 62 60 58 58 56 56 54 52 51 50 48 49 50 48 47 47 45 41 42 42 40 39 38 36 36 36
52 54 56 59 64 68 74 81 83 83 81 78 76 73 69 67 65 62 60 60 58 55 55 53 52 50 48 47 46 45 45 44 44 42 39 38 37 36 34 33 32 32 33

GFSMW_250_spd_078.txt.gz
Wind_Speed
97 96 91 99 90 95 95 77 72 84 80 75 78 78 86 83 68 65 84 80 76 77 71 69 66 65 65 67 64 65 68 70 69 70 72 72 73 74 71 78 78 72 72
99 99 99 100 109 95 90 95 82 84 80 66 66 74 78 91 92 79 70 68 73 75 79 66 69 73 70 72 71 75 76 75 75 77 76 77 78 76 79 76 74 76 75
100 100 100 100 103 109 112 103 89 80 87 79 66 65 69 78 86 85 74 79 67 72 70 73 77 80 84 85 81 81 79 82 84 80 80 76 77 77 76 76 79 78 78
117 106 107 107 105 99 90 99 100 94 84 80 66 64 69 63 64 66 71 77 80 79 79 81 84 84 85 85 86 89 88 86 85 85 82 83 81 85 84 86 87 87 84
116 116 120 110 109 102 102 91 92 96 95 92 84 76 73 77 70 71 74 79 83 81 86 86 86 92 97 90 92 94 91 94 95 94 91 92 89 90 86 85 89 87 88
117 119 113 108 107 109 112 107 101 94 98 101 96 87 89 83 82 84 88 87 85 84 83 86 87 86 73 89 92 91 96 99 98 97 94 91 91 94 90 85 83 92 94
122 117 117 112 119 115 115 105 106 107 103 102 106 106 102 102 100 100 102 97 87 81 88 90 91 93 95 99 99 102 99 98 94 95 95 96 91 91 95 95 95 94 95
125 120 114 112 112 107 97 107 107 104 102 115 113 98 97 98 98 96 98 98 96 91 92 93 99 102 100 103 107 107 102 100 101 105 104 107 109 105 103 103 106 108 107
120 119 125 122 117 110 109 108 107 101 100 105 112 106 103 104 109 110 108 104 101 105 107 104 96 104 111 109 109 110 106 106 111 115 113 113 117 115 115 113 111 113 113
127 126 119 124 129 122 116 113 115 110 99 104 106 104 104 105 110 109 108 108 102 103 114 110 109 110 108 106 112 117 115 113 119 118 114 118 117 114 119 124 127 128 128
124 127 125 125 126 124 125 127 126 128 121 114 108 106 107 104 104 100 97 96 106 110 111 109 111 118 117 113 115 121 123 123 118 119 120 120 122 128 134 136 138 139 137
99 117 125 124 125 122 122 124 126 133 136 135 131 131 132 129 129 125 123 120 118 113 116 120 123 122 121 122 125 128 130 131 134 136 135 135 138 140 139 137 131 128 127
85 93 106 117 122 124 130 129 126 126 127 126 126 128 133 135 135 137 136 137 137 136 139 137 134 134 135 134 134 135 137 140 141 145 145 141 136 133 132 136 130 126 123
74 79 84 93 105 115 121 124 129 134 135 135 132 129 130 132 133 133 135 137 139 140 143 145 146 146 146 146 147 148 148 143 141 139 138 138 139 136 131 129 127 126 123
65 69 72 76 81 85 93 101 112 117 123 130 134 137 142 145 143 141 138 136 136 137 137 137 140 141 142 144 145 147 147 145 143 142 139 136 133 133 133 130 124 119 116
61 65 68 71 74 77 79 84 88 93 101 110 118 125 131 135 141 144 147 149 149 147 145 146 146 146 147 150 147 143 141 139 138 137 135 132 128 126 122 121 120 116 113
60 64 66 69 72 75 77 81 85 89 92 94 100 106 112 120 126 130 133 135 136 138 137 137 137 137 136 135 134 133 132 130 129 128 127 124 122 121 118 114 111 109 106
59 62 66 70 74 77 78 82 85 87 89 89 91 95 99 102 106 110 113 116 118 119 120 121 122 124 124 123 122 123 123 122 120 118 115 113 111 108 106 104 104 103 100
60 65 68 72 74 76 79 83 85 86 89 89 90 93 94 95 96 97 99 101 102 103 103 104 105 106 107 107 107 107 107 107 105 103 101 100 100 99 98 98 99 94 90
51 60 67 72 76 78 80 82 84 85 85 87 89 89 90 91 92 94 94 94 93 94 94 95 97 98 98 98 96 96 96 96 95 93 94 91 91 91 91 89 85 79 73
49 54 59 68 74 79 80 83 86 87 88 88 88 88 87 87 88 88 88 89 88 89 90 91 93 93 93 92 90 90 89 90 88 86 86 83 81 80 77 74 70 66 62
43 49 56 63 67 73 78 84 86 86 87 88 89 88 88 87 87 87 87 87 87 87 88 88 88 86 84 82 81 81 80 79 77 73 71 68 67 68 66 65 64 60 56
45 47 54 59 64 68 71 79 84 88 89 89 89 89 88 88 87 85 85 84 83 83 83 81 80 78 76 74 72 69 67 66 65 63 62 60 60 60 60 59 56 52 48
55 51 51 55 61 64 68 73 79 84 86 90 92 91 90 89 87 85 83 81 81 80 78 75 74 71 69 66 62 59 59 59 57 57 58 57 54 55 54 54 51 46 44
65 58 55 56 58 61 65 67 72 78 82 87 89 91 93 92 89 86 84 81 80 77 73 70 66 63 60 57 56 56 55 53 53 53 53 52 51 51 51 50 47 42 41
64 61 59 58 56 57 60 62 65 71 76 79 83 86 88 90 89 87 84 81 77 71 67 63 61 58 56 55 54 53 53 50 49 48 47 47 48 48 47 46 43 41 40

GFSMW_250_spd_081.txt.gz
Wind_Speed
99 68 81 79 70 84 86 89 77 72 73 72 71 71 78 76 70 69 69 68 64 62 67 73 77 73 72 75 72 78 75 75 68 70 68 72 70 71 71 69 69 69 68
102 77 73 70 70 71 69 81 80 80 76 74 70 75 74 72 79 77 76 73 73 72 71 77 84 84 86 84 83 81 84 72 74 74 74 77 78 76 74 72 73 73 74
107 86 75 85 86 77 84 79 74 72 80 79 81 75 78 75 78 76 77 76 74 69 71 70 71 78 81 80 80 79 80 82 79 80 82 85 85 79 76 76 75 79 84
102 84 91 93 94 96 99 94 84 85 81 75 78 75 74 74 79 80 79 73 71 73 69 69 75 76 72 73 78 79 81 85 88 92 93 88 86 82 85 85 86 94 89
113 103 101 104 102 103 101 94 94 89 80 75 77 81 83 79 73 77 69 60 68 73 78 77 82 85 88 78 85 86 89 89 95 97 92 82 76 85 85 89 97 99 87
113 104 102 108 104 106 105 98 102 95 94 85 78 81 82 78 73 68 71 78 73 68 62 63 72 80 82 85 86 88 92 91 99 98 92 88 89 88 90 92 100 98 94
118 103 108 112 108 107 102 105 103 104 100 91 86 79 77 76 79 80 76 68 74 72 77 75 78 71 80 81 81 84 87 93 97 97 98 96 99 100 101 101 94 93 96
119 119 113 113 112 109 113 112 108 109 109 99 92 88 84 86 81 86 93 91 87 88 83 84 82 80 80 83 86 92 96 98 101 102 108 104 103 105 110 107 102 102 101
119 126 119 113 116 120 114 114 118 113 110 109 104 100 100 97 95 87 84 90 88 88 90 91 91 91 92 96 105 107 108 101 105 106 106 110 108 110 112 115 110 107 110
119 126 122 117 114 116 119 116 119 121 119 117 112 111 109 104 111 112 105 102 101 101 102 98 96 101 106 109 109 113 114 113 115 117 117 117 118 120 120 117 120 118 125
126 128 126 121 117 118 120 120 119 119 122 124 121 122 112 110 111 114 111 112 115 113 116 114 111 107 111 114 117 116 120 121 126 123 117 116 121 126 118 118 119 123 127
130 129 131 128 128 118 121 125 118 119 114 114 121 118 110 118 117 112 112 111 113 116 121 112 114 114 117 115 124 128 128 125 120 116 117 122 124 117 121 117 124 129 131
127 130 130 131 130 131 123 125 121 124 121 123 126 126 116 122 128 124 124 127 130 125 125 131 131 132 130 122 122 129 127 126 122 125 129 135 126 130 135 139 143 146 150
90 108 129 125 135 130 130 134 130 128 126 128 125 117 124 131 129 130 129 130 122 120 125 127 128 133 130 130 133 130 130 132 136 140 141 142 142 144 149 154 150 145 142
60 73 88 117 136 133 136 134 131 128 130 131 128 129 128 135 134 129 135 131 130 134 135 139 138 139 136 139 135 139 142 146 146 145 149 152 156 157 148 145 147 152 151
47 53 62 72 88 120 139 133 139 139 137 140 137 136 137 141 139 138 142 141 144 147 143 148 149 148 150 149 149 152 154 154 154 156 152 148 149 147 150 157 150 145 141
41 48 55 62 70 79 90 102 135 140 139 144 146 142 144 146 148 151 151 150 150 153 156 157 157 161 160 159 155 150 150 149 149 149 152 156 158 158 151 144 137 129 120
32 38 49 59 66 72 79 87 97 114 131 140 152 150 153 151 150 152 155 158 158 155 155 156 157 156 154 157 157 158 157 155 156 156 157 156 148 140 131 124 117 112 108
33 38 45 49 54 64 74 82 88 93 100 105 115 130 143 150 156 159 159 160 160 159 159 160 161 159 158 159 157 151 149 146 142 137 134 130 124 118 113 109 106 102 99
38 40 44 50 56 60 65 71 81 86 93 98 102 106 111 116 120 125 129 132 135 136 137 139 137 133 132 129 124 121 121 118 118 115 112 110 105 101 101 99 94 93 90
55 55 54 51 54 61 67 71 74 78 84 91 96 103 105 107 108 110 111 113 113 114 114 115 115 113 113 112 110 108 107 107 104 102 101 100 98 96 91 87 82 77 73
65 66 64 55 52 54 66 72 75 77 80 84 88 94 97 101 104 104 105 105 106 106 105 105 105 103 102 101 100 97 98 99 96 93 92 90 86 81 77 72 67 62 62
74 74 70 65 57 56 60 70 76 78 79 81 84 88 92 95 97 98 102 103 102 102 100 99 98 97 97 93 92 92 92 90 88 84 80 76 74 69 64 61 58 57 59
84 81 76 67 59 55 58 63 71 77 79 80 81 83 87 89 93 94 96 97 98 99 98 98 96 94 91 89 87 86 83 81 75 71 70 68 62 57 57 56 56 55 56
89 81 70 63 60 57 56 56 62 71 78 80 81 81 82 85 88 90 94 94 95 95 94 92 90 88 85 82 78 78 74 70 69 65 63 59 55 55 55 55 53 52 51
86 73 63 58 57 56 57 56 56 61 69 75 78 78 78 80 84 86 88 91 94 93 93 90 87 84 80 77 73 71 68 65 62 61 58 55 53 53 52 51 49 47 47

GFSMW_250_spd_084.txt.gz
Wind_Speed
84 104 105 107 106 108 107 105 101 99 91 85 78 72 67 71 71 63 63 64 65 65 61 62 60 56 55 58 57 63 66 69 73 75 76 76 77 77 77 74 72 68 70
99 107 88 90 88 89 98 96 101 100 88 87 74 78 77 78 74 69 70 64 64 64 59 63 67 69 73 68 72 75 76 75 77 79 81 84 83 81 78 78 74 71 74
107 95 85 88 81 87 83 76 77 74 81 87 83 80 83 85 84 82 72 71 70 66 69 66 68 74 79 82 83 83 83 85 87 89 85 86 82 84 81 80 78 78 78
108 96 90 89 89 83 80 79 82 83 79 82 82 71 76 83 83 81 81 77 78 78 81 82 82 82 83 91 89 92 89 90 87 91 85 88 87 86 84 83 81 76 70
109 97 84 89 89 91 88 85 70 80 82 83 91 90 77 69 74 77 82 85 79 81 81 79 78 82 74 68 77 76 76 78 82 80 89 94 94 93 85 87 83 82 86
110 93 87 76 83 80 83 90 90 87 94 81 81 68 70 75 79 79 81 82 86 87 87 86 78 80 83 85 82 82 84 85 84 87 86 89 100 90 93 88 88 93 96
102 110 97 100 87 87 91 84 96 87 87 92 92 90 82 82 81 83 81 76 75 74 73 75 72 73 80 76 84 83 88 92 95 90 90 89 88 84 89 93 96 101 103
119 113 100 91 98 98 90 99 96 98 89 95 95 96 89 84 84 83 83 80 75 75 72 66 69 68 72 71 72 72 71 76 85 81 86 77 86 92 92 98 99 107 109
109 121 96 95 100 100 98 95 106 97 84 94 97 99 98 95 88 85 87 88 82 78 84 83 82 84 87 89 81 78 80 82 79 84 83 89 93 98 98 104 110 112 110
114 120 103 100 104 100 101 97 100 110 100 91 100 100 95 96 93 88 90 94 94 94 92 96 92 85 90 89 90 92 90 91 89 93 95 99 97 104 109 112 114 115 114
124 117 107 111 108 103 101 108 103 104 102 101 102 114 103 106 100 97 92 93 97 98 95 95 95 96 100 100 98 100 98 94 100 101 101 112 118 111 119 119 119 122 122
127 124 117 115 107 108 107 112 114 111 105 104 99 100 109 102 104 99 98 92 87 89 94 96 95 93 93 97 98 96 94 92 104 109 110 118 118 124 125 116 120 131 132
122 128 117 118 113 112 114 119 121 118 112 118 120 114 105 109 107 108 104 107 105 102 99 101 105 104 100 103 104 102 114 108 107 112 114 120 119 124 128 130 135 137 138
121 126 129 124 121 121 119 119 122 123 121 121 121 124 126 123 116 110 109 106 104 104 103 105 111 110 112 114 121 118 114 115 124 130 135 131 132 133 137 140 143 138 136
117 126 128 128 139 131 126 123 124 125 128 129 127 130 125 131 134 130 124 120 121 118 120 122 123 125 125 125 127 127 132 134 135 137 138 142 144 145 147 140 142 144 146
87 112 126 131 129 136 137 135 135 135 130 132 135 136 137 136 136 135 138 138 141 139 137 139 141 137 135 136 134 137 141 142 142 145 150 147 148 144 140 145 147 149 151
44 62 91 125 131 134 139 142 144 142 141 136 135 138 139 141 142 139 138 143 144 145 147 147 146 139 141 142 146 145 145 149 154 156 154 159 156 155 150 151 154 158 160
17 24 35 53 78 102 127 141 143 143 148 148 149 150 146 142 143 144 147 148 148 149 146 147 148 147 147 151 153 151 149 152 154 157 158 156 155 159 157 160 157 161 160
14 17 21 30 43 52 62 78 96 118 141 156 151 152 159 153 149 150 151 152 152 155 156 152 154 156 156 158 157 157 157 151 157 159 164 166 163 163 165 159 163 160 166
36 33 29 35 38 41 48 58 68 79 92 108 124 151 167 166 158 159 167 165 160 158 161 164 161 162 158 164 162 158 162 161 165 162 163 164 164 167 170 162 169 156 135
53 48 43 44 45 50 57 61 65 73 82 90 99 111 123 131 143 159 173 172 168 169 169 168 171 170 167 166 163 163 169 170 160 159 162 165 161 159 164 152 133 121 112
63 60 58 57 56 62 65 65 70 78 82 89 94 101 105 109 119 126 133 137 144 156 167 176 177 175 174 170 163 166 166 166 161 156 157 161 148 136 126 118 112 105 100
73 72 67 65 68 67 66 68 68 71 79 87 93 96 97 101 108 110 114 120 128 132 134 136 138 140 144 148 150 147 144 139 136 136 132 124 118 111 108 103 98 93 85
81 78 77 79 76 67 64 65 66 68 71 76 84 92 96 96 97 100 108 111 114 116 123 127 127 126 125 125 125 124 123 119 116 114 112 105 101 100 96 92 86 78 73
86 83 88 85 76 67 62 57 60 62 66 69 73 78 86 91 92 92 95 99 104 106 107 110 116 118 117 115 114 110 107 105 105 100 96 94 92 89 85 77 70 65 63
89 87 89 77 68 63 59 54 53 56 59 62 66 69 72 77 82 85 86 88 89 93 95 98 101 104 106 107 104 101 99 98 96 92 91 86 81 75 69 64 62 59 56

GFSMW_250_spd_087.txt.gz
Wind_Speed
80 81 80 83 77 87 96 98 83 82 84 78 70 70 58 63 64 63 62 61 60 60 55 57 57 59 58 55 58 60 62 63 62 60 61 58 57 62 66 67 70 72 77
81 85 80 86 91 98 96 95 97 85 76 78 70 70 64 61 62 62 64 65 62 63 62 59 61 62 64 61 59 60 63 65 65 67 71 73 74 75 76 82 82 88 83
82 82 87 92 99 105 101 103 98 99 78 76 73 73 66 73 64 68 68 68 68 71 66 66 60 66 61 58 57 61 64 69 74 79 83 86 90 90 93 97 94 94 90
80 80 80 87 94 101 100 99 102 88 87 74 70 72 67 76 70 69 69 70 72 75 71 78 75 68 66 64 60 65 66 75 77 83 88 92 96 98 99 99 95 96 86
71 75 80 88 95 105 106 99 103 100 98 89 78 80 74 77 82 84 82 74 79 79 78 78 74 68 69 70 68 71 73 70 85 86 87 84 88 85 86 84 88 95 93
73 73 82 107 111 109 105 99 92 98 106 96 91 87 81 81 87 86 84 83 88 88 87 84 82 80 81 84 80 81 81 84 79 80 79 78 80 94 90 92 95 95 91
72 89 90 116 105 103 102 95 104 84 79 102 96 90 91 89 95 92 88 87 96 97 98 90 86 86 83 83 81 80 81 83 85 81 81 85 88 89 94 94 97 95 88
82 86 84 93 98 102 97 101 95 95 85 85 84 84 91 87 91 91 95 92 92 84 84 83 85 87 84 83 84 90 89 87 88 88 88 90 92 91 93 90 90 83 83
102 90 83 74 88 95 99 92 87 89 85 87 86 92 87 93 93 92 93 90 86 91 92 86 80 81 86 86 86 89 92 91 86 88 88 93 92 84 89 92 95 88 92
110 87 85 85 92 99 97 97 86 90 96 93 94 95 94 98 100 100 93 91 83 85 86 86 92 88 89 88 87 92 94 91 91 89 87 90 96 94 94 96 96 98 101
105 86 84 84 86 105 100 89 91 92 99 101 102 100 102 95 96 98 94 91 96 89 87 90 89 90 92 91 89 91 94 92 89 92 95 98 101 98 99 102 102 103 103
85 85 88 87 90 96 103 97 94 96 97 98 98 95 103 95 93 96 101 99 95 101 105 102 99 92 94 96 98 98 101 97 95 95 99 100 102 101 106 105 107 107 103
101 89 88 96 95 98 97 95 102 106 102 103 109 111 107 110 100 93 94 101 102 102 104 98 97 98 98 98 99 101 102 103 104 106 105 106 108 109 108 110 111 112 104
108 96 95 96 104 105 101 99 101 104 111 109 107 111 112 105 103 102 103 108 107 109 111 108 106 104 102 102 106 104 105 106 107 107 109 112 114 109 110 114 111 119 121
113 106 99 103 109 109 113 108 109 110 110 115 114 116 120 121 118 110 107 109 111 112 110 112 108 104 106 109 109 111 114 113 113 115 115 112 113 115 118 120 117 124 132
104 117 115 111 111 116 115 109 109 114 118 117 120 119 120 124 129 126 119 117 116 116 120 121 117 115 118 118 119 114 116 115 118 119 118 113 118 122 128 129 126 130 137
98 106 109 112 113 106 114 120 121 118 122 124 128 129 131 131 131 130 128 129 127 122 122 124 129 127 123 125 124 127 130 129 126 126 125 129 133 131 134 132 137 143 147
57 98 103 100 111 113 122 129 127 126 129 130 129 131 133 135 138 140 141 140 141 136 132 127 126 130 131 132 131 131 131 133 130 133 135 137 138 140 142 145 155 155 155
10 25 50 94 108 112 119 122 129 138 131 136 139 139 143 145 145 141 144 148 147 146 148 147 146 144 139 137 135 138 139 140 141 142 143 141 148 147 153 157 159 158 157
11 23 21 21 39 57 76 112 140 139 153 137 143 151 155 157 150 148 148 149 151 157 158 156 156 152 151 156 157 159 158 159 158 157 161 161 160 162 160 159 160 160 159
38 36 30 36 42 47 60 70 82 108 125 133 135 156 165 166 170 172 165 164 165 163 160 160 161 165 163 159 160 162 161 161 159 163 164 161 163 161 163 162 164 161 162
55 59 52 51 49 52 55 58 66 76 90 102 118 130 138 150 163 164 163 168 170 171 177 183 181 178 174 172 168 164 163 167 168 168 168 167 166 165 163 163 168 166 161
66 72 68 64 63 59 59 67 76 89 101 106 116 118 127 128 127 132 140 146 149 148 145 144 161 178 185 184 175 173 174 172 175 174 176 178 175 169 164 164 159 165 164
76 81 79 75 74 70 72 78 80 80 82 89 95 103 113 122 129 129 132 134 136 132 130 136 140 144 143 143 145 150 154 165 173 180 180 175 170 159 163 163 148 138 124
85 91 88 84 81 84 84 83 76 68 66 68 72 76 82 88 94 101 108 113 119 125 128 130 128 129 132 134 136 134 136 139 138 138 134 132 131 128 123 117 109 105 97
94 97 92 89 88 87 83 76 67 62 59 58 61 63 67 71 74 79 83 88 94 99 103 109 112 118 119 121 122 124 124 124 123 123 125 119 115 112 108 102 94 88 87

GFSMW_250_spd_090.txt.gz
Wind_Speed
66 70 72 78 78 65 63 67 73 83 90 85 86 86 85 83 73 69 68 59 58 59 59 58 62 61 61 57 53 54 57 57 57 53 55 55 58 58 61 59 58 60 58
70 75 75 79 80 73 70 73 74 81 86 86 79 79 82 85 80 67 61 60 61 60 59 59 60 62 64 67 63 58 60 62 59 60 56 56 60 61 64 64 62 66 72
72 76 75 80 79 76 73 74 79 85 88 91 87 87 86 84 84 73 69 66 61 60 59 61 59 58 67 67 65 64 61 70 65 61 58 59 65 66 69 69 73 76 78
75 76 76 82 80 78 77 78 81 84 89 93 91 86 74 76 85 77 78 74 68 66 65 63 65 66 65 63 63 62 61 67 64 63 61 69 69 68 71 76 79 82 83
76 74 79 80 78 78 79 81 87 93 93 90 92 90 86 92 85 82 73 75 72 67 72 70 72 68 67 66 72 72 65 65 62 64 71 72 73 76 81 79 86 90 88
73 78 78 79 78 78 81 82 90 87 88 83 89 91 95 91 84 80 79 78 76 66 68 68 69 72 71 74 73 76 75 79 76 71 72 75 79 80 82 84 85 88 89
60 69 71 73 72 77 84 88 93 89 97 94 83 84 88 90 80 81 84 85 81 77 77 78 79 79 78 76 78 80 81 82 78 78 79 83 84 86 86 91 93 93 97
50 56 61 66 76 78 86 87 90 88 96 98 90 88 81 82 82 86 87 93 94 87 88 85 81 86 82 80 80 85 85 83 86 86 88 90 95 99 96 95 94 99 97
46 49 55 66 72 85 87 87 87 89 96 96 101 103 98 91 90 87 85 93 93 93 89 96 91 93 97 93 86 87 88 92 89 91 90 94 92 91 94 97 98 95 98
52 57 61 68 78 80 85 82 89 102 111 101 103 103 102 102 96 96 98 98 99 96 96 96 98 96 100 92 90 85 90 86 86 88 89 89 90 94 96 96 98 96 95
59 68 75 70 67 72 85 71 90 102 114 113 102 112 100 89 90 89 95 106 104 102 101 93 101 95 91 89 89 88 85 91 92 93 93 94 96 96 94 95 95 95 97
65 73 82 77 58 79 85 71 76 83 99 103 102 90 93 101 93 91 90 93 92 93 98 100 97 98 97 97 96 97 96 90 90 95 96 94 97 96 100 100 98 100 102
72 79 74 85 74 77 82 77 78 79 87 93 93 95 100 95 100 98 91 96 98 96 100 97 97 94 100 105 103 103 96 98 102 102 102 103 103 106 106 103 107 109 109
78 81 74 79 85 81 79 83 83 82 93 93 95 95 93 100 106 102 100 99 98 98 97 98 99 100 100 99 99 99 99 99 104 103 106 105 106 106 107 109 107 107 110
78 84 85 76 80 85 82 90 92 89 84 104 107 110 107 107 107 103 104 105 106 105 101 105 105 104 106 104 105 104 109 104 104 106 106 108 106 110 109 113 112 112 109
77 85 91 86 86 85 88 94 95 99 100 100 107 116 118 111 111 111 112 110 113 110 109 109 111 109 113 112 115 115 113 111 108 109 107 105 109 114 117 114 114 117 113
48 78 86 80 82 86 84 92 94 98 102 105 112 114 117 121 123 122 122 124 119 118 120 121 123 118 118 123 120 122 120 116 115 117 116 116 116 116 119 120 118 118 119
58 76 90 92 88 85 87 88 98 100 102 106 111 116 113 119 124 129 132 131 131 132 134 129 127 124 126 126 128 129 127 125 122 123 124 123 123 122 124 124 123 124 131
17 47 77 93 97 95 92 96 102 99 109 111 117 116 121 124 128 131 133 135 134 137 137 141 142 140 138 140 146 142 134 134 129 131 133 131 129 129 126 130 129 135 133
20 12 16 35 73 104 96 102 103 110 115 116 123 129 132 135 142 141 139 140 142 147 151 155 154 151 150 150 146 144 142 140 140 143 139 137 136 135 137 137 138 141 143
32 36 38 22 38 40 41 48 72 102 109 111 126 134 140 145 150 150 150 152 157 158 157 155 158 156 153 156 156 155 154 154 153 148 147 146 143 144 141 143 143 141 141
45 50 52 59 61 65 60 63 61 68 82 94 109 128 145 152 159 156 159 172 169 168 167 164 166 167 166 164 161 159 157 158 157 154 155 155 153 153 151 149 151 154 155
53 57 60 68 71 78 77 75 74 70 72 92 101 112 119 127 133 137 137 162 175 170 170 171 166 180 173 167 168 165 167 170 164 162 159 157 160 157 161 157 159 162 160
61 70 73 80 82 85 84 79 75 76 81 88 96 102 112 123 134 136 135 135 137 140 139 134 135 164 169 169 172 179 174 180 170 171 170 172 172 166 169 176 176 175 170
72 79 81 89 91 95 94 89 87 84 83 82 82 81 80 82 86 94 105 116 126 134 138 137 134 131 133 144 147 149 154 164 168 158 152 153 170 178 180 173 156 142 136
80 85 91 96 99 99 96 95 91 85 77 71 69 67 65 65 67 71 76 81 87 92 100 109 120 128 131 133 134 133 133 137 136 135 136 133 134 134 135 133 132 126 120

GFSMW_250_spd_093.txt.gz
Wind_Speed
75 72 74 77 79 82 79 76 76 74 72 63 65 74 86 89 84 85 71 79 71 64 59 62 62 62 65 66 62 60 59 58 59 59 57 49 52 65 63 56 55 54 53
67 70 75 80 81 83 81 76 76 74 69 64 64 73 85 89 98 95 85 81 79 74 59 61 63 58 59 61 57 57 60 61 62 61 64 60 64 65 63 63 63 59 58
67 73 79 74 81 83 81 79 77 76 71 63 61 73 80 83 91 87 91 86 83 73 65 62 64 64 58 56 60 64 63 66 66 68 65 64 64 70 71 68 63 61 59
70 74 72 74 81 81 78 77 75 74 70 64 65 72 85 93 81 81 84 89 96 78 67 63 66 61 57 59 59 63 69 72 69 69 67 66 65 71 72 71 69 67 64
70 70 68 69 75 77 78 76 78 76 75 68 66 71 83 85 82 79 87 90 94 91 78 73 64 63 62 63 61 71 69 71 70 70 73 71 70 73 76 77 72 73 71
69 66 65 68 73 76 76 75 74 78 75 71 69 75 81 88 83 79 93 94 90 83 77 77 79 70 67 64 66 68 70 73 76 75 71 73 73 70 75 77 79 75 81
66 66 66 67 71 72 72 70 74 79 78 74 67 74 82 88 94 95 88 81 81 85 82 82 84 80 76 76 78 76 78 77 76 77 76 76 76 81 81 82 83 83 84
65 66 69 70 70 70 71 67 75 74 80 72 71 76 84 87 87 81 85 87 88 85 88 82 92 83 82 88 85 87 84 84 80 80 80 80 80 79 83 85 88 88 90
46 51 55 62 67 71 71 70 73 77 76 75 77 77 81 81 83 91 90 96 95 94 92 83 90 89 90 89 95 85 86 82 82 81 81 81 80 80 78 80 83 89 87
33 37 42 45 53 59 61 66 68 76 76 78 81 82 84 87 95 100 99 98 107 101 97 85 87 92 96 100 96 92 92 92 89 88 87 87 87 86 86 88 85 89 91
34 37 36 43 46 49 55 61 69 71 77 79 84 87 90 91 87 93 91 91 94 99 96 96 92 92 94 99 102 98 96 94 99 97 91 93 93 97 88 86 87 90 94
35 39 35 32 46 52 54 61 67 71 73 84 84 95 93 103 94 92 99 100 102 100 92 95 101 98 97 93 103 107 109 103 100 102 105 101 105 99 105 101 98 97 98
41 44 45 42 46 55 61 62 64 68 66 66 79 88 87 91 102 108 96 98 94 100 104 101 98 104 100 103 100 104 105 111 109 107 112 111 112 107 102 103 101 101 99
36 41 44 43 48 58 69 68 65 63 75 75 72 84 87 92 93 102 104 102 95 92 94 102 110 107 111 108 105 103 101 103 106 110 103 106 108 104 103 108 112 107 99
22 38 43 47 53 59 72 79 80 69 69 76 86 81 90 100 105 105 102 105 106 104 111 102 99 103 115 118 110 106 106 105 104 108 110 103 102 106 102 101 103 98 100
14 18 37 46 50 60 69 70 77 89 79 80 82 92 97 96 105 105 107 111 114 112 109 108 107 110 110 106 109 114 108 107 107 105 104 97 102 101 104 102 103 98 99
16 23 31 43 62 62 66 70 72 78 86 94 92 91 96 98 103 106 115 110 111 112 114 117 118 114 117 115 116 110 109 109 110 112 109 109 108 105 107 108 105 106 106
9 14 26 40 58 66 71 75 71 76 82 87 96 100 100 103 105 109 113 121 130 131 125 124 125 124 124 124 125 121 117 115 116 117 117 118 118 112 110 112 114 114 110
11 9 7 10 20 57 73 79 82 79 80 84 88 94 99 107 104 113 115 119 123 130 132 135 133 133 134 134 130 131 131 130 133 129 129 126 127 127 124 122 117 123 118
10 8 13 17 19 25 27 37 82 85 92 88 89 96 104 109 114 119 124 127 129 132 140 141 147 144 145 143 145 146 145 145 141 143 142 139 140 135 135 133 131 127 129
28 30 31 32 33 35 26 32 40 50 51 63 70 74 82 102 115 125 127 133 140 149 153 150 151 151 155 159 158 156 156 154 150 146 147 145 139 138 139 142 136 139 135
36 38 44 48 49 53 55 57 64 68 70 73 74 80 85 98 98 106 117 137 149 150 145 149 158 159 163 157 158 157 151 156 159 159 154 158 151 145 147 147 149 144 140
45 48 51 57 59 65 71 74 76 79 80 84 88 86 86 98 104 116 121 117 118 129 131 127 133 148 153 163 160 164 167 165 165 157 158 156 151 152 153 156 157 151 149
52 56 60 64 72 74 83 87 90 94 96 97 91 89 87 89 93 98 104 112 118 127 129 124 126 130 129 143 153 155 160 169 177 173 170 164 161 163 159 159 160 149 153
61 65 69 75 81 87 92 97 101 103 103 100 95 88 83 80 80 80 82 86 91 94 100 108 114 117 125 132 134 135 139 142 142 140 137 141 148 153 147 142 150 158 156
70 75 79 84 89 93 97 105 107 107 105 98 91 82 75 72 71 70 71 71 73 74 77 80 83 89 97 103 108 116 128 135 137 135 134 134 131 127 124 122 117 121 123

GFSMW_250_spd_096.txt.gz
Wind_Speed
87 91 92 92 92 94 95 91 87 84 82 82 81 73 74 64 59 65 72 77 69 65 64 66 65 68 68 71 68 68 69 68 68 66 67 63 59 60 63 58 56 53 57
77 81 85 89 92 93 94 91 89 85 81 84 84 75 77 67 61 65 72 66 72 61 72 64 59 60 59 60 62 62 64 68 67 65 66 65 62 62 64 63 63 65 65
69 71 79 86 91 91 90 89 87 84 83 86 82 76 75 71 64 59 75 78 78 83 74 71 66 62 60 58 56 58 60 65 62 63 58 66 62 65 65 65 64 64 64
68 67 71 78 84 86 87 90 87 84 86 84 79 78 75 71 65 62 80 88 90 88 84 73 79 62 62 65 59 57 61 61 62 52 50 59 67 67 66 66 66 66 68
65 67 66 68 71 73 81 87 84 84 83 79 81 78 76 71 67 61 73 92 94 92 89 84 72 74 72 73 73 78 67 66 67 67 65 63 63 63 69 71 73 75 72
63 62 61 63 66 68 72 76 79 79 80 78 76 76 75 74 64 62 68 74 90 98 90 88 87 85 78 75 76 69 67 66 68 67 70 73 70 77 79 79 74 75 77
58 58 59 59 60 65 68 70 71 70 74 76 75 74 73 71 66 63 67 70 78 85 92 95 89 87 86 88 80 84 76 71 71 75 77 73 80 81 80 74 78 80 79
59 58 56 54 54 58 61 64 67 66 70 73 73 72 71 70 70 63 64 71 76 82 81 88 93 69 72 85 76 72 76 82 85 84 82 81 82 80 76 76 78 78 79
53 58 56 53 50 54 58 61 61 65 67 66 68 71 69 71 69 65 68 69 74 76 83 83 83 79 79 79 77 79 84 86 83 86 85 81 83 87 85 87 88 86 88
40 45 47 51 54 55 55 52 54 56 59 61 69 71 69 72 70 68 70 75 83 86 92 86 86 93 93 93 91 91 92 94 89 88 83 86 86 89 94 88 91 94 88
27 31 34 39 47 53 53 52 53 54 55 58 65 66 67 66 70 71 75 80 89 93 88 92 88 95 90 97 95 97 98 97 97 97 89 92 93 96 98 94 90 97 97
23 24 26 35 42 44 48 52 56 58 60 65 66 64 55 62 61 68 76 82 89 96 97 102 102 92 91 94 92 98 102 98 94 100 98 95 101 97 101 103 101 99 99
17 23 26 27 29 31 42 47 53 59 61 64 62 60 59 56 60 64 62 71 83 98 101 111 109 108 105 100 99 104 99 100 104 105 109 104 105 108 106 108 103 103 104
12 25 17 16 25 34 38 47 51 54 62 66 63 69 71 69 72 72 72 70 74 83 95 110 112 107 100 105 107 103 102 103 103 103 103 102 106 106 106 106 105 105 105
13 20 9 22 18 23 33 38 45 57 60 59 52 51 55 64 72 74 82 83 82 87 90 92 97 103 108 109 111 108 105 105 106 105 105 107 115 116 113 114 116 116 116
14 9 15 15 15 25 29 27 43 54 59 63 67 68 70 71 74 78 83 87 92 96 95 104 109 112 108 107 107 113 115 112 113 114 116 116 115 112 110 113 121 117 116
22 19 17 15 21 26 29 31 36 49 59 65 61 67 69 70 71 77 81 88 94 100 108 108 107 114 117 115 115 120 116 116 112 113 115 115 120 121 114 112 112 117 116
17 17 15 16 14 14 16 25 35 48 54 65 68 68 73 74 80 87 91 92 93 97 101 108 115 119 121 124 122 118 116 116 120 122 123 121 124 123 122 118 116 115 111
16 14 14 15 17 15 17 20 22 26 55 56 66 77 75 81 88 88 91 94 98 109 111 112 115 124 125 126 129 131 132 128 124 128 129 127 122 118 121 122 123 125 121
15 15 15 15 17 18 23 26 27 29 33 39 41 51 61 62 77 96 100 105 107 116 114 118 129 130 131 136 140 139 139 140 140 139 138 136 133 133 135 127 126 122 121
13 16 17 21 24 27 32 35 39 39 42 47 53 61 65 70 75 78 86 95 108 119 129 133 135 135 142 146 146 146 144 144 145 145 146 144 142 141 136 137 136 135 138
23 26 29 34 38 41 45 48 51 55 59 62 66 71 76 77 79 84 91 96 106 111 116 125 137 146 152 154 154 157 159 158 156 153 153 154 155 153 148 150 150 149 140
31 33 37 40 45 49 52 55 59 62 67 72 76 80 85 90 89 88 92 98 117 120 123 128 125 133 138 141 142 146 145 149 144 146 152 158 157 154 154 153 147 146 146
44 46 49 54 59 61 64 66 71 73 79 83 87 93 96 96 97 95 92 91 95 102 114 122 127 135 138 141 145 144 143 143 144 139 136 139 142 145 151 154 154 153 154
56 58 61 64 68 71 74 77 81 83 89 91 97 100 99 95 92 90 86 82 80 79 81 85 88 95 103 111 118 124 128 132 136 134 134 128 126 128 126 132 144 151 151
63 65 66 71 75 78 82 85 89 93 97 101 103 103 98 92 87 82 78 74 70 69 68 71 73 76 80 85 89 92 97 103 110 114 121 124 126 123 123 125 126 125 126

GFSMW_250_spd_099.txt.gz
Wind_Speed
88 85 91 94 96 95 98 100 96 96 93 90 89 88 85 80 77 77 75 67 67 65 65 66 68 65 69 70 72 76 78 71 72 72 73 70 68 67 69 69 67 65 67
77 77 82 87 94 98 102 101 102 103 98 95 92 90 89 85 82 79 79 73 69 65 67 68 68 68 69 70 69 69 72 73 73 72 69 68 73 72 71 68 69 69 65
69 71 75 79 88 93 99 103 103 104 101 98 97 94 94 91 87 81 80 78 73 66 71 70 64 70 68 69 70 68 71 70 73 75 75 72 69 69 65 65 62 66 64
61 64 65 70 79 84 91 96 97 98 98 93 93 93 93 90 88 85 82 78 77 71 68 68 70 68 70 71 69 66 62 61 59 60 60 62 59 63 63 66 54 57 59
58 60 66 70 73 78 82 82 87 89 90 90 90 88 88 89 87 86 81 80 78 70 69 66 62 60 61 67 67 69 60 61 60 60 60 64 65 67 70 72 74 70 67
53 58 61 66 68 69 72 74 75 79 82 80 83 84 84 84 84 84 80 80 78 73 66 62 59 70 73 78 74 72 79 74 68 60 61 67 69 74 75 75 71 71 70
47 49 51 55 57 59 64 69 70 71 72 72 75 77 79 82 82 82 80 77 75 72 64 64 74 82 76 81 82 82 83 74 73 73 78 74 76 78 75 76 74 75 77
47 46 44 45 47 51 54 58 61 61 61 63 68 73 76 79 81 79 80 76 71 69 66 68 76 78 85 90 89 86 92 86 79 84 87 81 74 79 83 87 78 77 74
46 46 45 44 45 47 50 55 56 56 56 56 60 65 66 68 70 71 71 68 67 67 67 69 78 93 96 98 98 87 89 91 89 94 91 87 100 92 91 90 90 86 83
37 41 45 47 48 46 46 47 49 52 55 56 58 59 59 62 65 63 63 64 69 68 66 69 76 78 86 82 74 79 84 87 92 96 98 88 86 87 84 90 90 91 93
27 33 38 41 45 43 39 38 39 43 46 46 48 53 56 61 60 59 60 63 69 68 69 67 71 73 74 79 83 79 78 78 79 81 86 85 85 85 86 88 87 87 89
13 19 23 29 35 39 41 40 40 39 40 41 45 49 53 53 55 56 60 64 66 68 69 68 67 70 79 88 85 93 89 89 90 90 95 96 93 93 93 92 94 86 88
2 3 10 18 23 30 36 41 41 39 38 38 39 44 48 51 53 57 60 62 63 68 67 70 71 71 80 83 91 94 93 90 92 95 97 104 109 102 98 97 98 100 94
15 3 10 12 9 5 17 29 36 40 41 43 45 46 50 49 48 51 55 59 62 63 69 68 72 72 86 89 88 96 99 99 99 96 97 100 99 99 97 93 97 95 97
20 22 23 24 16 13 12 9 23 25 38 38 42 47 46 48 49 53 53 51 64 64 62 65 72 74 88 96 98 96 100 104 106 104 110 111 110 107 110 110 107 109 108
29 26 22 16 12 13 12 10 7 16 25 34 43 47 54 56 57 59 64 66 70 71 63 72 73 74 79 89 101 105 113 109 106 106 112 112 115 120 119 117 115 110 117
24 25 25 25 22 17 15 16 10 10 13 21 27 36 53 56 62 64 69 75 76 78 79 81 79 78 86 88 89 94 97 103 111 114 116 116 104 107 108 105 108 110 109
12 11 10 9 7 6 5 6 8 12 16 18 26 40 51 54 61 66 69 75 79 85 84 90 93 96 102 105 105 105 107 109 108 113 116 114 113 116 115 114 112 113 107
10 8 8 9 8 10 12 14 17 21 25 27 31 33 39 50 59 66 69 75 84 87 87 90 95 103 108 112 117 119 120 120 119 121 122 124 123 120 116 113 114 115 117
10 10 11 10 12 13 16 18 22 27 30 34 38 41 46 52 56 62 69 76 82 89 95 102 109 110 115 120 124 121 122 123 128 127 128 128 133 137 139 137 127 121 117
15 17 18 20 22 24 24 26 29 34 38 41 46 50 54 58 60 64 73 75 80 91 98 104 109 115 120 125 128 137 138 140 135 134 134 135 132 131 133 136 134 134 137
22 24 25 26 28 31 35 36 37 41 45 48 53 57 58 60 67 73 77 81 87 94 101 115 122 128 131 135 137 137 141 145 141 143 148 147 145 146 145 140 138 140 139
27 30 32 33 33 37 39 44 49 53 56 62 64 68 69 74 77 81 86 90 94 98 102 106 111 114 120 128 137 144 146 148 147 150 150 147 148 144 146 147 147 152 152
38 40 43 45 46 48 52 56 61 62 65 72 70 75 78 81 84 90 96 99 103 102 98 96 96 97 99 104 106 113 122 132 138 141 144 142 142 143 148 151 145 147 147
48 50 52 55 59 60 62 66 71 72 74 80 80 84 87 88 91 99 103 103 99 96 93 89 86 87 87 90 91 91 96 102 111 116 124 133 141 141 137 134 134 139 142
55 58 60 61 64 67 71 74 77 81 81 88 88 93 92 94 99 104 106 100 93 87 83 79 78 80 78 81 82 81 84 87 90 94 98 103 109 118 124 128 135 134 131

GFSMW_250_spd_102.txt.gz
Wind_Speed
89 87 85 87 85 89 92 96 99 97 97 96 93 90 86 82 79 78 75 73 73 71 69 67 65 64 65 67 67 65 66 69 68 71 72 68 68 73 76 75 73 69 70
80 82 74 77 84 86 93 98 99 103 100 98 94 92 90 88 86 87 83 80 79 76 73 75 73 67 66 66 64 68 70 67 68 74 77 75 76 75 76 75 75 77 74
75 76 67 70 78 77 85 93 101 103 104 101 98 94 94 92 90 90 86 84 83 82 81 79 79 73 69 68 69 67 69 69 69 71 72 69 71 71 72 75 75 75 73
68 68 63 70 74 75 80 88 93 100 108 105 106 101 96 93 95 94 91 90 89 89 89 86 83 79 75 72 69 68 64 66 72 76 72 68 69 69 70 69 71 70 68
58 57 56 63 67 69 72 80 88 93 98 107 105 100 96 97 98 97 95 93 94 93 91 89 88 84 78 75 73 70 68 67 71 71 64 66 66 66 59 59 63 68 66
45 48 51 55 59 63 65 70 76 81 85 93 100 104 101 100 102 102 101 99 97 95 92 91 89 85 80 76 74 70 73 72 72 72 68 71 65 60 58 57 62 61 64
36 39 46 51 57 57 58 61 63 67 75 79 93 105 110 110 108 103 101 100 94 90 89 89 84 81 78 77 76 70 73 73 67 63 64 64 65 63 65 57 64 70 70
32 32 39 43 46 50 53 56 58 59 63 68 74 82 90 94 95 94 93 90 88 87 86 81 78 77 74 74 72 69 70 66 64 59 72 73 74 76 76 73 74 79 82
34 34 35 39 42 44 46 49 52 54 57 60 65 70 74 76 77 79 79 79 75 75 77 77 76 75 74 73 69 67 65 68 73 72 78 82 81 82 81 81 80 81 86
26 31 36 36 38 41 42 44 45 48 50 52 56 61 66 68 70 70 69 69 71 73 72 75 75 76 74 69 66 70 67 76 79 81 85 84 85 86 91 92 92 93 93
16 22 27 31 33 34 36 39 42 45 46 47 49 51 54 57 58 61 66 67 67 68 69 68 70 67 67 67 67 70 75 80 84 91 90 91 94 96 96 102 97 90 93
4 6 14 23 31 35 34 35 38 42 43 44 47 49 50 52 54 59 58 58 58 59 60 60 61 61 62 66 68 73 76 86 95 95 92 90 92 86 87 88 89 82 80
14 10 3 10 16 25 33 36 35 35 36 37 40 42 44 47 50 52 52 55 56 53 51 55 56 60 61 67 69 67 76 78 83 90 96 85 83 83 85 89 91 90 87
18 19 23 18 16 7 15 26 32 34 34 32 31 33 35 37 41 45 49 50 50 49 49 51 55 59 61 63 66 69 72 73 74 80 77 82 92 88 85 88 93 97 96
16 12 15 16 17 14 9 9 8 15 23 25 34 36 35 28 40 38 45 43 45 46 46 52 59 62 63 65 68 66 68 70 74 81 83 87 92 95 97 95 94 94 96
28 22 18 17 16 13 10 6 4 2 6 10 14 20 31 36 45 47 45 45 50 50 51 54 54 54 61 64 68 72 75 75 75 82 88 91 100 104 100 105 110 106 104
16 15 14 13 12 12 12 9 6 2 3 7 9 17 28 29 29 33 45 51 50 60 63 64 65 67 69 71 73 72 75 78 84 87 94 97 97 98 103 104 107 109 111
8 7 7 7 6 5 5 7 10 12 13 16 17 19 20 26 33 37 43 47 56 62 66 68 73 80 83 86 85 87 92 92 90 91 93 96 103 107 100 103 104 105 108
9 7 7 7 8 9 10 11 14 17 20 23 25 28 33 36 40 44 47 52 57 61 65 71 76 82 89 93 98 100 103 105 106 106 108 109 110 110 114 116 112 109 108
16 16 17 19 20 20 20 22 24 27 30 31 32 34 38 39 46 51 56 60 64 68 74 77 83 85 87 92 99 107 111 118 122 123 126 124 122 124 123 124 122 119 117
17 18 19 21 23 24 24 27 30 33 36 37 39 40 42 46 49 49 53 56 61 64 68 73 79 94 98 103 109 114 119 122 124 125 131 134 137 136 141 141 138 133 131
22 23 25 27 30 33 33 34 35 38 41 42 44 49 52 56 58 57 62 63 68 69 73 80 88 94 105 115 121 126 130 132 134 137 139 139 139 139 140 142 142 144 146
31 33 34 35 37 39 42 45 46 48 49 52 56 60 63 65 68 67 69 73 77 79 85 92 97 102 108 110 113 115 114 115 116 123 132 139 143 144 141 140 142 144 143
38 40 41 43 45 47 49 50 53 56 58 61 65 68 72 75 78 80 81 84 87 90 96 100 105 108 108 112 111 106 102 100 98 98 99 105 113 124 129 131 135 138 140
46 48 50 53 56 58 59 60 62 64 68 71 75 78 80 81 84 88 90 92 94 97 101 106 106 106 104 103 100 98 96 92 91 89 88 90 92 97 103 107 112 119 126
56 58 60 64 67 68 70 71 71 73 76 78 81 84 85 88 92 93 96 99 98 101 106 103 102 99 94 93 93 91 88 86 84 83 83 82 83 85 88 90 94 98 103

GFSMW_250_spd_105.txt.gz
Wind_Speed
99 91 85 90 93 95 91 89 93 93 95 93 93 91 91 89 87 85 86 84 80 77 75 70 69 71 67 65 63 61 60 60 66 65 67 66 66 65 65 66 73 77 79
84 83 82 86 80 83 85 76 81 86 92 97 98 98 97 91 89 89 89 90 90 83 79 78 75 72 69 68 65 66 65 64 64 66 63 61 63 61 64 67 68 70 72
72 74 71 70 69 75 82 74 76 83 88 93 99 99 100 97 93 93 91 90 91 91 87 85 81 79 76 76 72 71 70 71 69 67 67 62 62 65 67 65 65 69 68
62 61 61 62 63 68 74 64 68 78 81 86 94 103 107 101 96 95 92 93 93 95 94 91 85 82 81 82 77 77 77 78 77 73 71 68 64 70 64 65 74 79 75
47 46 51 57 60 61 64 63 70 75 81 86 89 95 102 104 101 95 95 95 93 92 92 94 90 88 86 83 84 83 83 82 80 78 74 70 66 66 60 65 67 72 71
37 39 43 46 49 53 58 62 68 76 80 82 86 89 91 97 101 98 96 96 99 97 94 94 93 93 91 91 90 89 85 85 85 81 79 72 69 66 66 69 70 62 63
32 34 37 41 44 46 49 54 59 64 70 72 76 76 79 85 91 97 101 100 102 101 99 97 98 99 97 97 94 90 91 90 87 84 77 76 73 69 74 72 73 70 62
29 31 31 35 40 44 48 50 52 56 60 63 67 72 76 80 83 86 95 101 103 104 103 102 102 102 99 97 95 95 92 92 85 81 75 74 76 73 73 71 75 70 64
23 27 29 30 33 36 40 45 46 48 49 55 61 66 72 77 82 85 88 95 102 107 107 106 104 105 103 99 101 99 94 88 82 78 74 75 74 74 73 66 68 64 68
16 21 26 26 27 30 33 34 38 41 45 48 53 57 62 67 72 77 81 85 90 95 100 106 107 106 105 101 97 90 84 80 74 74 75 75 73 74 73 71 71 71 74
8 11 17 23 24 26 28 31 32 34 36 40 45 50 53 56 60 63 67 70 72 76 82 86 89 90 89 86 80 79 75 75 75 76 77 76 75 73 72 72 76 78 81
1 5 9 12 18 21 23 25 27 29 31 33 36 40 45 49 53 56 60 62 65 68 69 72 74 74 72 71 72 73 75 75 77 78 76 75 76 75 79 77 80 85 89
13 5 3 7 10 14 17 20 20 21 25 30 33 37 40 43 47 50 53 56 58 60 62 64 64 64 66 67 68 70 72 71 69 70 66 74 77 77 82 83 85 86 88
16 13 7 3 4 8 11 13 18 19 21 22 25 29 33 37 41 44 48 50 53 55 57 57 57 58 58 57 57 60 59 64 64 63 69 72 75 78 81 90 88 89 84
9 10 10 9 5 2 3 8 13 15 23 25 24 26 29 28 31 33 37 41 43 47 48 48 49 51 53 54 59 61 63 65 66 67 70 75 77 83 88 87 87 84 79
18 19 17 14 11 8 6 2 4 8 13 17 22 25 26 29 36 34 31 34 41 43 48 47 48 47 52 57 57 60 62 70 73 73 73 76 80 81 83 85 89 91 92
12 11 10 10 8 7 8 7 6 4 3 2 4 7 12 18 21 25 29 31 35 41 42 46 53 55 55 59 64 68 72 74 78 80 83 86 83 83 86 86 89 90 91
12 12 13 12 11 10 10 10 10 11 11 12 14 16 17 20 22 24 29 33 38 40 44 47 49 55 59 61 65 69 72 79 84 83 84 87 88 90 93 96 98 99 101
12 12 11 12 12 13 14 16 18 19 20 21 23 25 28 30 32 34 37 40 43 45 49 53 57 61 64 67 70 72 77 80 80 85 94 101 99 99 102 99 99 102 105
21 21 21 21 21 22 23 25 27 29 30 31 32 35 37 39 41 44 45 47 48 51 55 58 63 64 68 71 74 81 82 85 83 91 96 100 103 106 116 118 113 114 115
28 28 27 27 27 27 27 28 31 33 34 36 37 39 41 44 47 51 53 54 57 60 64 67 69 73 73 79 82 85 90 95 99 98 100 107 111 116 119 123 124 127 128
35 34 33 34 34 35 36 38 38 39 41 44 46 48 51 51 55 56 59 63 66 70 75 79 82 84 86 90 96 97 100 103 106 111 118 120 123 123 127 130 131 131 132
42 43 43 43 44 44 45 47 49 49 49 51 53 55 57 59 62 65 68 72 74 77 80 83 85 88 91 94 97 98 103 112 119 122 121 119 125 131 134 133 133 135 134
52 52 53 54 54 55 55 57 59 61 63 65 65 66 69 70 72 74 77 80 82 84 87 88 91 92 94 100 102 103 106 107 106 105 104 106 108 110 113 115 116 120 125
61 62 64 65 65 66 67 68 70 72 74 75 77 78 78 79 82 84 84 87 90 91 94 93 94 95 98 101 102 104 104 106 105 101 97 96 95 94 96 97 98 97 98
67 70 72 73 74 75 76 77 79 81 83 85 85 87 87 87 88 91 93 96 97 98 96 96 96 97 96 97 98 101 101 98 94 88 87 86 85 83 83 83 83 83 82

GFSMW_250_spd_108.txt.gz
Wind_Speed
103 100 101 102 99 96 96 97 93 91 98 100 98 97 94 95 93 91 90 86 86 93 85 78 81 79 77 75 73 69 69 70 68 64 63 60 60 61 57 58 60 57 60
95 92 93 95 92 89 87 88 89 87 86 94 101 98 99 99 97 97 93 91 90 96 84 83 84 85 83 79 78 74 72 73 73 71 68 63 66 62 63 62 61 61 59
78 76 79 80 77 74 70 73 77 80 76 80 91 96 98 99 100 99 99 95 92 95 87 84 87 85 85 83 83 82 80 79 74 69 68 67 65 69 67 65 67 67 61
69 68 66 64 64 60 63 65 69 69 62 69 79 84 86 95 105 104 100 100 96 95 90 87 88 89 86 87 88 87 87 84 80 78 76 76 74 74 72 70 70 71 69
51 49 48 48 48 49 53 59 61 58 60 68 80 79 85 90 95 105 109 101 98 96 94 91 89 91 89 91 88 91 92 90 87 84 82 80 80 78 77 76 75 75 74
43 42 44 45 43 43 45 50 53 55 61 68 74 85 93 87 93 98 97 92 96 99 99 98 95 95 95 93 92 92 92 97 93 90 89 86 83 83 85 81 80 81 78
34 32 35 38 37 37 38 41 43 49 55 66 80 81 86 80 89 90 84 80 88 97 103 105 102 100 97 97 98 96 95 94 95 94 94 91 91 89 90 88 84 87 83
30 28 28 29 31 33 33 35 37 41 49 59 65 70 69 69 71 73 67 72 79 87 94 104 106 105 104 102 101 99 97 97 94 92 94 95 97 96 93 91 88 89 84
24 24 25 27 27 28 28 29 33 38 43 49 57 63 68 71 73 74 75 74 76 82 88 92 97 103 108 107 103 102 102 102 100 98 97 96 98 100 97 96 94 88 82
16 17 19 20 23 23 24 25 27 30 34 39 45 50 55 61 65 69 72 74 75 78 81 85 89 93 99 105 107 107 106 104 104 105 104 104 102 101 100 96 93 83 81
11 13 14 12 14 16 16 19 22 24 27 31 36 40 43 47 52 58 63 68 72 74 77 79 81 85 88 93 99 101 103 103 106 106 106 104 101 97 94 93 85 80 81
15 10 11 14 14 14 13 13 14 17 20 23 28 32 36 39 43 48 53 60 66 71 75 79 81 84 86 88 90 92 95 97 99 98 97 96 93 88 81 79 81 81 82
21 19 15 10 10 12 13 14 13 13 16 19 22 25 28 32 36 40 44 49 53 58 62 66 69 72 75 78 81 83 84 85 85 85 82 81 79 76 78 81 82 82 83
21 20 19 18 16 11 10 12 14 15 15 16 19 21 25 29 32 34 37 41 45 48 52 55 58 61 64 66 68 69 71 72 71 73 71 75 76 73 75 79 79 79 80
21 21 20 19 19 16 13 12 10 10 14 18 19 19 21 24 27 31 35 38 42 45 49 51 52 53 56 57 59 60 61 61 65 67 70 73 70 72 76 76 78 79 79
17 17 15 14 12 13 11 9 8 7 9 12 17 21 25 27 27 32 34 36 37 37 41 44 46 48 49 52 52 52 54 54 59 62 66 67 67 71 74 73 74 72 81
23 21 19 17 15 13 11 11 10 8 7 7 9 11 16 18 19 22 26 28 35 39 40 42 42 44 45 48 50 53 54 55 59 61 65 71 75 78 79 77 75 80 80
29 29 28 26 25 24 23 21 20 20 19 18 18 19 20 22 23 24 25 27 30 33 37 39 41 43 45 46 49 52 55 59 62 64 67 68 73 78 81 83 87 89 89
32 32 33 34 34 34 34 33 32 30 30 29 30 30 31 32 33 35 35 37 38 40 43 45 48 50 53 55 57 59 62 65 68 70 75 76 80 81 83 84 88 93 94
34 35 36 36 36 37 38 38 39 39 39 38 38 39 40 42 43 44 45 46 48 50 52 54 55 57 60 63 65 67 70 73 76 80 84 85 86 90 93 97 99 99 103
42 41 40 41 42 42 42 43 44 45 47 49 49 48 47 47 47 48 49 51 52 55 57 60 64 67 69 73 77 80 83 87 90 92 93 97 97 100 101 103 106 110 113
47 48 49 50 49 49 51 52 53 54 55 55 56 55 56 56 57 58 60 61 63 66 68 71 74 77 80 82 86 89 93 97 99 99 101 104 105 110 113 117 118 118 119
39 43 49 54 58 61 62 62 63 63 64 64 64 64 66 67 68 69 71 73 74 77 79 80 81 84 89 91 93 96 98 102 104 103 105 107 110 114 118 122 127 130 134
43 43 45 47 52 57 63 68 71 73 74 75 75 76 76 77 77 79 80 82 84 85 83 84 87 90 92 94 97 99 101 102 100 100 101 104 107 110 113 114 114 114 114
50 51 49 49 51 53 56 61 67 72 77 80 81 82 83 83 84 85 88 89 88 87 87 92 92 91 92 94 94 94 95 97 98 97 98 100 99 97 98 101 104 108 110
51 50 51 53 54 54 56 59 61 64 68 73 77 78 77 81 84 85 84 83 88 90 86 81 81 83 86 89 91 94 95 96 97 95 93 93 95 93 93 94 95 94 94

GFSMW_250_spd_111.txt.gz
Wind_Speed
96 101 102 105 107 107 103 103 104 106 106 102 105 105 105 104 100 100 96 94 92 94 91 91 90 91 94 81 81 81 78 77 74 73 69 68 69 69 66 63 64 61 61
91 93 100 106 102 97 93 94 95 93 94 94 91 93 102 104 104 105 103 97 91 90 91 92 93 94 95 87 85 84 81 80 81 78 74 73 73 72 73 69 67 69 68
91 97 99 98 94 91 89 85 83 82 82 85 80 81 86 91 94 102 106 106 97 93 94 94 91 92 94 92 90 86 84 84 84 79 81 80 77 78 76 75 70 72 69
89 84 78 76 74 72 71 71 69 71 74 75 73 74 78 86 86 90 100 102 104 101 98 98 95 95 99 96 90 89 86 88 88 85 84 87 85 83 81 78 77 76 76
69 66 63 61 58 58 57 54 56 60 65 67 67 69 76 80 73 88 97 99 100 102 106 105 104 102 102 102 95 91 83 88 91 94 89 91 90 86 85 84 84 82 82
57 55 55 51 48 48 47 42 43 46 54 59 60 58 64 73 80 89 93 97 99 101 102 104 108 103 102 102 101 99 92 90 92 91 91 89 90 90 91 89 90 89 87
52 42 40 39 40 39 40 38 37 38 43 50 50 55 64 72 76 84 92 99 96 95 95 96 99 99 103 104 104 104 104 101 98 95 92 91 91 93 93 93 92 94 94
39 33 33 32 33 31 29 30 29 31 34 39 44 51 61 71 79 90 96 94 79 82 84 84 86 90 97 103 108 109 109 107 105 102 101 99 95 96 96 95 93 92 94
27 26 29 29 26 25 23 24 27 26 28 30 36 44 51 58 67 77 71 60 63 67 73 76 79 82 85 91 96 102 110 112 108 105 105 106 104 104 101 97 96 97 95
24 23 23 24 23 24 23 20 19 20 23 26 30 36 44 53 59 64 65 63 66 69 71 72 73 77 81 85 89 94 98 105 110 112 111 110 111 110 105 101 101 101 99
28 28 26 21 20 21 21 20 19 16 16 19 25 29 33 39 44 47 51 55 61 66 68 70 72 74 76 79 82 86 90 93 98 101 103 108 109 110 111 109 106 106 104
32 32 29 27 25 20 18 17 17 17 16 16 18 22 26 30 35 40 43 47 50 54 58 64 69 73 75 78 81 83 86 89 91 91 93 97 97 98 100 103 106 106 105
32 35 36 33 29 24 21 15 14 15 16 17 18 19 21 24 28 32 35 37 41 45 49 52 56 61 66 71 75 77 81 83 85 86 88 91 91 92 92 92 94 95 96
30 33 34 32 31 29 27 22 15 14 16 17 18 20 23 25 25 27 29 31 33 36 40 43 47 52 56 60 66 69 73 75 77 79 82 83 83 84 85 86 85 84 85
24 26 28 30 32 31 27 25 24 20 16 16 19 20 22 23 25 27 30 31 32 34 36 38 41 44 48 52 55 58 62 64 66 69 71 73 74 73 73 74 73 72 73
23 23 23 25 25 26 27 28 27 24 21 19 18 17 21 25 28 30 31 32 32 34 35 37 39 42 44 47 49 52 55 58 60 62 63 64 64 64 66 68 67 72 72
36 35 35 33 31 27 25 26 27 27 27 26 25 23 23 23 27 30 32 34 36 36 40 42 45 47 45 47 48 50 53 55 57 59 60 60 62 63 65 68 70 74 74
38 40 40 40 41 40 38 37 34 32 31 31 32 32 32 33 33 33 33 34 35 35 36 38 40 43 46 49 51 50 51 54 55 55 56 60 63 64 66 70 73 74 76
39 42 44 47 48 47 46 45 45 44 43 43 42 42 41 41 43 43 43 44 45 45 45 45 45 46 47 49 52 54 55 57 60 63 66 66 69 72 74 75 76 78 80
38 39 41 44 47 50 52 53 54 54 52 51 50 50 50 50 51 50 51 52 52 53 54 54 55 56 58 60 62 63 65 67 69 71 73 74 78 79 80 81 83 83 86
43 44 44 44 45 47 49 53 57 60 61 62 62 61 61 61 61 61 61 61 62 62 62 63 62 62 64 67 69 71 73 75 77 80 81 83 85 87 88 91 93 93 94
45 46 47 49 50 51 52 52 54 57 60 64 68 70 72 74 73 73 73 73 72 71 71 73 75 77 79 79 81 83 85 87 87 89 91 93 95 97 99 101 102 104 105
48 47 47 46 48 51 54 55 57 59 59 61 65 67 69 73 78 81 83 85 85 84 84 84 85 87 89 90 91 94 96 96 96 97 100 103 104 106 107 109 112 116 118
57 52 50 48 47 51 53 54 55 58 61 63 64 66 69 72 74 76 78 81 83 87 90 92 95 96 97 98 99 100 100 99 102 104 105 108 109 110 113 113 112 113 112
64 60 59 57 55 54 55 58 60 62 64 64 66 67 68 70 72 74 76 76 77 79 83 85 86 89 93 95 97 98 98 97 95 94 94 94 94 96 100 102 103 104 106
69 66 64 64 63 60 58 61 62 65 67 68 68 67 67 69 72 72 73 72 72 73 74 76 80 82 84 86 88 89 89 90 93 91 91 92 95 97 98 99 99 99 98

GFSMW_250_spd_114.txt.gz
Wind_Speed
95 96 97 101 104 107 107 105 105 106 104 104 106 106 109 108 104 112 110 107 105 101 96 93 93 97 95 92 92 91 92 87 87 83 84 79 73 70 68 71 64 61 64
94 98 103 104 106 105 102 101 103 104 103 101 100 98 99 97 97 101 103 104 107 103 100 96 95 94 97 96 96 96 99 94 93 89 87 86 84 80 77 76 72 68 71
95 97 100 100 98 98 98 98 98 96 95 91 89 90 92 91 89 88 90 90 101 104 107 103 101 101 96 95 100 99 100 101 95 95 94 89 89 87 83 82 79 78 75
85 88 90 89 89 88 87 82 77 74 75 75 73 78 79 79 83 79 84 80 85 88 99 108 105 101 103 101 100 101 106 103 102 99 94 94 95 94 90 85 83 79 78
79 79 77 73 72 70 69 66 63 63 62 62 60 62 67 74 72 70 74 75 75 85 86 103 104 104 109 112 107 103 105 104 102 102 98 96 96 98 94 90 89 86 85
63 62 59 56 56 54 51 50 49 50 48 46 46 49 53 55 60 64 68 71 70 75 99 97 101 102 103 106 109 111 107 104 102 103 101 99 94 95 92 85 91 92 89
42 44 44 40 38 40 39 40 40 41 38 38 37 37 41 45 48 56 66 66 77 84 97 104 107 102 103 100 102 104 108 108 105 105 105 104 100 100 100 89 86 89 92
25 27 28 27 28 31 29 30 32 32 30 30 31 30 30 34 41 51 60 67 79 86 97 104 104 101 99 92 92 94 94 98 106 108 110 112 107 105 106 101 97 93 92
20 25 28 30 27 24 25 25 25 27 26 24 23 25 26 26 33 41 52 62 72 80 89 97 84 77 77 81 85 90 90 92 95 99 107 111 112 110 110 108 107 107 97
23 26 29 31 33 30 26 26 23 20 23 24 21 20 23 26 30 35 35 47 55 60 63 62 55 58 66 77 82 82 87 89 92 94 99 102 106 109 109 110 111 113 112
24 27 29 28 28 31 31 26 25 25 22 20 21 20 17 21 26 31 37 44 47 47 47 53 58 64 72 75 76 78 81 84 87 90 94 96 99 102 105 107 109 111 111
30 30 29 30 33 32 29 31 30 25 24 25 23 21 21 21 23 25 30 36 40 45 51 55 58 62 65 68 72 74 78 81 82 85 88 91 94 96 99 99 100 101 100
34 36 38 40 38 36 36 33 29 29 28 25 22 23 25 26 25 26 28 30 33 37 39 42 47 52 57 62 68 71 73 76 79 82 83 84 89 90 90 91 93 94 91
30 32 34 37 38 40 41 40 37 35 33 30 27 24 22 23 24 28 30 31 34 37 39 43 46 49 50 53 56 62 67 72 75 77 79 82 85 86 88 89 89 90 91
29 31 33 34 35 36 36 36 38 38 37 35 34 33 32 29 27 27 29 31 31 33 36 41 43 44 46 49 50 52 56 60 64 68 71 74 77 78 80 81 82 83 85
36 35 35 35 35 35 35 36 36 35 36 36 37 36 34 33 34 34 32 32 35 37 39 40 40 41 41 44 46 49 52 54 56 60 62 65 68 70 72 74 76 78 77
42 41 41 41 41 41 41 41 40 40 39 39 39 39 39 40 40 39 40 40 40 40 40 41 42 44 45 46 48 49 52 53 56 58 60 62 64 65 66 69 70 72 71
45 44 44 44 43 43 42 42 41 42 43 44 45 46 46 47 47 46 46 47 47 47 47 48 48 48 47 48 50 50 52 55 57 59 60 61 62 63 65 66 65 67 69
51 49 47 45 47 47 45 44 44 44 46 47 48 48 50 52 54 56 57 57 56 56 56 56 57 58 57 57 58 57 57 57 59 62 65 65 65 67 68 66 66 68 70
55 54 51 48 47 47 47 47 49 50 51 51 52 52 54 56 57 59 62 65 67 68 67 67 66 67 67 67 66 66 67 68 69 70 70 71 71 72 74 73 73 72 74
59 57 53 53 50 47 44 42 45 46 47 49 52 54 57 58 60 62 64 66 69 71 72 75 77 77 76 76 76 76 76 76 77 79 80 80 82 82 82 83 83 82 82
70 66 61 57 55 51 49 48 46 46 47 51 54 56 58 60 63 64 65 67 69 70 70 73 75 78 81 84 85 86 86 86 86 87 88 89 90 89 89 90 91 91 90
74 73 72 66 61 60 56 53 54 53 53 55 57 60 61 65 68 69 68 67 66 67 69 70 72 75 76 78 81 87 91 95 96 97 97 99 101 101 101 102 102 102 101
78 76 76 74 69 64 62 60 58 59 59 60 63 65 65 68 71 71 70 68 63 64 65 68 70 72 76 77 80 83 86 92 95 98 101 104 106 107 109 110 111 111 112
80 80 77 80 79 70 68 66 65 65 64 64 67 68 69 69 70 69 66 64 61 60 63 65 67 68 72 74 77 80 84 87 90 91 93 96 98 100 99 99 101 103 103
83 82 81 80 81 79 73 72 69 69 68 69 70 71 72 70 67 63 61 59 57 57 57 58 61 64 65 69 72 76 79 83 84 85 87 89 89 91 92 93 94 95 96

GFSMW_250_spd_117.txt.gz
Wind_Speed
100 102 102 102 104 105 105 105 105 104 106 111 111 109 108 108 109 109 104 108 107 107 108 106 104 103 101 98 98 91 95 95 95 93 92 89 88 88 82 80 75 72 69
96 97 98 99 102 104 104 106 105 107 109 109 108 105 101 100 98 97 94 96 100 97 100 99 98 99 101 102 103 99 96 96 99 99 99 96 93 96 94 87 85 81 78
98 101 102 102 103 102 99 98 97 98 96 92 91 90 90 89 88 88 88 90 92 92 92 95 89 93 95 99 103 106 105 98 100 102 102 100 100 103 98 96 90 90 87
88 86 84 83 84 84 83 81 80 79 75 74 73 73 74 75 78 79 80 80 84 83 82 87 85 81 89 93 99 102 105 108 106 103 103 103 105 105 103 100 101 97 96
62 63 66 68 68 68 69 66 63 62 61 61 60 61 59 62 65 68 70 72 73 72 74 74 73 86 85 98 100 100 102 104 105 106 107 101 105 108 109 106 104 105 95
52 51 50 48 46 49 52 51 51 50 48 48 48 48 49 51 53 55 56 61 64 67 66 67 68 88 94 89 100 100 104 99 100 105 110 108 106 107 107 107 105 107 102
34 29 27 29 32 32 33 36 38 39 39 41 41 41 42 40 39 42 46 48 52 58 62 63 67 76 94 98 107 107 110 100 102 102 107 112 114 112 111 110 106 108 102
11 12 17 21 26 29 28 27 28 30 31 29 29 30 32 33 34 37 41 40 44 52 60 65 70 80 90 104 106 107 112 105 100 99 101 103 107 110 113 112 111 109 104
15 21 22 26 28 30 32 31 29 27 26 25 20 23 26 25 29 29 33 34 35 43 51 61 68 79 90 98 99 100 104 101 96 96 93 93 98 104 105 106 111 112 112
19 22 24 26 27 28 29 31 32 30 28 25 24 21 19 20 23 26 27 30 30 33 42 53 62 74 82 90 95 95 90 88 91 93 91 92 99 102 102 100 102 105 110
24 25 26 27 30 33 34 34 33 32 33 32 28 23 24 20 18 21 22 22 27 30 33 39 46 53 60 65 71 73 67 70 79 82 87 92 97 99 100 100 100 101 102
31 33 34 35 36 37 37 36 35 35 34 32 32 30 27 23 20 19 20 24 25 28 32 37 43 49 50 54 60 60 67 73 81 85 88 89 91 93 94 96 97 99 103
33 35 36 37 39 40 42 42 41 40 37 36 35 34 31 28 25 23 21 20 23 25 31 35 39 44 50 57 62 66 69 71 76 78 78 80 82 85 89 94 94 96 100
35 35 36 37 37 37 38 39 40 41 41 40 38 37 36 36 35 32 29 26 24 26 29 32 35 37 43 49 54 56 59 62 65 69 71 74 78 81 83 86 88 91 93
40 40 39 38 40 40 40 39 38 38 39 40 39 38 38 39 39 39 38 38 38 36 34 35 38 40 42 45 48 50 52 53 55 58 62 66 70 73 77 79 82 85 87
48 44 42 41 40 40 41 42 42 40 39 38 38 39 40 40 40 41 43 44 45 45 46 47 46 44 44 46 51 53 53 54 54 56 58 59 61 65 71 75 80 82 83
60 59 52 47 46 45 45 44 45 45 44 43 43 42 41 40 42 43 45 45 47 50 52 54 55 56 57 56 55 54 54 55 56 57 58 58 59 61 63 66 69 72 75
61 61 58 56 53 49 47 46 46 46 46 48 49 47 47 47 47 46 46 48 50 52 53 56 58 61 64 65 65 64 64 62 60 59 59 60 61 63 64 66 67 69 71
67 66 62 60 58 57 57 49 45 46 46 47 47 49 50 51 53 54 55 55 55 55 57 59 61 63 64 67 70 72 72 72 72 71 70 67 66 65 64 66 69 71 72
64 66 68 67 66 62 59 59 54 51 49 48 47 49 50 51 52 53 56 59 61 62 63 63 64 66 68 68 69 71 74 77 79 79 78 77 77 77 75 74 72 74 74
67 68 67 68 68 67 64 62 62 59 55 54 53 52 51 53 55 55 57 58 61 64 67 68 67 67 68 68 69 71 71 74 79 82 84 84 84 84 84 84 82 82 82
70 70 71 71 69 69 66 64 64 63 60 58 57 55 55 55 57 57 60 62 63 66 68 69 67 64 63 64 66 68 69 71 73 77 80 84 86 88 89 90 91 91 91
70 73 75 74 75 73 71 68 67 66 65 63 62 60 60 61 61 60 63 63 63 63 63 63 64 62 60 60 63 66 69 71 73 75 80 83 85 87 89 91 94 95 96
72 72 74 76 75 77 75 73 70 69 68 67 65 64 64 66 66 63 63 63 61 61 61 59 57 58 57 57 58 60 65 68 70 73 79 82 85 87 88 89 91 92 93
79 78 77 77 78 79 78 76 73 69 68 69 68 66 68 69 69 68 66 65 61 61 60 56 53 54 54 55 57 59 62 64 67 70 73 77 79 81 83 85 87 89 89
79 78 79 79 79 80 79 79 75 73 70 71 69 68 69 70 73 74 72 68 65 62 61 57 53 52 52 54 56 59 62 64 67 70 72 73 73 74 75 77 79 80 82